<?xml version="1.0" encoding="utf-8"?>
<gpx xmlns:xsi="http://www.w3.org/2001/XMLSchema-instance" xmlns:xsd="http://www.w3.org/2001/XMLSchema" version="1.1" creator="Shapelink.com" xmlns="http://www.topografix.com/GPX/1/1" xmlns:gpxtpx="http://www.garmin.com/xmlschemas/TrackPointExtension/v1">
  <metadata>
    <name>Løping 4.83 km, 2014-07-01</name>
    <desc></desc>
    <author><name>Mikael Blom</name></author> 
    <time>2014-07-01T10:07:13Z</time>
  </metadata>
  <trk>
    <name>Løping 4.83 km, 2014-07-01</name>
    <trkseg>
      <trkpt lat="59.9550802" lon="17.7143375">
        <ele>43.8773</ele>
        <time>2014-07-01T10:07:13Z</time>
      </trkpt>
      <trkpt lat="59.9550727" lon="17.7143575">
        <ele>43.3966</ele>
        <time>2014-07-01T10:07:14Z</time>
      </trkpt>
      <trkpt lat="59.9550532" lon="17.7143804">
        <ele>43.8773</ele>
        <time>2014-07-01T10:07:15Z</time>
      </trkpt>
      <trkpt lat="59.9550305" lon="17.7144062">
        <ele>44.358</ele>
        <time>2014-07-01T10:07:16Z</time>
      </trkpt>
      <trkpt lat="59.9550103" lon="17.7144406">
        <ele>44.358</ele>
        <time>2014-07-01T10:07:17Z</time>
      </trkpt>
      <trkpt lat="59.9549867" lon="17.714471">
        <ele>43.3966</ele>
        <time>2014-07-01T10:07:18Z</time>
      </trkpt>
      <trkpt lat="59.9549657" lon="17.7145083">
        <ele>43.8773</ele>
        <time>2014-07-01T10:07:19Z</time>
      </trkpt>
      <trkpt lat="59.954935" lon="17.7145416">
        <ele>43.3966</ele>
        <time>2014-07-01T10:07:20Z</time>
      </trkpt>
      <trkpt lat="59.9549113" lon="17.714581">
        <ele>43.3966</ele>
        <time>2014-07-01T10:07:21Z</time>
      </trkpt>
      <trkpt lat="59.9548904" lon="17.7146313">
        <ele>42.916</ele>
        <time>2014-07-01T10:07:22Z</time>
      </trkpt>
      <trkpt lat="59.9548705" lon="17.7146779">
        <ele>42.916</ele>
        <time>2014-07-01T10:07:23Z</time>
      </trkpt>
      <trkpt lat="59.9548564" lon="17.7147298">
        <ele>41.9547</ele>
        <time>2014-07-01T10:07:24Z</time>
      </trkpt>
      <trkpt lat="59.9548398" lon="17.7147717">
        <ele>41.9547</ele>
        <time>2014-07-01T10:07:25Z</time>
      </trkpt>
      <trkpt lat="59.9548175" lon="17.7147995">
        <ele>41.9547</ele>
        <time>2014-07-01T10:07:26Z</time>
      </trkpt>
      <trkpt lat="59.95479" lon="17.714812">
        <ele>41.9547</ele>
        <time>2014-07-01T10:07:27Z</time>
      </trkpt>
      <trkpt lat="59.9547683" lon="17.7148258">
        <ele>41.474</ele>
        <time>2014-07-01T10:07:28Z</time>
      </trkpt>
      <trkpt lat="59.9547409" lon="17.7148296">
        <ele>40.9934</ele>
        <time>2014-07-01T10:07:29Z</time>
      </trkpt>
      <trkpt lat="59.954715" lon="17.7148416">
        <ele>40.9934</ele>
        <time>2014-07-01T10:07:30Z</time>
      </trkpt>
      <trkpt lat="59.9546844" lon="17.714841">
        <ele>40.9934</ele>
        <time>2014-07-01T10:07:31Z</time>
      </trkpt>
      <trkpt lat="59.954643" lon="17.7148426">
        <ele>41.9547</ele>
        <time>2014-07-01T10:07:32Z</time>
      </trkpt>
      <trkpt lat="59.9546006" lon="17.7148478">
        <ele>42.916</ele>
        <time>2014-07-01T10:07:33Z</time>
      </trkpt>
      <trkpt lat="59.9545663" lon="17.714852">
        <ele>42.4354</ele>
        <time>2014-07-01T10:07:34Z</time>
      </trkpt>
      <trkpt lat="59.9545315" lon="17.7148421">
        <ele>40.9934</ele>
        <time>2014-07-01T10:07:35Z</time>
      </trkpt>
      <trkpt lat="59.9545017" lon="17.7148379">
        <ele>40.5128</ele>
        <time>2014-07-01T10:07:36Z</time>
      </trkpt>
      <trkpt lat="59.9544709" lon="17.7148431">
        <ele>40.5128</ele>
        <time>2014-07-01T10:07:37Z</time>
      </trkpt>
      <trkpt lat="59.9544378" lon="17.7148479">
        <ele>40.5128</ele>
        <time>2014-07-01T10:07:38Z</time>
      </trkpt>
      <trkpt lat="59.95441" lon="17.7148524">
        <ele>40.9934</ele>
        <time>2014-07-01T10:07:39Z</time>
      </trkpt>
      <trkpt lat="59.9543794" lon="17.7148416">
        <ele>41.9547</ele>
        <time>2014-07-01T10:07:40Z</time>
      </trkpt>
      <trkpt lat="59.9543527" lon="17.7148351">
        <ele>41.9547</ele>
        <time>2014-07-01T10:07:41Z</time>
      </trkpt>
      <trkpt lat="59.9543276" lon="17.7148306">
        <ele>41.474</ele>
        <time>2014-07-01T10:07:42Z</time>
      </trkpt>
      <trkpt lat="59.9543045" lon="17.7148358">
        <ele>41.474</ele>
        <time>2014-07-01T10:07:43Z</time>
      </trkpt>
      <trkpt lat="59.9542778" lon="17.7148483">
        <ele>40.9934</ele>
        <time>2014-07-01T10:07:44Z</time>
      </trkpt>
      <trkpt lat="59.9542436" lon="17.714856">
        <ele>40.9934</ele>
        <time>2014-07-01T10:07:45Z</time>
      </trkpt>
      <trkpt lat="59.9542115" lon="17.7148675">
        <ele>40.9934</ele>
        <time>2014-07-01T10:07:46Z</time>
      </trkpt>
      <trkpt lat="59.9541803" lon="17.7148854">
        <ele>41.474</ele>
        <time>2014-07-01T10:07:47Z</time>
      </trkpt>
      <trkpt lat="59.9541467" lon="17.714898">
        <ele>40.9934</ele>
        <time>2014-07-01T10:07:48Z</time>
      </trkpt>
      <trkpt lat="59.9541172" lon="17.7149089">
        <ele>40.5128</ele>
        <time>2014-07-01T10:07:49Z</time>
      </trkpt>
      <trkpt lat="59.9540924" lon="17.7149141">
        <ele>40.9934</ele>
        <time>2014-07-01T10:07:50Z</time>
      </trkpt>
      <trkpt lat="59.9540654" lon="17.7149177">
        <ele>40.9934</ele>
        <time>2014-07-01T10:07:51Z</time>
      </trkpt>
      <trkpt lat="59.9540374" lon="17.7149274">
        <ele>41.474</ele>
        <time>2014-07-01T10:07:52Z</time>
      </trkpt>
      <trkpt lat="59.9540092" lon="17.7149399">
        <ele>43.3966</ele>
        <time>2014-07-01T10:07:53Z</time>
      </trkpt>
      <trkpt lat="59.9539779" lon="17.7149558">
        <ele>45.7999</ele>
        <time>2014-07-01T10:07:54Z</time>
      </trkpt>
      <trkpt lat="59.9539462" lon="17.7149658">
        <ele>45.7999</ele>
        <time>2014-07-01T10:07:55Z</time>
      </trkpt>
      <trkpt lat="59.9539162" lon="17.7149641">
        <ele>45.7999</ele>
        <time>2014-07-01T10:07:56Z</time>
      </trkpt>
      <trkpt lat="59.9538863" lon="17.714951">
        <ele>45.7999</ele>
        <time>2014-07-01T10:07:57Z</time>
      </trkpt>
      <trkpt lat="59.9538603" lon="17.7149556">
        <ele>46.2806</ele>
        <time>2014-07-01T10:07:58Z</time>
      </trkpt>
      <trkpt lat="59.9538343" lon="17.7149559">
        <ele>45.7999</ele>
        <time>2014-07-01T10:07:59Z</time>
      </trkpt>
      <trkpt lat="59.9538127" lon="17.7149524">
        <ele>46.2806</ele>
        <time>2014-07-01T10:08:00Z</time>
      </trkpt>
      <trkpt lat="59.9537914" lon="17.7149556">
        <ele>47.2418</ele>
        <time>2014-07-01T10:08:01Z</time>
      </trkpt>
      <trkpt lat="59.953721" lon="17.7149719">
        <ele>72.2362</ele>
        <time>2014-07-01T10:09:47Z</time>
      </trkpt>
      <trkpt lat="59.9537214" lon="17.7149699">
        <ele>71.7555</ele>
        <time>2014-07-01T10:09:48Z</time>
      </trkpt>
      <trkpt lat="59.9537152" lon="17.7149786">
        <ele>71.2749</ele>
        <time>2014-07-01T10:09:49Z</time>
      </trkpt>
      <trkpt lat="59.9537064" lon="17.7149957">
        <ele>71.2749</ele>
        <time>2014-07-01T10:09:50Z</time>
      </trkpt>
      <trkpt lat="59.9536871" lon="17.7150082">
        <ele>69.8329</ele>
        <time>2014-07-01T10:09:51Z</time>
      </trkpt>
      <trkpt lat="59.9536634" lon="17.7150228">
        <ele>68.3909</ele>
        <time>2014-07-01T10:09:52Z</time>
      </trkpt>
      <trkpt lat="59.9536303" lon="17.7150477">
        <ele>66.4683</ele>
        <time>2014-07-01T10:09:53Z</time>
      </trkpt>
      <trkpt lat="59.9535925" lon="17.7150877">
        <ele>65.5071</ele>
        <time>2014-07-01T10:09:54Z</time>
      </trkpt>
      <trkpt lat="59.9535515" lon="17.7151264">
        <ele>64.5457</ele>
        <time>2014-07-01T10:09:55Z</time>
      </trkpt>
      <trkpt lat="59.9535194" lon="17.7151698">
        <ele>63.5844</ele>
        <time>2014-07-01T10:09:56Z</time>
      </trkpt>
      <trkpt lat="59.9534935" lon="17.7151989">
        <ele>62.6229</ele>
        <time>2014-07-01T10:09:57Z</time>
      </trkpt>
      <trkpt lat="59.9534728" lon="17.7152275">
        <ele>61.181</ele>
        <time>2014-07-01T10:09:58Z</time>
      </trkpt>
      <trkpt lat="59.9534536" lon="17.7152462">
        <ele>60.2197</ele>
        <time>2014-07-01T10:09:59Z</time>
      </trkpt>
      <trkpt lat="59.9534306" lon="17.7152801">
        <ele>58.7777</ele>
        <time>2014-07-01T10:10:00Z</time>
      </trkpt>
      <trkpt lat="59.953405" lon="17.7153212">
        <ele>57.3358</ele>
        <time>2014-07-01T10:10:01Z</time>
      </trkpt>
      <trkpt lat="59.9533812" lon="17.7153604">
        <ele>55.4131</ele>
        <time>2014-07-01T10:10:02Z</time>
      </trkpt>
      <trkpt lat="59.9533615" lon="17.7153985">
        <ele>54.4518</ele>
        <time>2014-07-01T10:10:03Z</time>
      </trkpt>
      <trkpt lat="59.9533351" lon="17.7154315">
        <ele>53.4905</ele>
        <time>2014-07-01T10:10:04Z</time>
      </trkpt>
      <trkpt lat="59.9533066" lon="17.7154699">
        <ele>52.0486</ele>
        <time>2014-07-01T10:10:05Z</time>
      </trkpt>
      <trkpt lat="59.9532714" lon="17.7155181">
        <ele>52.5292</ele>
        <time>2014-07-01T10:10:06Z</time>
      </trkpt>
      <trkpt lat="59.9532436" lon="17.7155543">
        <ele>52.0486</ele>
        <time>2014-07-01T10:10:07Z</time>
      </trkpt>
      <trkpt lat="59.9532221" lon="17.7155968">
        <ele>52.0486</ele>
        <time>2014-07-01T10:10:08Z</time>
      </trkpt>
      <trkpt lat="59.9531986" lon="17.7156422">
        <ele>52.5292</ele>
        <time>2014-07-01T10:10:09Z</time>
      </trkpt>
      <trkpt lat="59.9531749" lon="17.7156676">
        <ele>51.5679</ele>
        <time>2014-07-01T10:10:10Z</time>
      </trkpt>
      <trkpt lat="59.953152" lon="17.7156897">
        <ele>50.6066</ele>
        <time>2014-07-01T10:10:11Z</time>
      </trkpt>
      <trkpt lat="59.9531348" lon="17.7157233">
        <ele>49.1646</ele>
        <time>2014-07-01T10:10:12Z</time>
      </trkpt>
      <trkpt lat="59.953117" lon="17.7157658">
        <ele>48.684</ele>
        <time>2014-07-01T10:10:13Z</time>
      </trkpt>
      <trkpt lat="59.9530997" lon="17.7158152">
        <ele>48.684</ele>
        <time>2014-07-01T10:10:14Z</time>
      </trkpt>
      <trkpt lat="59.9530847" lon="17.7158595">
        <ele>48.2034</ele>
        <time>2014-07-01T10:10:15Z</time>
      </trkpt>
      <trkpt lat="59.9530677" lon="17.7159023">
        <ele>47.7225</ele>
        <time>2014-07-01T10:10:16Z</time>
      </trkpt>
      <trkpt lat="59.9530568" lon="17.715967">
        <ele>48.2034</ele>
        <time>2014-07-01T10:10:17Z</time>
      </trkpt>
      <trkpt lat="59.9530449" lon="17.7160307">
        <ele>49.1646</ele>
        <time>2014-07-01T10:10:18Z</time>
      </trkpt>
      <trkpt lat="59.9530336" lon="17.7160841">
        <ele>49.6453</ele>
        <time>2014-07-01T10:10:19Z</time>
      </trkpt>
      <trkpt lat="59.9530194" lon="17.716145">
        <ele>49.1646</ele>
        <time>2014-07-01T10:10:20Z</time>
      </trkpt>
      <trkpt lat="59.953005" lon="17.7162029">
        <ele>48.684</ele>
        <time>2014-07-01T10:10:21Z</time>
      </trkpt>
      <trkpt lat="59.9529941" lon="17.716261">
        <ele>48.2034</ele>
        <time>2014-07-01T10:10:22Z</time>
      </trkpt>
      <trkpt lat="59.9529827" lon="17.716321">
        <ele>48.684</ele>
        <time>2014-07-01T10:10:23Z</time>
      </trkpt>
      <trkpt lat="59.9529734" lon="17.7163832">
        <ele>49.1646</ele>
        <time>2014-07-01T10:10:24Z</time>
      </trkpt>
      <trkpt lat="59.9529716" lon="17.7164387">
        <ele>49.6453</ele>
        <time>2014-07-01T10:10:25Z</time>
      </trkpt>
      <trkpt lat="59.9529689" lon="17.716494">
        <ele>49.6453</ele>
        <time>2014-07-01T10:10:26Z</time>
      </trkpt>
      <trkpt lat="59.9529658" lon="17.7165422">
        <ele>50.126</ele>
        <time>2014-07-01T10:10:27Z</time>
      </trkpt>
      <trkpt lat="59.9529642" lon="17.7165872">
        <ele>50.6066</ele>
        <time>2014-07-01T10:10:28Z</time>
      </trkpt>
      <trkpt lat="59.9529634" lon="17.7166349">
        <ele>50.6066</ele>
        <time>2014-07-01T10:10:29Z</time>
      </trkpt>
      <trkpt lat="59.9529598" lon="17.7166841">
        <ele>50.6066</ele>
        <time>2014-07-01T10:10:30Z</time>
      </trkpt>
      <trkpt lat="59.9529553" lon="17.7167385">
        <ele>50.6066</ele>
        <time>2014-07-01T10:10:31Z</time>
      </trkpt>
      <trkpt lat="59.9529516" lon="17.7167965">
        <ele>50.6066</ele>
        <time>2014-07-01T10:10:32Z</time>
      </trkpt>
      <trkpt lat="59.952944" lon="17.71685">
        <ele>50.6066</ele>
        <time>2014-07-01T10:10:33Z</time>
      </trkpt>
      <trkpt lat="59.9529336" lon="17.7168955">
        <ele>51.0872</ele>
        <time>2014-07-01T10:10:34Z</time>
      </trkpt>
      <trkpt lat="59.9529267" lon="17.7169305">
        <ele>50.6066</ele>
        <time>2014-07-01T10:10:35Z</time>
      </trkpt>
      <trkpt lat="59.9529195" lon="17.7169685">
        <ele>50.6066</ele>
        <time>2014-07-01T10:10:36Z</time>
      </trkpt>
      <trkpt lat="59.9529088" lon="17.717023">
        <ele>51.0872</ele>
        <time>2014-07-01T10:10:37Z</time>
      </trkpt>
      <trkpt lat="59.9528989" lon="17.7170779">
        <ele>51.5679</ele>
        <time>2014-07-01T10:10:38Z</time>
      </trkpt>
      <trkpt lat="59.9528895" lon="17.717132">
        <ele>52.0486</ele>
        <time>2014-07-01T10:10:39Z</time>
      </trkpt>
      <trkpt lat="59.9528836" lon="17.7171928">
        <ele>52.0486</ele>
        <time>2014-07-01T10:10:40Z</time>
      </trkpt>
      <trkpt lat="59.9528749" lon="17.7172586">
        <ele>52.0486</ele>
        <time>2014-07-01T10:10:41Z</time>
      </trkpt>
      <trkpt lat="59.9528606" lon="17.7173188">
        <ele>52.5292</ele>
        <time>2014-07-01T10:10:42Z</time>
      </trkpt>
      <trkpt lat="59.9528486" lon="17.7173818">
        <ele>53.0098</ele>
        <time>2014-07-01T10:10:43Z</time>
      </trkpt>
      <trkpt lat="59.9528336" lon="17.7174348">
        <ele>52.5292</ele>
        <time>2014-07-01T10:10:44Z</time>
      </trkpt>
      <trkpt lat="59.9528178" lon="17.7174892">
        <ele>52.5292</ele>
        <time>2014-07-01T10:10:45Z</time>
      </trkpt>
      <trkpt lat="59.9527962" lon="17.7175563">
        <ele>53.9712</ele>
        <time>2014-07-01T10:10:46Z</time>
      </trkpt>
      <trkpt lat="59.9527751" lon="17.7176125">
        <ele>54.4518</ele>
        <time>2014-07-01T10:10:47Z</time>
      </trkpt>
      <trkpt lat="59.9527537" lon="17.7176562">
        <ele>54.4518</ele>
        <time>2014-07-01T10:10:48Z</time>
      </trkpt>
      <trkpt lat="59.9527331" lon="17.7176926">
        <ele>54.4518</ele>
        <time>2014-07-01T10:10:49Z</time>
      </trkpt>
      <trkpt lat="59.9527165" lon="17.717721">
        <ele>54.4518</ele>
        <time>2014-07-01T10:10:50Z</time>
      </trkpt>
      <trkpt lat="59.9527009" lon="17.717748">
        <ele>54.4518</ele>
        <time>2014-07-01T10:10:51Z</time>
      </trkpt>
      <trkpt lat="59.9526878" lon="17.7177826">
        <ele>54.4518</ele>
        <time>2014-07-01T10:10:52Z</time>
      </trkpt>
      <trkpt lat="59.952674" lon="17.7178125">
        <ele>54.4518</ele>
        <time>2014-07-01T10:10:53Z</time>
      </trkpt>
      <trkpt lat="59.95266" lon="17.7178542">
        <ele>54.9324</ele>
        <time>2014-07-01T10:10:54Z</time>
      </trkpt>
      <trkpt lat="59.9526487" lon="17.7178958">
        <ele>55.8938</ele>
        <time>2014-07-01T10:10:55Z</time>
      </trkpt>
      <trkpt lat="59.9526377" lon="17.7179372">
        <ele>56.3745</ele>
        <time>2014-07-01T10:10:56Z</time>
      </trkpt>
      <trkpt lat="59.9526252" lon="17.7179808">
        <ele>55.8938</ele>
        <time>2014-07-01T10:10:57Z</time>
      </trkpt>
      <trkpt lat="59.9526155" lon="17.718031">
        <ele>56.3745</ele>
        <time>2014-07-01T10:10:58Z</time>
      </trkpt>
      <trkpt lat="59.9526103" lon="17.7180744">
        <ele>56.8551</ele>
        <time>2014-07-01T10:10:59Z</time>
      </trkpt>
      <trkpt lat="59.9526045" lon="17.7181138">
        <ele>56.8551</ele>
        <time>2014-07-01T10:11:00Z</time>
      </trkpt>
      <trkpt lat="59.9525952" lon="17.7181558">
        <ele>56.8551</ele>
        <time>2014-07-01T10:11:01Z</time>
      </trkpt>
      <trkpt lat="59.9525817" lon="17.7182036">
        <ele>56.8551</ele>
        <time>2014-07-01T10:11:02Z</time>
      </trkpt>
      <trkpt lat="59.9525715" lon="17.718248">
        <ele>56.8551</ele>
        <time>2014-07-01T10:11:03Z</time>
      </trkpt>
      <trkpt lat="59.952564" lon="17.7182968">
        <ele>56.3745</ele>
        <time>2014-07-01T10:11:04Z</time>
      </trkpt>
      <trkpt lat="59.9525537" lon="17.7183517">
        <ele>54.9324</ele>
        <time>2014-07-01T10:11:05Z</time>
      </trkpt>
      <trkpt lat="59.9525436" lon="17.7184092">
        <ele>54.4518</ele>
        <time>2014-07-01T10:11:06Z</time>
      </trkpt>
      <trkpt lat="59.9525327" lon="17.718471">
        <ele>54.4518</ele>
        <time>2014-07-01T10:11:07Z</time>
      </trkpt>
      <trkpt lat="59.9525211" lon="17.7185262">
        <ele>54.9324</ele>
        <time>2014-07-01T10:11:08Z</time>
      </trkpt>
      <trkpt lat="59.9525102" lon="17.7185736">
        <ele>54.4518</ele>
        <time>2014-07-01T10:11:09Z</time>
      </trkpt>
      <trkpt lat="59.9524963" lon="17.7186323">
        <ele>54.9324</ele>
        <time>2014-07-01T10:11:10Z</time>
      </trkpt>
      <trkpt lat="59.9524813" lon="17.7186904">
        <ele>54.9324</ele>
        <time>2014-07-01T10:11:11Z</time>
      </trkpt>
      <trkpt lat="59.9524689" lon="17.718738">
        <ele>55.4131</ele>
        <time>2014-07-01T10:11:12Z</time>
      </trkpt>
      <trkpt lat="59.9524568" lon="17.7187892">
        <ele>54.9324</ele>
        <time>2014-07-01T10:11:13Z</time>
      </trkpt>
      <trkpt lat="59.9524496" lon="17.7188369">
        <ele>54.4518</ele>
        <time>2014-07-01T10:11:14Z</time>
      </trkpt>
      <trkpt lat="59.9524384" lon="17.7188825">
        <ele>54.9324</ele>
        <time>2014-07-01T10:11:15Z</time>
      </trkpt>
      <trkpt lat="59.95243" lon="17.7189196">
        <ele>53.9712</ele>
        <time>2014-07-01T10:11:16Z</time>
      </trkpt>
      <trkpt lat="59.9524237" lon="17.7189472">
        <ele>53.0098</ele>
        <time>2014-07-01T10:11:17Z</time>
      </trkpt>
      <trkpt lat="59.9524184" lon="17.7189916">
        <ele>53.9712</ele>
        <time>2014-07-01T10:11:18Z</time>
      </trkpt>
      <trkpt lat="59.9524107" lon="17.719052">
        <ele>54.9324</ele>
        <time>2014-07-01T10:11:19Z</time>
      </trkpt>
      <trkpt lat="59.9524041" lon="17.7191085">
        <ele>53.9712</ele>
        <time>2014-07-01T10:11:20Z</time>
      </trkpt>
      <trkpt lat="59.9523951" lon="17.7191704">
        <ele>53.9712</ele>
        <time>2014-07-01T10:11:21Z</time>
      </trkpt>
      <trkpt lat="59.9523839" lon="17.7192277">
        <ele>53.4905</ele>
        <time>2014-07-01T10:11:22Z</time>
      </trkpt>
      <trkpt lat="59.9523761" lon="17.7192841">
        <ele>52.5292</ele>
        <time>2014-07-01T10:11:23Z</time>
      </trkpt>
      <trkpt lat="59.9523661" lon="17.7193538">
        <ele>53.4905</ele>
        <time>2014-07-01T10:11:24Z</time>
      </trkpt>
      <trkpt lat="59.9523584" lon="17.7194232">
        <ele>54.4518</ele>
        <time>2014-07-01T10:11:25Z</time>
      </trkpt>
      <trkpt lat="59.9523545" lon="17.7194844">
        <ele>55.4131</ele>
        <time>2014-07-01T10:11:26Z</time>
      </trkpt>
      <trkpt lat="59.9523622" lon="17.719542">
        <ele>56.3745</ele>
        <time>2014-07-01T10:11:27Z</time>
      </trkpt>
      <trkpt lat="59.9523787" lon="17.7195912">
        <ele>56.8551</ele>
        <time>2014-07-01T10:11:28Z</time>
      </trkpt>
      <trkpt lat="59.9523953" lon="17.71964">
        <ele>57.3358</ele>
        <time>2014-07-01T10:11:29Z</time>
      </trkpt>
      <trkpt lat="59.9524122" lon="17.7196926">
        <ele>57.8165</ele>
        <time>2014-07-01T10:11:30Z</time>
      </trkpt>
      <trkpt lat="59.9524316" lon="17.7197435">
        <ele>57.8165</ele>
        <time>2014-07-01T10:11:31Z</time>
      </trkpt>
      <trkpt lat="59.9524502" lon="17.7197935">
        <ele>57.8165</ele>
        <time>2014-07-01T10:11:32Z</time>
      </trkpt>
      <trkpt lat="59.9524652" lon="17.7198429">
        <ele>57.3358</ele>
        <time>2014-07-01T10:11:33Z</time>
      </trkpt>
      <trkpt lat="59.9524731" lon="17.7198875">
        <ele>57.3358</ele>
        <time>2014-07-01T10:11:34Z</time>
      </trkpt>
      <trkpt lat="59.9524802" lon="17.7199344">
        <ele>58.2971</ele>
        <time>2014-07-01T10:11:35Z</time>
      </trkpt>
      <trkpt lat="59.952487" lon="17.7199719">
        <ele>58.2971</ele>
        <time>2014-07-01T10:11:36Z</time>
      </trkpt>
      <trkpt lat="59.9524928" lon="17.7200176">
        <ele>58.7777</ele>
        <time>2014-07-01T10:11:37Z</time>
      </trkpt>
      <trkpt lat="59.9524997" lon="17.7200605">
        <ele>57.8165</ele>
        <time>2014-07-01T10:11:38Z</time>
      </trkpt>
      <trkpt lat="59.9525089" lon="17.7200968">
        <ele>57.3358</ele>
        <time>2014-07-01T10:11:39Z</time>
      </trkpt>
      <trkpt lat="59.9525078" lon="17.7201465">
        <ele>57.8165</ele>
        <time>2014-07-01T10:11:40Z</time>
      </trkpt>
      <trkpt lat="59.952504" lon="17.7202019">
        <ele>57.8165</ele>
        <time>2014-07-01T10:11:41Z</time>
      </trkpt>
      <trkpt lat="59.9525047" lon="17.7202542">
        <ele>56.3745</ele>
        <time>2014-07-01T10:11:42Z</time>
      </trkpt>
      <trkpt lat="59.9525046" lon="17.7202982">
        <ele>55.4131</ele>
        <time>2014-07-01T10:11:43Z</time>
      </trkpt>
      <trkpt lat="59.9525032" lon="17.7203432">
        <ele>53.9712</ele>
        <time>2014-07-01T10:11:44Z</time>
      </trkpt>
      <trkpt lat="59.9525036" lon="17.7203873">
        <ele>53.4905</ele>
        <time>2014-07-01T10:11:45Z</time>
      </trkpt>
      <trkpt lat="59.9525044" lon="17.7204335">
        <ele>52.5292</ele>
        <time>2014-07-01T10:11:46Z</time>
      </trkpt>
      <trkpt lat="59.952505" lon="17.7204795">
        <ele>51.5679</ele>
        <time>2014-07-01T10:11:47Z</time>
      </trkpt>
      <trkpt lat="59.9525071" lon="17.7205194">
        <ele>50.6066</ele>
        <time>2014-07-01T10:11:48Z</time>
      </trkpt>
      <trkpt lat="59.9525111" lon="17.720563">
        <ele>50.6066</ele>
        <time>2014-07-01T10:11:49Z</time>
      </trkpt>
      <trkpt lat="59.9525142" lon="17.7206069">
        <ele>49.6453</ele>
        <time>2014-07-01T10:11:50Z</time>
      </trkpt>
      <trkpt lat="59.95252" lon="17.7206558">
        <ele>49.1646</ele>
        <time>2014-07-01T10:11:51Z</time>
      </trkpt>
      <trkpt lat="59.9525265" lon="17.7206993">
        <ele>48.684</ele>
        <time>2014-07-01T10:11:52Z</time>
      </trkpt>
      <trkpt lat="59.9525299" lon="17.7207454">
        <ele>48.2034</ele>
        <time>2014-07-01T10:11:53Z</time>
      </trkpt>
      <trkpt lat="59.9525284" lon="17.720804">
        <ele>49.1646</ele>
        <time>2014-07-01T10:11:54Z</time>
      </trkpt>
      <trkpt lat="59.9525273" lon="17.7208427">
        <ele>48.684</ele>
        <time>2014-07-01T10:11:55Z</time>
      </trkpt>
      <trkpt lat="59.9525249" lon="17.7208836">
        <ele>47.7225</ele>
        <time>2014-07-01T10:11:56Z</time>
      </trkpt>
      <trkpt lat="59.9525269" lon="17.7209339">
        <ele>47.7225</ele>
        <time>2014-07-01T10:11:57Z</time>
      </trkpt>
      <trkpt lat="59.9525313" lon="17.7209819">
        <ele>47.2418</ele>
        <time>2014-07-01T10:11:58Z</time>
      </trkpt>
      <trkpt lat="59.9525303" lon="17.7210386">
        <ele>47.2418</ele>
        <time>2014-07-01T10:11:59Z</time>
      </trkpt>
      <trkpt lat="59.9525279" lon="17.7211089">
        <ele>48.684</ele>
        <time>2014-07-01T10:12:00Z</time>
      </trkpt>
      <trkpt lat="59.9525265" lon="17.7211685">
        <ele>49.1646</ele>
        <time>2014-07-01T10:12:01Z</time>
      </trkpt>
      <trkpt lat="59.9525238" lon="17.7212298">
        <ele>50.126</ele>
        <time>2014-07-01T10:12:02Z</time>
      </trkpt>
      <trkpt lat="59.9525222" lon="17.7212871">
        <ele>50.6066</ele>
        <time>2014-07-01T10:12:03Z</time>
      </trkpt>
      <trkpt lat="59.9525172" lon="17.7213597">
        <ele>52.0486</ele>
        <time>2014-07-01T10:12:04Z</time>
      </trkpt>
      <trkpt lat="59.9525156" lon="17.7214273">
        <ele>52.5292</ele>
        <time>2014-07-01T10:12:05Z</time>
      </trkpt>
      <trkpt lat="59.9525211" lon="17.7214867">
        <ele>52.5292</ele>
        <time>2014-07-01T10:12:06Z</time>
      </trkpt>
      <trkpt lat="59.9525304" lon="17.7215467">
        <ele>52.5292</ele>
        <time>2014-07-01T10:12:07Z</time>
      </trkpt>
      <trkpt lat="59.9525382" lon="17.7216061">
        <ele>53.4905</ele>
        <time>2014-07-01T10:12:08Z</time>
      </trkpt>
      <trkpt lat="59.9525482" lon="17.7216644">
        <ele>54.4518</ele>
        <time>2014-07-01T10:12:09Z</time>
      </trkpt>
      <trkpt lat="59.9525583" lon="17.7217253">
        <ele>55.4131</ele>
        <time>2014-07-01T10:12:10Z</time>
      </trkpt>
      <trkpt lat="59.9525689" lon="17.7217773">
        <ele>55.8938</ele>
        <time>2014-07-01T10:12:11Z</time>
      </trkpt>
      <trkpt lat="59.9525822" lon="17.7218325">
        <ele>55.8938</ele>
        <time>2014-07-01T10:12:12Z</time>
      </trkpt>
      <trkpt lat="59.9525921" lon="17.721892">
        <ele>56.3745</ele>
        <time>2014-07-01T10:12:13Z</time>
      </trkpt>
      <trkpt lat="59.9525976" lon="17.7219481">
        <ele>56.8551</ele>
        <time>2014-07-01T10:12:14Z</time>
      </trkpt>
      <trkpt lat="59.9525919" lon="17.7219999">
        <ele>56.8551</ele>
        <time>2014-07-01T10:12:15Z</time>
      </trkpt>
      <trkpt lat="59.9525855" lon="17.7220507">
        <ele>55.8938</ele>
        <time>2014-07-01T10:12:16Z</time>
      </trkpt>
      <trkpt lat="59.9525775" lon="17.7220982">
        <ele>54.9324</ele>
        <time>2014-07-01T10:12:17Z</time>
      </trkpt>
      <trkpt lat="59.9525671" lon="17.722141">
        <ele>53.4905</ele>
        <time>2014-07-01T10:12:18Z</time>
      </trkpt>
      <trkpt lat="59.9525572" lon="17.7221876">
        <ele>52.5292</ele>
        <time>2014-07-01T10:12:19Z</time>
      </trkpt>
      <trkpt lat="59.9525436" lon="17.7222336">
        <ele>51.5679</ele>
        <time>2014-07-01T10:12:20Z</time>
      </trkpt>
      <trkpt lat="59.9525319" lon="17.722275">
        <ele>51.0872</ele>
        <time>2014-07-01T10:12:21Z</time>
      </trkpt>
      <trkpt lat="59.9525218" lon="17.7223209">
        <ele>49.1646</ele>
        <time>2014-07-01T10:12:22Z</time>
      </trkpt>
      <trkpt lat="59.9525108" lon="17.7223694">
        <ele>48.2034</ele>
        <time>2014-07-01T10:12:23Z</time>
      </trkpt>
      <trkpt lat="59.9524958" lon="17.7224398">
        <ele>49.1646</ele>
        <time>2014-07-01T10:12:24Z</time>
      </trkpt>
      <trkpt lat="59.952489" lon="17.722504">
        <ele>48.684</ele>
        <time>2014-07-01T10:12:25Z</time>
      </trkpt>
      <trkpt lat="59.9524829" lon="17.7225832">
        <ele>49.1646</ele>
        <time>2014-07-01T10:12:26Z</time>
      </trkpt>
      <trkpt lat="59.9524812" lon="17.7226488">
        <ele>50.126</ele>
        <time>2014-07-01T10:12:27Z</time>
      </trkpt>
      <trkpt lat="59.9524829" lon="17.7226959">
        <ele>49.6453</ele>
        <time>2014-07-01T10:12:28Z</time>
      </trkpt>
      <trkpt lat="59.9524757" lon="17.7227636">
        <ele>51.0872</ele>
        <time>2014-07-01T10:12:29Z</time>
      </trkpt>
      <trkpt lat="59.9524714" lon="17.7228225">
        <ele>51.5679</ele>
        <time>2014-07-01T10:12:30Z</time>
      </trkpt>
      <trkpt lat="59.9524741" lon="17.7228836">
        <ele>51.5679</ele>
        <time>2014-07-01T10:12:31Z</time>
      </trkpt>
      <trkpt lat="59.9524808" lon="17.7229428">
        <ele>52.0486</ele>
        <time>2014-07-01T10:12:32Z</time>
      </trkpt>
      <trkpt lat="59.9524845" lon="17.7230002">
        <ele>52.5292</ele>
        <time>2014-07-01T10:12:33Z</time>
      </trkpt>
      <trkpt lat="59.952493" lon="17.7230576">
        <ele>53.0098</ele>
        <time>2014-07-01T10:12:34Z</time>
      </trkpt>
      <trkpt lat="59.9525052" lon="17.7231157">
        <ele>53.4905</ele>
        <time>2014-07-01T10:12:35Z</time>
      </trkpt>
      <trkpt lat="59.952515" lon="17.7231645">
        <ele>53.4905</ele>
        <time>2014-07-01T10:12:36Z</time>
      </trkpt>
      <trkpt lat="59.9525206" lon="17.7232225">
        <ele>54.4518</ele>
        <time>2014-07-01T10:12:37Z</time>
      </trkpt>
      <trkpt lat="59.9525308" lon="17.7232695">
        <ele>54.4518</ele>
        <time>2014-07-01T10:12:38Z</time>
      </trkpt>
      <trkpt lat="59.9525433" lon="17.7233145">
        <ele>54.4518</ele>
        <time>2014-07-01T10:12:39Z</time>
      </trkpt>
      <trkpt lat="59.9525534" lon="17.7233623">
        <ele>53.9712</ele>
        <time>2014-07-01T10:12:40Z</time>
      </trkpt>
      <trkpt lat="59.9525658" lon="17.7234095">
        <ele>53.9712</ele>
        <time>2014-07-01T10:12:41Z</time>
      </trkpt>
      <trkpt lat="59.9525791" lon="17.7234576">
        <ele>54.4518</ele>
        <time>2014-07-01T10:12:42Z</time>
      </trkpt>
      <trkpt lat="59.9525896" lon="17.7235037">
        <ele>53.9712</ele>
        <time>2014-07-01T10:12:43Z</time>
      </trkpt>
      <trkpt lat="59.9526033" lon="17.7235463">
        <ele>53.9712</ele>
        <time>2014-07-01T10:12:44Z</time>
      </trkpt>
      <trkpt lat="59.9526194" lon="17.723584">
        <ele>54.4518</ele>
        <time>2014-07-01T10:12:45Z</time>
      </trkpt>
      <trkpt lat="59.9526378" lon="17.7236196">
        <ele>54.4518</ele>
        <time>2014-07-01T10:12:46Z</time>
      </trkpt>
      <trkpt lat="59.9526569" lon="17.7236565">
        <ele>54.4518</ele>
        <time>2014-07-01T10:12:47Z</time>
      </trkpt>
      <trkpt lat="59.952673" lon="17.723695">
        <ele>54.4518</ele>
        <time>2014-07-01T10:12:48Z</time>
      </trkpt>
      <trkpt lat="59.9526849" lon="17.7237388">
        <ele>53.9712</ele>
        <time>2014-07-01T10:12:49Z</time>
      </trkpt>
      <trkpt lat="59.952694" lon="17.7237814">
        <ele>53.9712</ele>
        <time>2014-07-01T10:12:50Z</time>
      </trkpt>
      <trkpt lat="59.9527014" lon="17.723827">
        <ele>53.9712</ele>
        <time>2014-07-01T10:12:51Z</time>
      </trkpt>
      <trkpt lat="59.9527009" lon="17.7238784">
        <ele>53.9712</ele>
        <time>2014-07-01T10:12:52Z</time>
      </trkpt>
      <trkpt lat="59.952695" lon="17.7239238">
        <ele>54.4518</ele>
        <time>2014-07-01T10:12:53Z</time>
      </trkpt>
      <trkpt lat="59.9526857" lon="17.7239728">
        <ele>54.4518</ele>
        <time>2014-07-01T10:12:54Z</time>
      </trkpt>
      <trkpt lat="59.9526735" lon="17.7240166">
        <ele>53.9712</ele>
        <time>2014-07-01T10:12:55Z</time>
      </trkpt>
      <trkpt lat="59.9526619" lon="17.7240647">
        <ele>53.9712</ele>
        <time>2014-07-01T10:12:56Z</time>
      </trkpt>
      <trkpt lat="59.952649" lon="17.7241196">
        <ele>53.9712</ele>
        <time>2014-07-01T10:12:57Z</time>
      </trkpt>
      <trkpt lat="59.9526353" lon="17.7241661">
        <ele>53.4905</ele>
        <time>2014-07-01T10:12:58Z</time>
      </trkpt>
      <trkpt lat="59.9526215" lon="17.7242008">
        <ele>53.9712</ele>
        <time>2014-07-01T10:12:59Z</time>
      </trkpt>
      <trkpt lat="59.9526036" lon="17.7242357">
        <ele>53.9712</ele>
        <time>2014-07-01T10:13:00Z</time>
      </trkpt>
      <trkpt lat="59.9525809" lon="17.7242906">
        <ele>54.9324</ele>
        <time>2014-07-01T10:13:01Z</time>
      </trkpt>
      <trkpt lat="59.9525637" lon="17.7243362">
        <ele>54.9324</ele>
        <time>2014-07-01T10:13:02Z</time>
      </trkpt>
      <trkpt lat="59.9525472" lon="17.7243772">
        <ele>55.4131</ele>
        <time>2014-07-01T10:13:03Z</time>
      </trkpt>
      <trkpt lat="59.9525337" lon="17.7244142">
        <ele>55.4131</ele>
        <time>2014-07-01T10:13:04Z</time>
      </trkpt>
      <trkpt lat="59.9525189" lon="17.7244635">
        <ele>55.8938</ele>
        <time>2014-07-01T10:13:05Z</time>
      </trkpt>
      <trkpt lat="59.9525025" lon="17.7245101">
        <ele>55.8938</ele>
        <time>2014-07-01T10:13:06Z</time>
      </trkpt>
      <trkpt lat="59.9524809" lon="17.7245613">
        <ele>55.4131</ele>
        <time>2014-07-01T10:13:07Z</time>
      </trkpt>
      <trkpt lat="59.952458" lon="17.7246122">
        <ele>55.4131</ele>
        <time>2014-07-01T10:13:08Z</time>
      </trkpt>
      <trkpt lat="59.9524378" lon="17.7246437">
        <ele>54.9324</ele>
        <time>2014-07-01T10:13:09Z</time>
      </trkpt>
      <trkpt lat="59.9524164" lon="17.7246676">
        <ele>54.4518</ele>
        <time>2014-07-01T10:13:10Z</time>
      </trkpt>
      <trkpt lat="59.9523978" lon="17.7246916">
        <ele>53.4905</ele>
        <time>2014-07-01T10:13:11Z</time>
      </trkpt>
      <trkpt lat="59.9523808" lon="17.724721">
        <ele>52.0486</ele>
        <time>2014-07-01T10:13:12Z</time>
      </trkpt>
      <trkpt lat="59.9523631" lon="17.7247556">
        <ele>51.0872</ele>
        <time>2014-07-01T10:13:13Z</time>
      </trkpt>
      <trkpt lat="59.9523433" lon="17.7247806">
        <ele>50.126</ele>
        <time>2014-07-01T10:13:14Z</time>
      </trkpt>
      <trkpt lat="59.9523224" lon="17.7248101">
        <ele>49.6453</ele>
        <time>2014-07-01T10:13:15Z</time>
      </trkpt>
      <trkpt lat="59.9523021" lon="17.7248509">
        <ele>48.684</ele>
        <time>2014-07-01T10:13:16Z</time>
      </trkpt>
      <trkpt lat="59.9522811" lon="17.7249123">
        <ele>48.684</ele>
        <time>2014-07-01T10:13:17Z</time>
      </trkpt>
      <trkpt lat="59.9522637" lon="17.7249636">
        <ele>47.7225</ele>
        <time>2014-07-01T10:13:18Z</time>
      </trkpt>
      <trkpt lat="59.9522498" lon="17.7250092">
        <ele>46.7612</ele>
        <time>2014-07-01T10:13:19Z</time>
      </trkpt>
      <trkpt lat="59.9522378" lon="17.7250649">
        <ele>46.7612</ele>
        <time>2014-07-01T10:13:20Z</time>
      </trkpt>
      <trkpt lat="59.9522231" lon="17.7251022">
        <ele>46.2806</ele>
        <time>2014-07-01T10:13:21Z</time>
      </trkpt>
      <trkpt lat="59.9522035" lon="17.725135">
        <ele>45.7999</ele>
        <time>2014-07-01T10:13:22Z</time>
      </trkpt>
      <trkpt lat="59.9521853" lon="17.7251669">
        <ele>45.7999</ele>
        <time>2014-07-01T10:13:23Z</time>
      </trkpt>
      <trkpt lat="59.9521669" lon="17.725201">
        <ele>45.3192</ele>
        <time>2014-07-01T10:13:24Z</time>
      </trkpt>
      <trkpt lat="59.9521478" lon="17.7252525">
        <ele>44.8386</ele>
        <time>2014-07-01T10:13:25Z</time>
      </trkpt>
      <trkpt lat="59.9521281" lon="17.7253049">
        <ele>44.358</ele>
        <time>2014-07-01T10:13:26Z</time>
      </trkpt>
      <trkpt lat="59.9521083" lon="17.7253435">
        <ele>44.358</ele>
        <time>2014-07-01T10:13:27Z</time>
      </trkpt>
      <trkpt lat="59.9520891" lon="17.7253773">
        <ele>44.358</ele>
        <time>2014-07-01T10:13:28Z</time>
      </trkpt>
      <trkpt lat="59.952068" lon="17.7254117">
        <ele>44.358</ele>
        <time>2014-07-01T10:13:29Z</time>
      </trkpt>
      <trkpt lat="59.9520463" lon="17.7254486">
        <ele>43.3966</ele>
        <time>2014-07-01T10:13:30Z</time>
      </trkpt>
      <trkpt lat="59.9520274" lon="17.7254814">
        <ele>43.3966</ele>
        <time>2014-07-01T10:13:31Z</time>
      </trkpt>
      <trkpt lat="59.9520085" lon="17.7255186">
        <ele>42.4354</ele>
        <time>2014-07-01T10:13:32Z</time>
      </trkpt>
      <trkpt lat="59.9519901" lon="17.7255727">
        <ele>41.474</ele>
        <time>2014-07-01T10:13:33Z</time>
      </trkpt>
      <trkpt lat="59.9519748" lon="17.7256281">
        <ele>40.9934</ele>
        <time>2014-07-01T10:13:34Z</time>
      </trkpt>
      <trkpt lat="59.9519582" lon="17.7256676">
        <ele>40.5128</ele>
        <time>2014-07-01T10:13:35Z</time>
      </trkpt>
      <trkpt lat="59.9519362" lon="17.7257032">
        <ele>40.5128</ele>
        <time>2014-07-01T10:13:36Z</time>
      </trkpt>
      <trkpt lat="59.9519152" lon="17.7257435">
        <ele>40.0321</ele>
        <time>2014-07-01T10:13:37Z</time>
      </trkpt>
      <trkpt lat="59.9518949" lon="17.725781">
        <ele>40.0321</ele>
        <time>2014-07-01T10:13:38Z</time>
      </trkpt>
      <trkpt lat="59.9518716" lon="17.7258125">
        <ele>40.0321</ele>
        <time>2014-07-01T10:13:39Z</time>
      </trkpt>
      <trkpt lat="59.9518482" lon="17.725842">
        <ele>40.5128</ele>
        <time>2014-07-01T10:13:40Z</time>
      </trkpt>
      <trkpt lat="59.9518238" lon="17.7258695">
        <ele>40.9934</ele>
        <time>2014-07-01T10:13:41Z</time>
      </trkpt>
      <trkpt lat="59.9517996" lon="17.7258886">
        <ele>40.9934</ele>
        <time>2014-07-01T10:13:42Z</time>
      </trkpt>
      <trkpt lat="59.9517782" lon="17.7259052">
        <ele>40.5128</ele>
        <time>2014-07-01T10:13:43Z</time>
      </trkpt>
      <trkpt lat="59.9517556" lon="17.7259279">
        <ele>40.9934</ele>
        <time>2014-07-01T10:13:44Z</time>
      </trkpt>
      <trkpt lat="59.951736" lon="17.7259533">
        <ele>40.9934</ele>
        <time>2014-07-01T10:13:45Z</time>
      </trkpt>
      <trkpt lat="59.9517181" lon="17.7259789">
        <ele>40.5128</ele>
        <time>2014-07-01T10:13:46Z</time>
      </trkpt>
      <trkpt lat="59.9516963" lon="17.7260062">
        <ele>40.5128</ele>
        <time>2014-07-01T10:13:47Z</time>
      </trkpt>
      <trkpt lat="59.9516753" lon="17.7260363">
        <ele>40.5128</ele>
        <time>2014-07-01T10:13:48Z</time>
      </trkpt>
      <trkpt lat="59.9516536" lon="17.7260757">
        <ele>41.474</ele>
        <time>2014-07-01T10:13:49Z</time>
      </trkpt>
      <trkpt lat="59.9516341" lon="17.7261129">
        <ele>42.4354</ele>
        <time>2014-07-01T10:13:50Z</time>
      </trkpt>
      <trkpt lat="59.9516184" lon="17.7261538">
        <ele>41.9547</ele>
        <time>2014-07-01T10:13:51Z</time>
      </trkpt>
      <trkpt lat="59.9516017" lon="17.7261941">
        <ele>42.4354</ele>
        <time>2014-07-01T10:13:52Z</time>
      </trkpt>
      <trkpt lat="59.9515888" lon="17.7262279">
        <ele>42.4354</ele>
        <time>2014-07-01T10:13:53Z</time>
      </trkpt>
      <trkpt lat="59.9515756" lon="17.726274">
        <ele>42.916</ele>
        <time>2014-07-01T10:13:54Z</time>
      </trkpt>
      <trkpt lat="59.9515598" lon="17.7263203">
        <ele>43.3966</ele>
        <time>2014-07-01T10:13:55Z</time>
      </trkpt>
      <trkpt lat="59.9515449" lon="17.7263691">
        <ele>43.8773</ele>
        <time>2014-07-01T10:13:56Z</time>
      </trkpt>
      <trkpt lat="59.9515274" lon="17.7264311">
        <ele>44.358</ele>
        <time>2014-07-01T10:13:57Z</time>
      </trkpt>
      <trkpt lat="59.9515075" lon="17.7264838">
        <ele>44.8386</ele>
        <time>2014-07-01T10:13:58Z</time>
      </trkpt>
      <trkpt lat="59.9514913" lon="17.7265226">
        <ele>45.3192</ele>
        <time>2014-07-01T10:13:59Z</time>
      </trkpt>
      <trkpt lat="59.9514769" lon="17.7265662">
        <ele>45.7999</ele>
        <time>2014-07-01T10:14:00Z</time>
      </trkpt>
      <trkpt lat="59.9514624" lon="17.7266067">
        <ele>45.7999</ele>
        <time>2014-07-01T10:14:01Z</time>
      </trkpt>
      <trkpt lat="59.9514487" lon="17.7266454">
        <ele>46.2806</ele>
        <time>2014-07-01T10:14:02Z</time>
      </trkpt>
      <trkpt lat="59.9514405" lon="17.7266842">
        <ele>46.2806</ele>
        <time>2014-07-01T10:14:03Z</time>
      </trkpt>
      <trkpt lat="59.9514342" lon="17.7267271">
        <ele>46.2806</ele>
        <time>2014-07-01T10:14:04Z</time>
      </trkpt>
      <trkpt lat="59.9514344" lon="17.7267637">
        <ele>46.7612</ele>
        <time>2014-07-01T10:14:05Z</time>
      </trkpt>
      <trkpt lat="59.9514411" lon="17.7268019">
        <ele>46.2806</ele>
        <time>2014-07-01T10:14:06Z</time>
      </trkpt>
      <trkpt lat="59.951451" lon="17.7268465">
        <ele>46.7612</ele>
        <time>2014-07-01T10:14:07Z</time>
      </trkpt>
      <trkpt lat="59.9514598" lon="17.7268875">
        <ele>46.7612</ele>
        <time>2014-07-01T10:14:08Z</time>
      </trkpt>
      <trkpt lat="59.9514665" lon="17.7269294">
        <ele>47.2418</ele>
        <time>2014-07-01T10:14:09Z</time>
      </trkpt>
      <trkpt lat="59.9514733" lon="17.726976">
        <ele>47.2418</ele>
        <time>2014-07-01T10:14:10Z</time>
      </trkpt>
      <trkpt lat="59.9514815" lon="17.7270229">
        <ele>47.2418</ele>
        <time>2014-07-01T10:14:11Z</time>
      </trkpt>
      <trkpt lat="59.951483" lon="17.7270681">
        <ele>47.2418</ele>
        <time>2014-07-01T10:14:12Z</time>
      </trkpt>
      <trkpt lat="59.9514795" lon="17.7271149">
        <ele>46.7612</ele>
        <time>2014-07-01T10:14:13Z</time>
      </trkpt>
      <trkpt lat="59.9514691" lon="17.7271654">
        <ele>47.2418</ele>
        <time>2014-07-01T10:14:14Z</time>
      </trkpt>
      <trkpt lat="59.9514576" lon="17.7272178">
        <ele>47.2418</ele>
        <time>2014-07-01T10:14:15Z</time>
      </trkpt>
      <trkpt lat="59.951449" lon="17.7272743">
        <ele>46.7612</ele>
        <time>2014-07-01T10:14:16Z</time>
      </trkpt>
      <trkpt lat="59.9514483" lon="17.7273235">
        <ele>47.2418</ele>
        <time>2014-07-01T10:14:17Z</time>
      </trkpt>
      <trkpt lat="59.9514492" lon="17.7273723">
        <ele>47.2418</ele>
        <time>2014-07-01T10:14:18Z</time>
      </trkpt>
      <trkpt lat="59.9514519" lon="17.7274213">
        <ele>47.2418</ele>
        <time>2014-07-01T10:14:19Z</time>
      </trkpt>
      <trkpt lat="59.9514575" lon="17.7274782">
        <ele>47.2418</ele>
        <time>2014-07-01T10:14:20Z</time>
      </trkpt>
      <trkpt lat="59.9514634" lon="17.7275314">
        <ele>47.2418</ele>
        <time>2014-07-01T10:14:21Z</time>
      </trkpt>
      <trkpt lat="59.951468" lon="17.7275818">
        <ele>47.2418</ele>
        <time>2014-07-01T10:14:22Z</time>
      </trkpt>
      <trkpt lat="59.9514799" lon="17.7276266">
        <ele>47.7225</ele>
        <time>2014-07-01T10:14:23Z</time>
      </trkpt>
      <trkpt lat="59.9514941" lon="17.7276647">
        <ele>47.7225</ele>
        <time>2014-07-01T10:14:24Z</time>
      </trkpt>
      <trkpt lat="59.9515057" lon="17.7277054">
        <ele>47.7225</ele>
        <time>2014-07-01T10:14:25Z</time>
      </trkpt>
      <trkpt lat="59.95152" lon="17.7277455">
        <ele>47.7225</ele>
        <time>2014-07-01T10:14:26Z</time>
      </trkpt>
      <trkpt lat="59.9515402" lon="17.7277799">
        <ele>47.2418</ele>
        <time>2014-07-01T10:14:27Z</time>
      </trkpt>
      <trkpt lat="59.9515624" lon="17.7278121">
        <ele>47.7225</ele>
        <time>2014-07-01T10:14:28Z</time>
      </trkpt>
      <trkpt lat="59.9515853" lon="17.7278373">
        <ele>47.2418</ele>
        <time>2014-07-01T10:14:29Z</time>
      </trkpt>
      <trkpt lat="59.9516089" lon="17.7278572">
        <ele>47.7225</ele>
        <time>2014-07-01T10:14:30Z</time>
      </trkpt>
      <trkpt lat="59.9516337" lon="17.7278705">
        <ele>48.2034</ele>
        <time>2014-07-01T10:14:31Z</time>
      </trkpt>
      <trkpt lat="59.9516591" lon="17.7278795">
        <ele>48.684</ele>
        <time>2014-07-01T10:14:32Z</time>
      </trkpt>
      <trkpt lat="59.9516808" lon="17.7278835">
        <ele>48.684</ele>
        <time>2014-07-01T10:14:33Z</time>
      </trkpt>
      <trkpt lat="59.9517025" lon="17.7278833">
        <ele>48.684</ele>
        <time>2014-07-01T10:14:34Z</time>
      </trkpt>
      <trkpt lat="59.9517276" lon="17.727886">
        <ele>49.1646</ele>
        <time>2014-07-01T10:14:35Z</time>
      </trkpt>
      <trkpt lat="59.9517535" lon="17.7278814">
        <ele>49.1646</ele>
        <time>2014-07-01T10:14:36Z</time>
      </trkpt>
      <trkpt lat="59.9517789" lon="17.7278772">
        <ele>49.1646</ele>
        <time>2014-07-01T10:14:37Z</time>
      </trkpt>
      <trkpt lat="59.9518028" lon="17.7278731">
        <ele>49.6453</ele>
        <time>2014-07-01T10:14:38Z</time>
      </trkpt>
      <trkpt lat="59.95183" lon="17.7278592">
        <ele>49.1646</ele>
        <time>2014-07-01T10:14:39Z</time>
      </trkpt>
      <trkpt lat="59.9518566" lon="17.7278344">
        <ele>49.1646</ele>
        <time>2014-07-01T10:14:40Z</time>
      </trkpt>
      <trkpt lat="59.951882" lon="17.7278063">
        <ele>48.684</ele>
        <time>2014-07-01T10:14:41Z</time>
      </trkpt>
      <trkpt lat="59.9519084" lon="17.7277771">
        <ele>47.7225</ele>
        <time>2014-07-01T10:14:42Z</time>
      </trkpt>
      <trkpt lat="59.95194" lon="17.7277451">
        <ele>48.684</ele>
        <time>2014-07-01T10:14:43Z</time>
      </trkpt>
      <trkpt lat="59.9519647" lon="17.7277062">
        <ele>49.6453</ele>
        <time>2014-07-01T10:14:44Z</time>
      </trkpt>
      <trkpt lat="59.9519857" lon="17.7276623">
        <ele>50.126</ele>
        <time>2014-07-01T10:14:45Z</time>
      </trkpt>
      <trkpt lat="59.9520071" lon="17.7276163">
        <ele>50.6066</ele>
        <time>2014-07-01T10:14:46Z</time>
      </trkpt>
      <trkpt lat="59.9520223" lon="17.7275775">
        <ele>50.6066</ele>
        <time>2014-07-01T10:14:47Z</time>
      </trkpt>
      <trkpt lat="59.9520425" lon="17.727537">
        <ele>51.0872</ele>
        <time>2014-07-01T10:14:48Z</time>
      </trkpt>
      <trkpt lat="59.952071" lon="17.727497">
        <ele>51.5679</ele>
        <time>2014-07-01T10:14:49Z</time>
      </trkpt>
      <trkpt lat="59.9520879" lon="17.727456">
        <ele>51.5679</ele>
        <time>2014-07-01T10:14:50Z</time>
      </trkpt>
      <trkpt lat="59.9520912" lon="17.7274068">
        <ele>51.5679</ele>
        <time>2014-07-01T10:14:51Z</time>
      </trkpt>
      <trkpt lat="59.9520924" lon="17.7273468">
        <ele>51.5679</ele>
        <time>2014-07-01T10:14:52Z</time>
      </trkpt>
      <trkpt lat="59.9520968" lon="17.727284">
        <ele>51.5679</ele>
        <time>2014-07-01T10:14:53Z</time>
      </trkpt>
      <trkpt lat="59.952102" lon="17.727228">
        <ele>51.5679</ele>
        <time>2014-07-01T10:14:54Z</time>
      </trkpt>
      <trkpt lat="59.9521068" lon="17.7271676">
        <ele>51.5679</ele>
        <time>2014-07-01T10:14:55Z</time>
      </trkpt>
      <trkpt lat="59.9521076" lon="17.7270971">
        <ele>50.6066</ele>
        <time>2014-07-01T10:14:56Z</time>
      </trkpt>
      <trkpt lat="59.9521063" lon="17.7270277">
        <ele>50.6066</ele>
        <time>2014-07-01T10:14:57Z</time>
      </trkpt>
      <trkpt lat="59.9521014" lon="17.7269578">
        <ele>50.6066</ele>
        <time>2014-07-01T10:14:58Z</time>
      </trkpt>
      <trkpt lat="59.9520994" lon="17.7268874">
        <ele>50.126</ele>
        <time>2014-07-01T10:14:59Z</time>
      </trkpt>
      <trkpt lat="59.9521005" lon="17.7268155">
        <ele>49.6453</ele>
        <time>2014-07-01T10:15:00Z</time>
      </trkpt>
      <trkpt lat="59.9520995" lon="17.7267516">
        <ele>48.684</ele>
        <time>2014-07-01T10:15:01Z</time>
      </trkpt>
      <trkpt lat="59.9521037" lon="17.7266998">
        <ele>48.2034</ele>
        <time>2014-07-01T10:15:02Z</time>
      </trkpt>
      <trkpt lat="59.9521081" lon="17.7266513">
        <ele>47.2418</ele>
        <time>2014-07-01T10:15:03Z</time>
      </trkpt>
      <trkpt lat="59.952118" lon="17.7266048">
        <ele>46.2806</ele>
        <time>2014-07-01T10:15:04Z</time>
      </trkpt>
      <trkpt lat="59.9521265" lon="17.7265681">
        <ele>45.3192</ele>
        <time>2014-07-01T10:15:05Z</time>
      </trkpt>
      <trkpt lat="59.9521367" lon="17.7265299">
        <ele>44.358</ele>
        <time>2014-07-01T10:15:06Z</time>
      </trkpt>
      <trkpt lat="59.9521601" lon="17.7265019">
        <ele>45.3192</ele>
        <time>2014-07-01T10:15:07Z</time>
      </trkpt>
      <trkpt lat="59.9521773" lon="17.7264662">
        <ele>45.3192</ele>
        <time>2014-07-01T10:15:08Z</time>
      </trkpt>
      <trkpt lat="59.9521931" lon="17.7264289">
        <ele>45.7999</ele>
        <time>2014-07-01T10:15:09Z</time>
      </trkpt>
      <trkpt lat="59.9522068" lon="17.7263921">
        <ele>45.3192</ele>
        <time>2014-07-01T10:15:10Z</time>
      </trkpt>
      <trkpt lat="59.9522262" lon="17.7263643">
        <ele>45.3192</ele>
        <time>2014-07-01T10:15:11Z</time>
      </trkpt>
      <trkpt lat="59.9522464" lon="17.7263368">
        <ele>45.3192</ele>
        <time>2014-07-01T10:15:12Z</time>
      </trkpt>
      <trkpt lat="59.9522673" lon="17.7263103">
        <ele>45.3192</ele>
        <time>2014-07-01T10:15:13Z</time>
      </trkpt>
      <trkpt lat="59.9522827" lon="17.7262828">
        <ele>44.8386</ele>
        <time>2014-07-01T10:15:14Z</time>
      </trkpt>
      <trkpt lat="59.9522974" lon="17.7262492">
        <ele>44.8386</ele>
        <time>2014-07-01T10:15:15Z</time>
      </trkpt>
      <trkpt lat="59.9523118" lon="17.7262119">
        <ele>44.358</ele>
        <time>2014-07-01T10:15:16Z</time>
      </trkpt>
      <trkpt lat="59.9523281" lon="17.7261744">
        <ele>43.8773</ele>
        <time>2014-07-01T10:15:17Z</time>
      </trkpt>
      <trkpt lat="59.9523435" lon="17.7261388">
        <ele>42.916</ele>
        <time>2014-07-01T10:15:18Z</time>
      </trkpt>
      <trkpt lat="59.9523601" lon="17.7261031">
        <ele>42.916</ele>
        <time>2014-07-01T10:15:19Z</time>
      </trkpt>
      <trkpt lat="59.9523756" lon="17.7260642">
        <ele>42.916</ele>
        <time>2014-07-01T10:15:20Z</time>
      </trkpt>
      <trkpt lat="59.9523932" lon="17.7260278">
        <ele>42.4354</ele>
        <time>2014-07-01T10:15:21Z</time>
      </trkpt>
      <trkpt lat="59.9524175" lon="17.7259908">
        <ele>42.4354</ele>
        <time>2014-07-01T10:15:22Z</time>
      </trkpt>
      <trkpt lat="59.952444" lon="17.7259554">
        <ele>41.9547</ele>
        <time>2014-07-01T10:15:23Z</time>
      </trkpt>
      <trkpt lat="59.9524684" lon="17.7259226">
        <ele>41.9547</ele>
        <time>2014-07-01T10:15:24Z</time>
      </trkpt>
      <trkpt lat="59.9524865" lon="17.7258937">
        <ele>41.9547</ele>
        <time>2014-07-01T10:15:25Z</time>
      </trkpt>
      <trkpt lat="59.9525103" lon="17.725861">
        <ele>42.4354</ele>
        <time>2014-07-01T10:15:26Z</time>
      </trkpt>
      <trkpt lat="59.9525339" lon="17.7258342">
        <ele>42.916</ele>
        <time>2014-07-01T10:15:27Z</time>
      </trkpt>
      <trkpt lat="59.9525529" lon="17.7258021">
        <ele>42.916</ele>
        <time>2014-07-01T10:15:28Z</time>
      </trkpt>
      <trkpt lat="59.9525776" lon="17.7257721">
        <ele>41.9547</ele>
        <time>2014-07-01T10:15:29Z</time>
      </trkpt>
      <trkpt lat="59.9526034" lon="17.7257429">
        <ele>41.9547</ele>
        <time>2014-07-01T10:15:30Z</time>
      </trkpt>
      <trkpt lat="59.9526227" lon="17.7257053">
        <ele>41.9547</ele>
        <time>2014-07-01T10:15:31Z</time>
      </trkpt>
      <trkpt lat="59.9526406" lon="17.7256643">
        <ele>40.9934</ele>
        <time>2014-07-01T10:15:32Z</time>
      </trkpt>
      <trkpt lat="59.9526605" lon="17.7256265">
        <ele>40.5128</ele>
        <time>2014-07-01T10:15:33Z</time>
      </trkpt>
      <trkpt lat="59.9526808" lon="17.7255938">
        <ele>39.5513</ele>
        <time>2014-07-01T10:15:34Z</time>
      </trkpt>
      <trkpt lat="59.952704" lon="17.7255587">
        <ele>39.5513</ele>
        <time>2014-07-01T10:15:35Z</time>
      </trkpt>
      <trkpt lat="59.9527196" lon="17.7255215">
        <ele>38.5901</ele>
        <time>2014-07-01T10:15:36Z</time>
      </trkpt>
      <trkpt lat="59.9527403" lon="17.7254847">
        <ele>39.0707</ele>
        <time>2014-07-01T10:15:37Z</time>
      </trkpt>
      <trkpt lat="59.9527647" lon="17.7254492">
        <ele>40.0321</ele>
        <time>2014-07-01T10:15:38Z</time>
      </trkpt>
      <trkpt lat="59.95279" lon="17.7254155">
        <ele>40.9934</ele>
        <time>2014-07-01T10:15:39Z</time>
      </trkpt>
      <trkpt lat="59.9528142" lon="17.7253893">
        <ele>41.474</ele>
        <time>2014-07-01T10:15:40Z</time>
      </trkpt>
      <trkpt lat="59.9528273" lon="17.7253437">
        <ele>40.0321</ele>
        <time>2014-07-01T10:15:41Z</time>
      </trkpt>
      <trkpt lat="59.9528465" lon="17.7253006">
        <ele>39.5513</ele>
        <time>2014-07-01T10:15:42Z</time>
      </trkpt>
      <trkpt lat="59.9528686" lon="17.7252619">
        <ele>39.5513</ele>
        <time>2014-07-01T10:15:43Z</time>
      </trkpt>
      <trkpt lat="59.9528846" lon="17.725223">
        <ele>39.0707</ele>
        <time>2014-07-01T10:15:44Z</time>
      </trkpt>
      <trkpt lat="59.9529023" lon="17.7251817">
        <ele>37.6287</ele>
        <time>2014-07-01T10:15:45Z</time>
      </trkpt>
      <trkpt lat="59.9529188" lon="17.7251425">
        <ele>36.6675</ele>
        <time>2014-07-01T10:15:46Z</time>
      </trkpt>
      <trkpt lat="59.9529399" lon="17.7251154">
        <ele>37.1481</ele>
        <time>2014-07-01T10:15:47Z</time>
      </trkpt>
      <trkpt lat="59.952958" lon="17.7250814">
        <ele>37.6287</ele>
        <time>2014-07-01T10:15:48Z</time>
      </trkpt>
      <trkpt lat="59.952972" lon="17.7250437">
        <ele>37.6287</ele>
        <time>2014-07-01T10:15:49Z</time>
      </trkpt>
      <trkpt lat="59.9529874" lon="17.7250071">
        <ele>38.1094</ele>
        <time>2014-07-01T10:15:50Z</time>
      </trkpt>
      <trkpt lat="59.9530061" lon="17.7249749">
        <ele>37.6287</ele>
        <time>2014-07-01T10:15:51Z</time>
      </trkpt>
      <trkpt lat="59.9530258" lon="17.7249439">
        <ele>37.1481</ele>
        <time>2014-07-01T10:15:52Z</time>
      </trkpt>
      <trkpt lat="59.9530516" lon="17.7249153">
        <ele>38.1094</ele>
        <time>2014-07-01T10:15:53Z</time>
      </trkpt>
      <trkpt lat="59.9530678" lon="17.7248727">
        <ele>38.1094</ele>
        <time>2014-07-01T10:15:54Z</time>
      </trkpt>
      <trkpt lat="59.9530911" lon="17.7248358">
        <ele>38.5901</ele>
        <time>2014-07-01T10:15:55Z</time>
      </trkpt>
      <trkpt lat="59.953119" lon="17.7248017">
        <ele>39.0707</ele>
        <time>2014-07-01T10:15:56Z</time>
      </trkpt>
      <trkpt lat="59.9531384" lon="17.7247656">
        <ele>38.1094</ele>
        <time>2014-07-01T10:15:57Z</time>
      </trkpt>
      <trkpt lat="59.9531555" lon="17.7247267">
        <ele>37.1481</ele>
        <time>2014-07-01T10:15:58Z</time>
      </trkpt>
      <trkpt lat="59.9531717" lon="17.7246939">
        <ele>36.6675</ele>
        <time>2014-07-01T10:15:59Z</time>
      </trkpt>
      <trkpt lat="59.9531841" lon="17.7246639">
        <ele>36.6675</ele>
        <time>2014-07-01T10:16:00Z</time>
      </trkpt>
      <trkpt lat="59.9531947" lon="17.7246398">
        <ele>35.7061</ele>
        <time>2014-07-01T10:16:01Z</time>
      </trkpt>
      <trkpt lat="59.9532058" lon="17.724618">
        <ele>34.7449</ele>
        <time>2014-07-01T10:16:02Z</time>
      </trkpt>
      <trkpt lat="59.9532168" lon="17.7245977">
        <ele>34.7449</ele>
        <time>2014-07-01T10:16:03Z</time>
      </trkpt>
      <trkpt lat="59.9532354" lon="17.724567">
        <ele>35.2255</ele>
        <time>2014-07-01T10:16:04Z</time>
      </trkpt>
      <trkpt lat="59.9532562" lon="17.7245335">
        <ele>34.7449</ele>
        <time>2014-07-01T10:16:05Z</time>
      </trkpt>
      <trkpt lat="59.953291" lon="17.7244921">
        <ele>35.7061</ele>
        <time>2014-07-01T10:16:06Z</time>
      </trkpt>
      <trkpt lat="59.953305" lon="17.7244523">
        <ele>34.7449</ele>
        <time>2014-07-01T10:16:07Z</time>
      </trkpt>
      <trkpt lat="59.9533185" lon="17.7244169">
        <ele>33.7834</ele>
        <time>2014-07-01T10:16:08Z</time>
      </trkpt>
      <trkpt lat="59.9533296" lon="17.7243751">
        <ele>33.3029</ele>
        <time>2014-07-01T10:16:09Z</time>
      </trkpt>
      <trkpt lat="59.9533508" lon="17.7243294">
        <ele>34.7449</ele>
        <time>2014-07-01T10:16:10Z</time>
      </trkpt>
      <trkpt lat="59.9533654" lon="17.7242817">
        <ele>36.1868</ele>
        <time>2014-07-01T10:16:11Z</time>
      </trkpt>
      <trkpt lat="59.9533801" lon="17.7242404">
        <ele>36.1868</ele>
        <time>2014-07-01T10:16:12Z</time>
      </trkpt>
      <trkpt lat="59.953398" lon="17.7242006">
        <ele>37.1481</ele>
        <time>2014-07-01T10:16:13Z</time>
      </trkpt>
      <trkpt lat="59.9534123" lon="17.7241683">
        <ele>38.5901</ele>
        <time>2014-07-01T10:16:14Z</time>
      </trkpt>
      <trkpt lat="59.9534211" lon="17.7241454">
        <ele>38.5901</ele>
        <time>2014-07-01T10:16:15Z</time>
      </trkpt>
      <trkpt lat="59.9534376" lon="17.7241222">
        <ele>39.5513</ele>
        <time>2014-07-01T10:16:16Z</time>
      </trkpt>
      <trkpt lat="59.9534535" lon="17.7240891">
        <ele>40.0321</ele>
        <time>2014-07-01T10:16:17Z</time>
      </trkpt>
      <trkpt lat="59.9534778" lon="17.7240589">
        <ele>41.474</ele>
        <time>2014-07-01T10:16:18Z</time>
      </trkpt>
      <trkpt lat="59.9535033" lon="17.7240255">
        <ele>42.4354</ele>
        <time>2014-07-01T10:16:19Z</time>
      </trkpt>
      <trkpt lat="59.9535184" lon="17.7239887">
        <ele>42.4354</ele>
        <time>2014-07-01T10:16:20Z</time>
      </trkpt>
      <trkpt lat="59.9535389" lon="17.7239516">
        <ele>42.4354</ele>
        <time>2014-07-01T10:16:21Z</time>
      </trkpt>
      <trkpt lat="59.9535617" lon="17.7239175">
        <ele>42.916</ele>
        <time>2014-07-01T10:16:22Z</time>
      </trkpt>
      <trkpt lat="59.953581" lon="17.7238799">
        <ele>42.916</ele>
        <time>2014-07-01T10:16:23Z</time>
      </trkpt>
      <trkpt lat="59.9536044" lon="17.7238456">
        <ele>42.916</ele>
        <time>2014-07-01T10:16:24Z</time>
      </trkpt>
      <trkpt lat="59.9536261" lon="17.7238182">
        <ele>42.916</ele>
        <time>2014-07-01T10:16:25Z</time>
      </trkpt>
      <trkpt lat="59.9536482" lon="17.723801">
        <ele>43.3966</ele>
        <time>2014-07-01T10:16:26Z</time>
      </trkpt>
      <trkpt lat="59.9536691" lon="17.7237786">
        <ele>42.916</ele>
        <time>2014-07-01T10:16:27Z</time>
      </trkpt>
      <trkpt lat="59.953694" lon="17.7237545">
        <ele>42.916</ele>
        <time>2014-07-01T10:16:28Z</time>
      </trkpt>
      <trkpt lat="59.9537169" lon="17.7237206">
        <ele>43.8773</ele>
        <time>2014-07-01T10:16:29Z</time>
      </trkpt>
      <trkpt lat="59.9537383" lon="17.7236857">
        <ele>43.3966</ele>
        <time>2014-07-01T10:16:30Z</time>
      </trkpt>
      <trkpt lat="59.9537621" lon="17.7236657">
        <ele>44.358</ele>
        <time>2014-07-01T10:16:31Z</time>
      </trkpt>
      <trkpt lat="59.95378" lon="17.7236398">
        <ele>43.3966</ele>
        <time>2014-07-01T10:16:32Z</time>
      </trkpt>
      <trkpt lat="59.9538008" lon="17.7236108">
        <ele>42.916</ele>
        <time>2014-07-01T10:16:33Z</time>
      </trkpt>
      <trkpt lat="59.9538243" lon="17.7235902">
        <ele>43.3966</ele>
        <time>2014-07-01T10:16:34Z</time>
      </trkpt>
      <trkpt lat="59.95384" lon="17.7235615">
        <ele>42.916</ele>
        <time>2014-07-01T10:16:35Z</time>
      </trkpt>
      <trkpt lat="59.9538577" lon="17.7235276">
        <ele>42.4354</ele>
        <time>2014-07-01T10:16:36Z</time>
      </trkpt>
      <trkpt lat="59.9538762" lon="17.7234975">
        <ele>41.474</ele>
        <time>2014-07-01T10:16:37Z</time>
      </trkpt>
      <trkpt lat="59.9538934" lon="17.723468">
        <ele>40.9934</ele>
        <time>2014-07-01T10:16:38Z</time>
      </trkpt>
      <trkpt lat="59.9539129" lon="17.7234315">
        <ele>40.5128</ele>
        <time>2014-07-01T10:16:39Z</time>
      </trkpt>
      <trkpt lat="59.9539301" lon="17.7233883">
        <ele>39.5513</ele>
        <time>2014-07-01T10:16:40Z</time>
      </trkpt>
      <trkpt lat="59.9539575" lon="17.723354">
        <ele>39.5513</ele>
        <time>2014-07-01T10:16:41Z</time>
      </trkpt>
      <trkpt lat="59.9539844" lon="17.723329">
        <ele>40.0321</ele>
        <time>2014-07-01T10:16:42Z</time>
      </trkpt>
      <trkpt lat="59.9540203" lon="17.7233068">
        <ele>41.474</ele>
        <time>2014-07-01T10:16:43Z</time>
      </trkpt>
      <trkpt lat="59.9540468" lon="17.7232903">
        <ele>42.4354</ele>
        <time>2014-07-01T10:16:44Z</time>
      </trkpt>
      <trkpt lat="59.9540721" lon="17.7232793">
        <ele>43.3966</ele>
        <time>2014-07-01T10:16:45Z</time>
      </trkpt>
      <trkpt lat="59.9540992" lon="17.7232683">
        <ele>43.8773</ele>
        <time>2014-07-01T10:16:46Z</time>
      </trkpt>
      <trkpt lat="59.9541203" lon="17.7232717">
        <ele>44.358</ele>
        <time>2014-07-01T10:16:47Z</time>
      </trkpt>
      <trkpt lat="59.9541449" lon="17.7232751">
        <ele>44.358</ele>
        <time>2014-07-01T10:16:48Z</time>
      </trkpt>
      <trkpt lat="59.9541752" lon="17.723285">
        <ele>44.8386</ele>
        <time>2014-07-01T10:16:49Z</time>
      </trkpt>
      <trkpt lat="59.9542061" lon="17.723292">
        <ele>46.7612</ele>
        <time>2014-07-01T10:16:50Z</time>
      </trkpt>
      <trkpt lat="59.9542379" lon="17.7232953">
        <ele>48.2034</ele>
        <time>2014-07-01T10:16:51Z</time>
      </trkpt>
      <trkpt lat="59.9542704" lon="17.7233028">
        <ele>49.6453</ele>
        <time>2014-07-01T10:16:52Z</time>
      </trkpt>
      <trkpt lat="59.9543006" lon="17.7233105">
        <ele>50.6066</ele>
        <time>2014-07-01T10:16:53Z</time>
      </trkpt>
      <trkpt lat="59.9543258" lon="17.7233255">
        <ele>51.5679</ele>
        <time>2014-07-01T10:16:54Z</time>
      </trkpt>
      <trkpt lat="59.9543537" lon="17.7233374">
        <ele>52.0486</ele>
        <time>2014-07-01T10:16:55Z</time>
      </trkpt>
      <trkpt lat="59.9543751" lon="17.7233535">
        <ele>53.4905</ele>
        <time>2014-07-01T10:16:56Z</time>
      </trkpt>
      <trkpt lat="59.9544154" lon="17.7233614">
        <ele>56.8551</ele>
        <time>2014-07-01T10:16:57Z</time>
      </trkpt>
      <trkpt lat="59.9544659" lon="17.7233654">
        <ele>60.2197</ele>
        <time>2014-07-01T10:16:58Z</time>
      </trkpt>
      <trkpt lat="59.954513" lon="17.7233635">
        <ele>63.5844</ele>
        <time>2014-07-01T10:16:59Z</time>
      </trkpt>
      <trkpt lat="59.9545497" lon="17.7233802">
        <ele>65.5071</ele>
        <time>2014-07-01T10:17:00Z</time>
      </trkpt>
      <trkpt lat="59.9545868" lon="17.7233902">
        <ele>68.3909</ele>
        <time>2014-07-01T10:17:01Z</time>
      </trkpt>
      <trkpt lat="59.9546156" lon="17.7233963">
        <ele>69.8329</ele>
        <time>2014-07-01T10:17:02Z</time>
      </trkpt>
      <trkpt lat="59.9546456" lon="17.7234053">
        <ele>72.2362</ele>
        <time>2014-07-01T10:17:03Z</time>
      </trkpt>
      <trkpt lat="59.9546771" lon="17.7234101">
        <ele>73.6782</ele>
        <time>2014-07-01T10:17:04Z</time>
      </trkpt>
      <trkpt lat="59.9547091" lon="17.7234166">
        <ele>75.1202</ele>
        <time>2014-07-01T10:17:05Z</time>
      </trkpt>
      <trkpt lat="59.95473" lon="17.7234291">
        <ele>75.6008</ele>
        <time>2014-07-01T10:17:06Z</time>
      </trkpt>
      <trkpt lat="59.9547575" lon="17.7234401">
        <ele>76.0814</ele>
        <time>2014-07-01T10:17:07Z</time>
      </trkpt>
      <trkpt lat="59.9548004" lon="17.723451">
        <ele>78.004</ele>
        <time>2014-07-01T10:17:08Z</time>
      </trkpt>
      <trkpt lat="59.9548349" lon="17.7234719">
        <ele>79.446</ele>
        <time>2014-07-01T10:17:09Z</time>
      </trkpt>
      <trkpt lat="59.9548718" lon="17.7234927">
        <ele>82.3301</ele>
        <time>2014-07-01T10:17:10Z</time>
      </trkpt>
      <trkpt lat="59.954894" lon="17.723512">
        <ele>83.2914</ele>
        <time>2014-07-01T10:17:11Z</time>
      </trkpt>
      <trkpt lat="59.9549287" lon="17.7235225">
        <ele>84.7334</ele>
        <time>2014-07-01T10:17:12Z</time>
      </trkpt>
      <trkpt lat="59.9549676" lon="17.7235332">
        <ele>87.1366</ele>
        <time>2014-07-01T10:17:13Z</time>
      </trkpt>
      <trkpt lat="59.9549992" lon="17.7235477">
        <ele>88.5787</ele>
        <time>2014-07-01T10:17:14Z</time>
      </trkpt>
      <trkpt lat="59.9550236" lon="17.7235674">
        <ele>89.5399</ele>
        <time>2014-07-01T10:17:15Z</time>
      </trkpt>
      <trkpt lat="59.9550527" lon="17.7235892">
        <ele>90.5013</ele>
        <time>2014-07-01T10:17:16Z</time>
      </trkpt>
      <trkpt lat="59.9550755" lon="17.7236033">
        <ele>90.0206</ele>
        <time>2014-07-01T10:17:17Z</time>
      </trkpt>
      <trkpt lat="59.9550946" lon="17.7236076">
        <ele>89.5399</ele>
        <time>2014-07-01T10:17:18Z</time>
      </trkpt>
      <trkpt lat="59.9551096" lon="17.7236053">
        <ele>88.098</ele>
        <time>2014-07-01T10:17:19Z</time>
      </trkpt>
      <trkpt lat="59.9551241" lon="17.7235893">
        <ele>86.1753</ele>
        <time>2014-07-01T10:17:20Z</time>
      </trkpt>
      <trkpt lat="59.9551351" lon="17.7235777">
        <ele>84.2527</ele>
        <time>2014-07-01T10:17:21Z</time>
      </trkpt>
      <trkpt lat="59.9551459" lon="17.7235612">
        <ele>82.3301</ele>
        <time>2014-07-01T10:17:22Z</time>
      </trkpt>
      <trkpt lat="59.9551649" lon="17.7235484">
        <ele>80.8882</ele>
        <time>2014-07-01T10:17:23Z</time>
      </trkpt>
      <trkpt lat="59.9551861" lon="17.7235265">
        <ele>79.446</ele>
        <time>2014-07-01T10:17:24Z</time>
      </trkpt>
      <trkpt lat="59.9552061" lon="17.7235098">
        <ele>78.004</ele>
        <time>2014-07-01T10:17:25Z</time>
      </trkpt>
      <trkpt lat="59.9552181" lon="17.7234913">
        <ele>76.0814</ele>
        <time>2014-07-01T10:17:26Z</time>
      </trkpt>
      <trkpt lat="59.955234" lon="17.7234694">
        <ele>75.1202</ele>
        <time>2014-07-01T10:17:27Z</time>
      </trkpt>
      <trkpt lat="59.9552552" lon="17.7234456">
        <ele>73.6782</ele>
        <time>2014-07-01T10:17:28Z</time>
      </trkpt>
      <trkpt lat="59.9552765" lon="17.723423">
        <ele>72.7169</ele>
        <time>2014-07-01T10:17:29Z</time>
      </trkpt>
      <trkpt lat="59.9552954" lon="17.7234092">
        <ele>71.7555</ele>
        <time>2014-07-01T10:17:30Z</time>
      </trkpt>
      <trkpt lat="59.9553151" lon="17.7234015">
        <ele>70.7942</ele>
        <time>2014-07-01T10:17:31Z</time>
      </trkpt>
      <trkpt lat="59.9553376" lon="17.7233955">
        <ele>69.8329</ele>
        <time>2014-07-01T10:17:32Z</time>
      </trkpt>
      <trkpt lat="59.9553641" lon="17.7233841">
        <ele>69.3523</ele>
        <time>2014-07-01T10:17:33Z</time>
      </trkpt>
      <trkpt lat="59.9553908" lon="17.7233829">
        <ele>68.8716</ele>
        <time>2014-07-01T10:17:34Z</time>
      </trkpt>
      <trkpt lat="59.9554182" lon="17.7233885">
        <ele>68.8716</ele>
        <time>2014-07-01T10:17:35Z</time>
      </trkpt>
      <trkpt lat="59.9554421" lon="17.7233943">
        <ele>68.8716</ele>
        <time>2014-07-01T10:17:36Z</time>
      </trkpt>
      <trkpt lat="59.9554657" lon="17.7233985">
        <ele>68.8716</ele>
        <time>2014-07-01T10:17:37Z</time>
      </trkpt>
      <trkpt lat="59.9554909" lon="17.7234069">
        <ele>68.3909</ele>
        <time>2014-07-01T10:17:38Z</time>
      </trkpt>
      <trkpt lat="59.955512" lon="17.7234258">
        <ele>67.9103</ele>
        <time>2014-07-01T10:17:39Z</time>
      </trkpt>
      <trkpt lat="59.9555369" lon="17.7234369">
        <ele>67.9103</ele>
        <time>2014-07-01T10:17:40Z</time>
      </trkpt>
      <trkpt lat="59.9555638" lon="17.7234458">
        <ele>68.3909</ele>
        <time>2014-07-01T10:17:41Z</time>
      </trkpt>
      <trkpt lat="59.95559" lon="17.7234608">
        <ele>68.3909</ele>
        <time>2014-07-01T10:17:42Z</time>
      </trkpt>
      <trkpt lat="59.9556164" lon="17.7234849">
        <ele>68.3909</ele>
        <time>2014-07-01T10:17:43Z</time>
      </trkpt>
      <trkpt lat="59.9556458" lon="17.7235087">
        <ele>69.3523</ele>
        <time>2014-07-01T10:17:44Z</time>
      </trkpt>
      <trkpt lat="59.955679" lon="17.7235299">
        <ele>70.7942</ele>
        <time>2014-07-01T10:17:45Z</time>
      </trkpt>
      <trkpt lat="59.9557136" lon="17.7235462">
        <ele>72.2362</ele>
        <time>2014-07-01T10:17:46Z</time>
      </trkpt>
      <trkpt lat="59.9557457" lon="17.7235643">
        <ele>73.1976</ele>
        <time>2014-07-01T10:17:47Z</time>
      </trkpt>
      <trkpt lat="59.9557763" lon="17.7235803">
        <ele>73.6782</ele>
        <time>2014-07-01T10:17:48Z</time>
      </trkpt>
      <trkpt lat="59.9558046" lon="17.7235898">
        <ele>74.1588</ele>
        <time>2014-07-01T10:17:49Z</time>
      </trkpt>
      <trkpt lat="59.9558309" lon="17.7236067">
        <ele>74.6395</ele>
        <time>2014-07-01T10:17:50Z</time>
      </trkpt>
      <trkpt lat="59.9558555" lon="17.7236265">
        <ele>74.6395</ele>
        <time>2014-07-01T10:17:51Z</time>
      </trkpt>
      <trkpt lat="59.9558775" lon="17.7236453">
        <ele>74.6395</ele>
        <time>2014-07-01T10:17:52Z</time>
      </trkpt>
      <trkpt lat="59.9559006" lon="17.7236594">
        <ele>74.1588</ele>
        <time>2014-07-01T10:17:53Z</time>
      </trkpt>
      <trkpt lat="59.9559218" lon="17.7236748">
        <ele>73.6782</ele>
        <time>2014-07-01T10:17:54Z</time>
      </trkpt>
      <trkpt lat="59.9559343" lon="17.7236703">
        <ele>72.2362</ele>
        <time>2014-07-01T10:17:55Z</time>
      </trkpt>
      <trkpt lat="59.9559424" lon="17.7236439">
        <ele>69.8329</ele>
        <time>2014-07-01T10:17:56Z</time>
      </trkpt>
      <trkpt lat="59.955955" lon="17.7236155">
        <ele>67.4297</ele>
        <time>2014-07-01T10:17:57Z</time>
      </trkpt>
      <trkpt lat="59.9559695" lon="17.7235819">
        <ele>65.9877</ele>
        <time>2014-07-01T10:17:58Z</time>
      </trkpt>
      <trkpt lat="59.9559919" lon="17.7235353">
        <ele>67.4297</ele>
        <time>2014-07-01T10:17:59Z</time>
      </trkpt>
      <trkpt lat="59.9559989" lon="17.7234957">
        <ele>65.5071</ele>
        <time>2014-07-01T10:18:00Z</time>
      </trkpt>
      <trkpt lat="59.9560134" lon="17.7234638">
        <ele>64.5457</ele>
        <time>2014-07-01T10:18:01Z</time>
      </trkpt>
      <trkpt lat="59.9560282" lon="17.7234287">
        <ele>63.1036</ele>
        <time>2014-07-01T10:18:02Z</time>
      </trkpt>
      <trkpt lat="59.9560395" lon="17.7233899">
        <ele>61.181</ele>
        <time>2014-07-01T10:18:03Z</time>
      </trkpt>
      <trkpt lat="59.9560535" lon="17.7233507">
        <ele>60.2197</ele>
        <time>2014-07-01T10:18:04Z</time>
      </trkpt>
      <trkpt lat="59.9560587" lon="17.7233082">
        <ele>58.7777</ele>
        <time>2014-07-01T10:18:05Z</time>
      </trkpt>
      <trkpt lat="59.9560526" lon="17.7232564">
        <ele>56.8551</ele>
        <time>2014-07-01T10:18:06Z</time>
      </trkpt>
      <trkpt lat="59.9560666" lon="17.7232199">
        <ele>57.3358</ele>
        <time>2014-07-01T10:18:07Z</time>
      </trkpt>
      <trkpt lat="59.9560654" lon="17.7231723">
        <ele>54.4518</ele>
        <time>2014-07-01T10:18:08Z</time>
      </trkpt>
      <trkpt lat="59.9560607" lon="17.7231233">
        <ele>51.5679</ele>
        <time>2014-07-01T10:18:09Z</time>
      </trkpt>
      <trkpt lat="59.956057" lon="17.723085">
        <ele>50.126</ele>
        <time>2014-07-01T10:18:10Z</time>
      </trkpt>
      <trkpt lat="59.9560548" lon="17.723038">
        <ele>50.6066</ele>
        <time>2014-07-01T10:18:11Z</time>
      </trkpt>
      <trkpt lat="59.9560407" lon="17.7229872">
        <ele>49.6453</ele>
        <time>2014-07-01T10:18:12Z</time>
      </trkpt>
      <trkpt lat="59.9560217" lon="17.7229333">
        <ele>48.2034</ele>
        <time>2014-07-01T10:18:13Z</time>
      </trkpt>
      <trkpt lat="59.9560083" lon="17.7228827">
        <ele>47.7225</ele>
        <time>2014-07-01T10:18:14Z</time>
      </trkpt>
      <trkpt lat="59.955996" lon="17.7228385">
        <ele>47.2418</ele>
        <time>2014-07-01T10:18:15Z</time>
      </trkpt>
      <trkpt lat="59.9559925" lon="17.7227847">
        <ele>47.7225</ele>
        <time>2014-07-01T10:18:16Z</time>
      </trkpt>
      <trkpt lat="59.9559891" lon="17.7227379">
        <ele>49.1646</ele>
        <time>2014-07-01T10:18:17Z</time>
      </trkpt>
      <trkpt lat="59.9559799" lon="17.7227035">
        <ele>49.1646</ele>
        <time>2014-07-01T10:18:18Z</time>
      </trkpt>
      <trkpt lat="59.9559663" lon="17.7226526">
        <ele>49.1646</ele>
        <time>2014-07-01T10:18:19Z</time>
      </trkpt>
      <trkpt lat="59.9559603" lon="17.7225827">
        <ele>49.1646</ele>
        <time>2014-07-01T10:18:20Z</time>
      </trkpt>
      <trkpt lat="59.9559542" lon="17.7225219">
        <ele>50.126</ele>
        <time>2014-07-01T10:18:21Z</time>
      </trkpt>
      <trkpt lat="59.9559456" lon="17.7224702">
        <ele>49.6453</ele>
        <time>2014-07-01T10:18:22Z</time>
      </trkpt>
      <trkpt lat="59.9559401" lon="17.7224141">
        <ele>48.684</ele>
        <time>2014-07-01T10:18:23Z</time>
      </trkpt>
      <trkpt lat="59.9559341" lon="17.7223608">
        <ele>48.684</ele>
        <time>2014-07-01T10:18:24Z</time>
      </trkpt>
      <trkpt lat="59.9559272" lon="17.7223033">
        <ele>48.2034</ele>
        <time>2014-07-01T10:18:25Z</time>
      </trkpt>
      <trkpt lat="59.9559205" lon="17.7222401">
        <ele>48.2034</ele>
        <time>2014-07-01T10:18:26Z</time>
      </trkpt>
      <trkpt lat="59.9559135" lon="17.7221888">
        <ele>48.2034</ele>
        <time>2014-07-01T10:18:27Z</time>
      </trkpt>
      <trkpt lat="59.9559094" lon="17.7221433">
        <ele>47.7225</ele>
        <time>2014-07-01T10:18:28Z</time>
      </trkpt>
      <trkpt lat="59.9559131" lon="17.7220921">
        <ele>47.7225</ele>
        <time>2014-07-01T10:18:29Z</time>
      </trkpt>
      <trkpt lat="59.9559179" lon="17.7220409">
        <ele>47.2418</ele>
        <time>2014-07-01T10:18:30Z</time>
      </trkpt>
      <trkpt lat="59.9559187" lon="17.7219942">
        <ele>46.7612</ele>
        <time>2014-07-01T10:18:31Z</time>
      </trkpt>
      <trkpt lat="59.9559178" lon="17.7219424">
        <ele>46.7612</ele>
        <time>2014-07-01T10:18:32Z</time>
      </trkpt>
      <trkpt lat="59.9559229" lon="17.7218853">
        <ele>46.2806</ele>
        <time>2014-07-01T10:18:33Z</time>
      </trkpt>
      <trkpt lat="59.9559312" lon="17.7218326">
        <ele>45.7999</ele>
        <time>2014-07-01T10:18:34Z</time>
      </trkpt>
      <trkpt lat="59.9559399" lon="17.7217932">
        <ele>45.3192</ele>
        <time>2014-07-01T10:18:35Z</time>
      </trkpt>
      <trkpt lat="59.9559545" lon="17.7217504">
        <ele>46.7612</ele>
        <time>2014-07-01T10:18:36Z</time>
      </trkpt>
      <trkpt lat="59.9559679" lon="17.721699">
        <ele>49.1646</ele>
        <time>2014-07-01T10:18:37Z</time>
      </trkpt>
      <trkpt lat="59.955971" lon="17.7216461">
        <ele>49.6453</ele>
        <time>2014-07-01T10:18:38Z</time>
      </trkpt>
      <trkpt lat="59.9559715" lon="17.7215918">
        <ele>49.1646</ele>
        <time>2014-07-01T10:18:39Z</time>
      </trkpt>
      <trkpt lat="59.9559799" lon="17.7215401">
        <ele>50.126</ele>
        <time>2014-07-01T10:18:40Z</time>
      </trkpt>
      <trkpt lat="59.955984" lon="17.7214917">
        <ele>50.126</ele>
        <time>2014-07-01T10:18:41Z</time>
      </trkpt>
      <trkpt lat="59.9559706" lon="17.72144">
        <ele>48.684</ele>
        <time>2014-07-01T10:18:42Z</time>
      </trkpt>
      <trkpt lat="59.9559622" lon="17.7214123">
        <ele>48.2034</ele>
        <time>2014-07-01T10:18:43Z</time>
      </trkpt>
      <trkpt lat="59.955956" lon="17.7213721">
        <ele>48.2034</ele>
        <time>2014-07-01T10:18:44Z</time>
      </trkpt>
      <trkpt lat="59.9559401" lon="17.721323">
        <ele>48.2034</ele>
        <time>2014-07-01T10:18:45Z</time>
      </trkpt>
      <trkpt lat="59.9559231" lon="17.7212902">
        <ele>48.2034</ele>
        <time>2014-07-01T10:18:46Z</time>
      </trkpt>
      <trkpt lat="59.9559017" lon="17.7212707">
        <ele>47.7225</ele>
        <time>2014-07-01T10:18:47Z</time>
      </trkpt>
      <trkpt lat="59.9558767" lon="17.7212509">
        <ele>47.2418</ele>
        <time>2014-07-01T10:18:48Z</time>
      </trkpt>
      <trkpt lat="59.9558519" lon="17.7212424">
        <ele>47.2418</ele>
        <time>2014-07-01T10:18:49Z</time>
      </trkpt>
      <trkpt lat="59.9558277" lon="17.7212463">
        <ele>46.7612</ele>
        <time>2014-07-01T10:18:50Z</time>
      </trkpt>
      <trkpt lat="59.9558028" lon="17.7212499">
        <ele>46.7612</ele>
        <time>2014-07-01T10:18:51Z</time>
      </trkpt>
      <trkpt lat="59.9557779" lon="17.7212528">
        <ele>46.7612</ele>
        <time>2014-07-01T10:18:52Z</time>
      </trkpt>
      <trkpt lat="59.9557535" lon="17.7212627">
        <ele>47.2418</ele>
        <time>2014-07-01T10:18:53Z</time>
      </trkpt>
      <trkpt lat="59.9557269" lon="17.7212782">
        <ele>47.7225</ele>
        <time>2014-07-01T10:18:54Z</time>
      </trkpt>
      <trkpt lat="59.9556992" lon="17.7212916">
        <ele>47.2418</ele>
        <time>2014-07-01T10:18:55Z</time>
      </trkpt>
      <trkpt lat="59.9556729" lon="17.7212992">
        <ele>48.2034</ele>
        <time>2014-07-01T10:18:56Z</time>
      </trkpt>
      <trkpt lat="59.9556511" lon="17.721316">
        <ele>48.684</ele>
        <time>2014-07-01T10:18:57Z</time>
      </trkpt>
      <trkpt lat="59.9556286" lon="17.7213316">
        <ele>49.6453</ele>
        <time>2014-07-01T10:18:58Z</time>
      </trkpt>
      <trkpt lat="59.9556031" lon="17.7213493">
        <ele>51.0872</ele>
        <time>2014-07-01T10:18:59Z</time>
      </trkpt>
      <trkpt lat="59.9555769" lon="17.7213674">
        <ele>51.5679</ele>
        <time>2014-07-01T10:19:00Z</time>
      </trkpt>
      <trkpt lat="59.9555515" lon="17.7213843">
        <ele>52.0486</ele>
        <time>2014-07-01T10:19:01Z</time>
      </trkpt>
      <trkpt lat="59.9555251" lon="17.7213981">
        <ele>52.5292</ele>
        <time>2014-07-01T10:19:02Z</time>
      </trkpt>
      <trkpt lat="59.9554949" lon="17.7214063">
        <ele>53.4905</ele>
        <time>2014-07-01T10:19:03Z</time>
      </trkpt>
      <trkpt lat="59.9554656" lon="17.7214109">
        <ele>53.4905</ele>
        <time>2014-07-01T10:19:04Z</time>
      </trkpt>
      <trkpt lat="59.9554392" lon="17.7214032">
        <ele>53.4905</ele>
        <time>2014-07-01T10:19:05Z</time>
      </trkpt>
      <trkpt lat="59.955417" lon="17.7213907">
        <ele>53.4905</ele>
        <time>2014-07-01T10:19:06Z</time>
      </trkpt>
      <trkpt lat="59.9553975" lon="17.7213773">
        <ele>53.4905</ele>
        <time>2014-07-01T10:19:07Z</time>
      </trkpt>
      <trkpt lat="59.955377" lon="17.7213762">
        <ele>54.4518</ele>
        <time>2014-07-01T10:19:08Z</time>
      </trkpt>
      <trkpt lat="59.9553567" lon="17.7213721">
        <ele>55.4131</ele>
        <time>2014-07-01T10:19:09Z</time>
      </trkpt>
      <trkpt lat="59.9553312" lon="17.7213626">
        <ele>56.3745</ele>
        <time>2014-07-01T10:19:10Z</time>
      </trkpt>
      <trkpt lat="59.9553077" lon="17.7213548">
        <ele>57.8165</ele>
        <time>2014-07-01T10:19:11Z</time>
      </trkpt>
      <trkpt lat="59.9552816" lon="17.7213561">
        <ele>59.2584</ele>
        <time>2014-07-01T10:19:12Z</time>
      </trkpt>
      <trkpt lat="59.9552509" lon="17.7213519">
        <ele>59.2584</ele>
        <time>2014-07-01T10:19:13Z</time>
      </trkpt>
      <trkpt lat="59.9552216" lon="17.7213493">
        <ele>60.2197</ele>
        <time>2014-07-01T10:19:14Z</time>
      </trkpt>
      <trkpt lat="59.9551927" lon="17.7213411">
        <ele>61.181</ele>
        <time>2014-07-01T10:19:15Z</time>
      </trkpt>
      <trkpt lat="59.9551635" lon="17.7213346">
        <ele>61.6617</ele>
        <time>2014-07-01T10:19:16Z</time>
      </trkpt>
      <trkpt lat="59.9551356" lon="17.7213348">
        <ele>63.1036</ele>
        <time>2014-07-01T10:19:17Z</time>
      </trkpt>
      <trkpt lat="59.9551095" lon="17.7213315">
        <ele>65.0264</ele>
        <time>2014-07-01T10:19:18Z</time>
      </trkpt>
      <trkpt lat="59.9550826" lon="17.7213229">
        <ele>65.9877</ele>
        <time>2014-07-01T10:19:19Z</time>
      </trkpt>
      <trkpt lat="59.9550542" lon="17.7213331">
        <ele>65.9877</ele>
        <time>2014-07-01T10:19:20Z</time>
      </trkpt>
      <trkpt lat="59.9550293" lon="17.7213303">
        <ele>65.9877</ele>
        <time>2014-07-01T10:19:21Z</time>
      </trkpt>
      <trkpt lat="59.9550057" lon="17.7213144">
        <ele>65.5071</ele>
        <time>2014-07-01T10:19:22Z</time>
      </trkpt>
      <trkpt lat="59.954985" lon="17.7213114">
        <ele>65.9877</ele>
        <time>2014-07-01T10:19:23Z</time>
      </trkpt>
      <trkpt lat="59.954966" lon="17.7213012">
        <ele>65.5071</ele>
        <time>2014-07-01T10:19:24Z</time>
      </trkpt>
      <trkpt lat="59.954948" lon="17.7212945">
        <ele>65.0264</ele>
        <time>2014-07-01T10:19:25Z</time>
      </trkpt>
      <trkpt lat="59.954928" lon="17.7212897">
        <ele>65.0264</ele>
        <time>2014-07-01T10:19:26Z</time>
      </trkpt>
      <trkpt lat="59.9549012" lon="17.7212758">
        <ele>64.5457</ele>
        <time>2014-07-01T10:19:27Z</time>
      </trkpt>
      <trkpt lat="59.9548769" lon="17.7212554">
        <ele>64.0651</ele>
        <time>2014-07-01T10:19:28Z</time>
      </trkpt>
      <trkpt lat="59.9548534" lon="17.7212313">
        <ele>63.5844</ele>
        <time>2014-07-01T10:19:29Z</time>
      </trkpt>
      <trkpt lat="59.9548326" lon="17.7211986">
        <ele>64.0651</ele>
        <time>2014-07-01T10:19:30Z</time>
      </trkpt>
      <trkpt lat="59.9548206" lon="17.7211571">
        <ele>64.0651</ele>
        <time>2014-07-01T10:19:31Z</time>
      </trkpt>
      <trkpt lat="59.9548067" lon="17.7211224">
        <ele>64.0651</ele>
        <time>2014-07-01T10:19:32Z</time>
      </trkpt>
      <trkpt lat="59.954788" lon="17.721069">
        <ele>63.5844</ele>
        <time>2014-07-01T10:19:33Z</time>
      </trkpt>
      <trkpt lat="59.9547777" lon="17.7210141">
        <ele>63.1036</ele>
        <time>2014-07-01T10:19:34Z</time>
      </trkpt>
      <trkpt lat="59.9547724" lon="17.7209576">
        <ele>63.1036</ele>
        <time>2014-07-01T10:19:35Z</time>
      </trkpt>
      <trkpt lat="59.9547695" lon="17.7209058">
        <ele>62.6229</ele>
        <time>2014-07-01T10:19:36Z</time>
      </trkpt>
      <trkpt lat="59.9547694" lon="17.7208566">
        <ele>62.1423</ele>
        <time>2014-07-01T10:19:37Z</time>
      </trkpt>
      <trkpt lat="59.954774" lon="17.7208042">
        <ele>61.6617</ele>
        <time>2014-07-01T10:19:38Z</time>
      </trkpt>
      <trkpt lat="59.9547809" lon="17.7207457">
        <ele>61.181</ele>
        <time>2014-07-01T10:19:39Z</time>
      </trkpt>
      <trkpt lat="59.9547865" lon="17.7206822">
        <ele>60.7003</ele>
        <time>2014-07-01T10:19:40Z</time>
      </trkpt>
      <trkpt lat="59.9548024" lon="17.7206355">
        <ele>61.181</ele>
        <time>2014-07-01T10:19:41Z</time>
      </trkpt>
      <trkpt lat="59.954819" lon="17.7205919">
        <ele>60.7003</ele>
        <time>2014-07-01T10:19:42Z</time>
      </trkpt>
      <trkpt lat="59.9548384" lon="17.7205547">
        <ele>60.7003</ele>
        <time>2014-07-01T10:19:43Z</time>
      </trkpt>
      <trkpt lat="59.95486" lon="17.7205272">
        <ele>60.2197</ele>
        <time>2014-07-01T10:19:44Z</time>
      </trkpt>
      <trkpt lat="59.9548834" lon="17.7205003">
        <ele>60.7003</ele>
        <time>2014-07-01T10:19:45Z</time>
      </trkpt>
      <trkpt lat="59.954903" lon="17.720476">
        <ele>61.181</ele>
        <time>2014-07-01T10:19:46Z</time>
      </trkpt>
      <trkpt lat="59.9549191" lon="17.7204401">
        <ele>61.181</ele>
        <time>2014-07-01T10:19:47Z</time>
      </trkpt>
      <trkpt lat="59.9549271" lon="17.7203993">
        <ele>60.2197</ele>
        <time>2014-07-01T10:19:48Z</time>
      </trkpt>
      <trkpt lat="59.9549385" lon="17.7203724">
        <ele>58.7777</ele>
        <time>2014-07-01T10:19:49Z</time>
      </trkpt>
      <trkpt lat="59.9549558" lon="17.720346">
        <ele>58.2971</ele>
        <time>2014-07-01T10:19:50Z</time>
      </trkpt>
      <trkpt lat="59.9549812" lon="17.7203252">
        <ele>58.2971</ele>
        <time>2014-07-01T10:19:51Z</time>
      </trkpt>
      <trkpt lat="59.9550039" lon="17.7203048">
        <ele>57.3358</ele>
        <time>2014-07-01T10:19:52Z</time>
      </trkpt>
      <trkpt lat="59.9550227" lon="17.7202816">
        <ele>56.3745</ele>
        <time>2014-07-01T10:19:53Z</time>
      </trkpt>
      <trkpt lat="59.9550455" lon="17.7202645">
        <ele>56.3745</ele>
        <time>2014-07-01T10:19:54Z</time>
      </trkpt>
      <trkpt lat="59.9550641" lon="17.7202395">
        <ele>55.8938</ele>
        <time>2014-07-01T10:19:55Z</time>
      </trkpt>
      <trkpt lat="59.9550822" lon="17.7202147">
        <ele>55.8938</ele>
        <time>2014-07-01T10:19:56Z</time>
      </trkpt>
      <trkpt lat="59.9551044" lon="17.7201914">
        <ele>54.9324</ele>
        <time>2014-07-01T10:19:57Z</time>
      </trkpt>
      <trkpt lat="59.9551293" lon="17.7201693">
        <ele>54.9324</ele>
        <time>2014-07-01T10:19:58Z</time>
      </trkpt>
      <trkpt lat="59.9551515" lon="17.7201527">
        <ele>55.4131</ele>
        <time>2014-07-01T10:19:59Z</time>
      </trkpt>
      <trkpt lat="59.9551701" lon="17.720132">
        <ele>55.4131</ele>
        <time>2014-07-01T10:20:00Z</time>
      </trkpt>
      <trkpt lat="59.9551849" lon="17.7201077">
        <ele>54.4518</ele>
        <time>2014-07-01T10:20:01Z</time>
      </trkpt>
      <trkpt lat="59.9551988" lon="17.7200822">
        <ele>53.4905</ele>
        <time>2014-07-01T10:20:02Z</time>
      </trkpt>
      <trkpt lat="59.9552091" lon="17.720052">
        <ele>52.5292</ele>
        <time>2014-07-01T10:20:03Z</time>
      </trkpt>
      <trkpt lat="59.9552253" lon="17.7200272">
        <ele>52.0486</ele>
        <time>2014-07-01T10:20:04Z</time>
      </trkpt>
      <trkpt lat="59.9552426" lon="17.7200092">
        <ele>51.0872</ele>
        <time>2014-07-01T10:20:05Z</time>
      </trkpt>
      <trkpt lat="59.9552673" lon="17.7199857">
        <ele>51.0872</ele>
        <time>2014-07-01T10:20:06Z</time>
      </trkpt>
      <trkpt lat="59.9552925" lon="17.7199667">
        <ele>51.5679</ele>
        <time>2014-07-01T10:20:07Z</time>
      </trkpt>
      <trkpt lat="59.9553138" lon="17.7199443">
        <ele>51.5679</ele>
        <time>2014-07-01T10:20:08Z</time>
      </trkpt>
      <trkpt lat="59.9553382" lon="17.719915">
        <ele>52.5292</ele>
        <time>2014-07-01T10:20:09Z</time>
      </trkpt>
      <trkpt lat="59.9553572" lon="17.7198809">
        <ele>52.5292</ele>
        <time>2014-07-01T10:20:10Z</time>
      </trkpt>
      <trkpt lat="59.9553802" lon="17.719858">
        <ele>53.0098</ele>
        <time>2014-07-01T10:20:11Z</time>
      </trkpt>
      <trkpt lat="59.9553999" lon="17.7198386">
        <ele>52.5292</ele>
        <time>2014-07-01T10:20:12Z</time>
      </trkpt>
      <trkpt lat="59.9554282" lon="17.7198217">
        <ele>53.0098</ele>
        <time>2014-07-01T10:20:13Z</time>
      </trkpt>
      <trkpt lat="59.9554573" lon="17.7198083">
        <ele>53.0098</ele>
        <time>2014-07-01T10:20:14Z</time>
      </trkpt>
      <trkpt lat="59.9554858" lon="17.7197993">
        <ele>54.4518</ele>
        <time>2014-07-01T10:20:15Z</time>
      </trkpt>
      <trkpt lat="59.9555066" lon="17.7197947">
        <ele>54.4518</ele>
        <time>2014-07-01T10:20:16Z</time>
      </trkpt>
      <trkpt lat="59.955535" lon="17.7197852">
        <ele>54.4518</ele>
        <time>2014-07-01T10:20:17Z</time>
      </trkpt>
      <trkpt lat="59.9555641" lon="17.7197659">
        <ele>54.4518</ele>
        <time>2014-07-01T10:20:18Z</time>
      </trkpt>
      <trkpt lat="59.9555864" lon="17.7197493">
        <ele>53.4905</ele>
        <time>2014-07-01T10:20:19Z</time>
      </trkpt>
      <trkpt lat="59.9556171" lon="17.7197311">
        <ele>54.4518</ele>
        <time>2014-07-01T10:20:20Z</time>
      </trkpt>
      <trkpt lat="59.9556456" lon="17.7197109">
        <ele>54.4518</ele>
        <time>2014-07-01T10:20:21Z</time>
      </trkpt>
      <trkpt lat="59.9556738" lon="17.7196856">
        <ele>54.4518</ele>
        <time>2014-07-01T10:20:22Z</time>
      </trkpt>
      <trkpt lat="59.9557028" lon="17.719658">
        <ele>53.4905</ele>
        <time>2014-07-01T10:20:23Z</time>
      </trkpt>
      <trkpt lat="59.9557316" lon="17.7196356">
        <ele>53.9712</ele>
        <time>2014-07-01T10:20:24Z</time>
      </trkpt>
      <trkpt lat="59.9557515" lon="17.719617">
        <ele>53.4905</ele>
        <time>2014-07-01T10:20:25Z</time>
      </trkpt>
      <trkpt lat="59.9557716" lon="17.7195964">
        <ele>53.4905</ele>
        <time>2014-07-01T10:20:26Z</time>
      </trkpt>
      <trkpt lat="59.9557896" lon="17.7195715">
        <ele>53.0098</ele>
        <time>2014-07-01T10:20:27Z</time>
      </trkpt>
      <trkpt lat="59.9558106" lon="17.7195534">
        <ele>52.5292</ele>
        <time>2014-07-01T10:20:28Z</time>
      </trkpt>
      <trkpt lat="59.9558329" lon="17.7195294">
        <ele>52.0486</ele>
        <time>2014-07-01T10:20:29Z</time>
      </trkpt>
      <trkpt lat="59.9558494" lon="17.7195">
        <ele>51.5679</ele>
        <time>2014-07-01T10:20:30Z</time>
      </trkpt>
      <trkpt lat="59.9558674" lon="17.7194674">
        <ele>51.0872</ele>
        <time>2014-07-01T10:20:31Z</time>
      </trkpt>
      <trkpt lat="59.9558877" lon="17.7194399">
        <ele>51.0872</ele>
        <time>2014-07-01T10:20:32Z</time>
      </trkpt>
      <trkpt lat="59.9559068" lon="17.7194083">
        <ele>50.6066</ele>
        <time>2014-07-01T10:20:33Z</time>
      </trkpt>
      <trkpt lat="59.9559328" lon="17.7193777">
        <ele>51.0872</ele>
        <time>2014-07-01T10:20:34Z</time>
      </trkpt>
      <trkpt lat="59.9559572" lon="17.7193449">
        <ele>51.0872</ele>
        <time>2014-07-01T10:20:35Z</time>
      </trkpt>
      <trkpt lat="59.9559809" lon="17.7193164">
        <ele>51.5679</ele>
        <time>2014-07-01T10:20:36Z</time>
      </trkpt>
      <trkpt lat="59.9560017" lon="17.7192848">
        <ele>51.5679</ele>
        <time>2014-07-01T10:20:37Z</time>
      </trkpt>
      <trkpt lat="59.9560291" lon="17.7192556">
        <ele>51.5679</ele>
        <time>2014-07-01T10:20:38Z</time>
      </trkpt>
      <trkpt lat="59.9560528" lon="17.7192207">
        <ele>52.0486</ele>
        <time>2014-07-01T10:20:39Z</time>
      </trkpt>
      <trkpt lat="59.9560758" lon="17.7191873">
        <ele>52.0486</ele>
        <time>2014-07-01T10:20:40Z</time>
      </trkpt>
      <trkpt lat="59.9560929" lon="17.7191514">
        <ele>51.0872</ele>
        <time>2014-07-01T10:20:41Z</time>
      </trkpt>
      <trkpt lat="59.9561053" lon="17.7191136">
        <ele>50.126</ele>
        <time>2014-07-01T10:20:42Z</time>
      </trkpt>
      <trkpt lat="59.9561156" lon="17.7190782">
        <ele>50.6066</ele>
        <time>2014-07-01T10:20:43Z</time>
      </trkpt>
      <trkpt lat="59.9561132" lon="17.7190224">
        <ele>50.6066</ele>
        <time>2014-07-01T10:20:44Z</time>
      </trkpt>
      <trkpt lat="59.956113" lon="17.7189567">
        <ele>51.5679</ele>
        <time>2014-07-01T10:20:45Z</time>
      </trkpt>
      <trkpt lat="59.9561212" lon="17.718906">
        <ele>51.5679</ele>
        <time>2014-07-01T10:20:46Z</time>
      </trkpt>
      <trkpt lat="59.9561268" lon="17.7188642">
        <ele>51.5679</ele>
        <time>2014-07-01T10:20:47Z</time>
      </trkpt>
      <trkpt lat="59.9561298" lon="17.7188147">
        <ele>51.0872</ele>
        <time>2014-07-01T10:20:48Z</time>
      </trkpt>
      <trkpt lat="59.9561333" lon="17.7187594">
        <ele>51.5679</ele>
        <time>2014-07-01T10:20:49Z</time>
      </trkpt>
      <trkpt lat="59.9561317" lon="17.718699">
        <ele>52.5292</ele>
        <time>2014-07-01T10:20:50Z</time>
      </trkpt>
      <trkpt lat="59.9561296" lon="17.7186438">
        <ele>52.5292</ele>
        <time>2014-07-01T10:20:51Z</time>
      </trkpt>
      <trkpt lat="59.9561302" lon="17.7185987">
        <ele>53.0098</ele>
        <time>2014-07-01T10:20:52Z</time>
      </trkpt>
      <trkpt lat="59.9561286" lon="17.718554">
        <ele>53.4905</ele>
        <time>2014-07-01T10:20:53Z</time>
      </trkpt>
      <trkpt lat="59.9561259" lon="17.7185164">
        <ele>53.9712</ele>
        <time>2014-07-01T10:20:54Z</time>
      </trkpt>
      <trkpt lat="59.9561183" lon="17.7184956">
        <ele>53.9712</ele>
        <time>2014-07-01T10:20:55Z</time>
      </trkpt>
      <trkpt lat="59.9561049" lon="17.7184652">
        <ele>54.4518</ele>
        <time>2014-07-01T10:20:56Z</time>
      </trkpt>
      <trkpt lat="59.9560924" lon="17.7184194">
        <ele>54.9324</ele>
        <time>2014-07-01T10:20:57Z</time>
      </trkpt>
      <trkpt lat="59.9560773" lon="17.7183644">
        <ele>54.9324</ele>
        <time>2014-07-01T10:20:58Z</time>
      </trkpt>
      <trkpt lat="59.9560613" lon="17.7183134">
        <ele>55.4131</ele>
        <time>2014-07-01T10:20:59Z</time>
      </trkpt>
      <trkpt lat="59.9560431" lon="17.7182646">
        <ele>54.9324</ele>
        <time>2014-07-01T10:21:00Z</time>
      </trkpt>
      <trkpt lat="59.9560265" lon="17.7182091">
        <ele>54.4518</ele>
        <time>2014-07-01T10:21:01Z</time>
      </trkpt>
      <trkpt lat="59.9560165" lon="17.7181535">
        <ele>54.4518</ele>
        <time>2014-07-01T10:21:02Z</time>
      </trkpt>
      <trkpt lat="59.9560085" lon="17.718101">
        <ele>54.4518</ele>
        <time>2014-07-01T10:21:03Z</time>
      </trkpt>
      <trkpt lat="59.9559935" lon="17.7180554">
        <ele>53.9712</ele>
        <time>2014-07-01T10:21:04Z</time>
      </trkpt>
      <trkpt lat="59.9559779" lon="17.7180107">
        <ele>53.9712</ele>
        <time>2014-07-01T10:21:05Z</time>
      </trkpt>
      <trkpt lat="59.9559645" lon="17.7179696">
        <ele>54.4518</ele>
        <time>2014-07-01T10:21:06Z</time>
      </trkpt>
      <trkpt lat="59.9559519" lon="17.7179335">
        <ele>54.9324</ele>
        <time>2014-07-01T10:21:07Z</time>
      </trkpt>
      <trkpt lat="59.9559333" lon="17.7178885">
        <ele>54.9324</ele>
        <time>2014-07-01T10:21:08Z</time>
      </trkpt>
      <trkpt lat="59.9559148" lon="17.7178417">
        <ele>55.4131</ele>
        <time>2014-07-01T10:21:09Z</time>
      </trkpt>
      <trkpt lat="59.9559031" lon="17.7178019">
        <ele>55.4131</ele>
        <time>2014-07-01T10:21:10Z</time>
      </trkpt>
      <trkpt lat="59.9558917" lon="17.7177621">
        <ele>55.4131</ele>
        <time>2014-07-01T10:21:11Z</time>
      </trkpt>
      <trkpt lat="59.9558758" lon="17.7177264">
        <ele>55.8938</ele>
        <time>2014-07-01T10:21:12Z</time>
      </trkpt>
      <trkpt lat="59.9558552" lon="17.7176933">
        <ele>55.8938</ele>
        <time>2014-07-01T10:21:13Z</time>
      </trkpt>
      <trkpt lat="59.9558344" lon="17.7176602">
        <ele>55.8938</ele>
        <time>2014-07-01T10:21:14Z</time>
      </trkpt>
      <trkpt lat="59.9558168" lon="17.7176278">
        <ele>56.3745</ele>
        <time>2014-07-01T10:21:15Z</time>
      </trkpt>
      <trkpt lat="59.9557997" lon="17.7175943">
        <ele>56.3745</ele>
        <time>2014-07-01T10:21:16Z</time>
      </trkpt>
      <trkpt lat="59.955778" lon="17.7175485">
        <ele>56.3745</ele>
        <time>2014-07-01T10:21:17Z</time>
      </trkpt>
      <trkpt lat="59.9557582" lon="17.7175084">
        <ele>56.3745</ele>
        <time>2014-07-01T10:21:18Z</time>
      </trkpt>
      <trkpt lat="59.9557432" lon="17.7174765">
        <ele>57.3358</ele>
        <time>2014-07-01T10:21:19Z</time>
      </trkpt>
      <trkpt lat="59.9557266" lon="17.7174348">
        <ele>57.8165</ele>
        <time>2014-07-01T10:21:20Z</time>
      </trkpt>
      <trkpt lat="59.9557065" lon="17.7173896">
        <ele>57.3358</ele>
        <time>2014-07-01T10:21:21Z</time>
      </trkpt>
      <trkpt lat="59.9556857" lon="17.7173481">
        <ele>57.3358</ele>
        <time>2014-07-01T10:21:22Z</time>
      </trkpt>
      <trkpt lat="59.9556695" lon="17.7172988">
        <ele>57.3358</ele>
        <time>2014-07-01T10:21:23Z</time>
      </trkpt>
      <trkpt lat="59.9556537" lon="17.7172468">
        <ele>57.3358</ele>
        <time>2014-07-01T10:21:24Z</time>
      </trkpt>
      <trkpt lat="59.9556406" lon="17.7172016">
        <ele>56.3745</ele>
        <time>2014-07-01T10:21:25Z</time>
      </trkpt>
      <trkpt lat="59.9556256" lon="17.7171613">
        <ele>55.8938</ele>
        <time>2014-07-01T10:21:26Z</time>
      </trkpt>
      <trkpt lat="59.9556086" lon="17.7171173">
        <ele>56.3745</ele>
        <time>2014-07-01T10:21:27Z</time>
      </trkpt>
      <trkpt lat="59.9555933" lon="17.7170581">
        <ele>55.8938</ele>
        <time>2014-07-01T10:21:28Z</time>
      </trkpt>
      <trkpt lat="59.955584" lon="17.717001">
        <ele>55.4131</ele>
        <time>2014-07-01T10:21:29Z</time>
      </trkpt>
      <trkpt lat="59.9555749" lon="17.7169473">
        <ele>55.4131</ele>
        <time>2014-07-01T10:21:30Z</time>
      </trkpt>
      <trkpt lat="59.955567" lon="17.7168882">
        <ele>54.4518</ele>
        <time>2014-07-01T10:21:31Z</time>
      </trkpt>
      <trkpt lat="59.9555604" lon="17.7168286">
        <ele>53.9712</ele>
        <time>2014-07-01T10:21:32Z</time>
      </trkpt>
      <trkpt lat="59.9555552" lon="17.7167748">
        <ele>53.4905</ele>
        <time>2014-07-01T10:21:33Z</time>
      </trkpt>
      <trkpt lat="59.9555531" lon="17.7167137">
        <ele>53.0098</ele>
        <time>2014-07-01T10:21:34Z</time>
      </trkpt>
      <trkpt lat="59.9555474" lon="17.7166497">
        <ele>52.5292</ele>
        <time>2014-07-01T10:21:35Z</time>
      </trkpt>
      <trkpt lat="59.9555431" lon="17.7165943">
        <ele>52.0486</ele>
        <time>2014-07-01T10:21:36Z</time>
      </trkpt>
      <trkpt lat="59.9555391" lon="17.7165353">
        <ele>51.0872</ele>
        <time>2014-07-01T10:21:37Z</time>
      </trkpt>
      <trkpt lat="59.9555351" lon="17.716484">
        <ele>50.6066</ele>
        <time>2014-07-01T10:21:38Z</time>
      </trkpt>
      <trkpt lat="59.9555256" lon="17.7164337">
        <ele>50.126</ele>
        <time>2014-07-01T10:21:39Z</time>
      </trkpt>
      <trkpt lat="59.9555179" lon="17.7163824">
        <ele>50.126</ele>
        <time>2014-07-01T10:21:40Z</time>
      </trkpt>
      <trkpt lat="59.9555105" lon="17.7163349">
        <ele>50.6066</ele>
        <time>2014-07-01T10:21:41Z</time>
      </trkpt>
      <trkpt lat="59.9554996" lon="17.7162952">
        <ele>50.6066</ele>
        <time>2014-07-01T10:21:42Z</time>
      </trkpt>
      <trkpt lat="59.9554873" lon="17.716253">
        <ele>50.126</ele>
        <time>2014-07-01T10:21:43Z</time>
      </trkpt>
      <trkpt lat="59.9554785" lon="17.7162012">
        <ele>49.6453</ele>
        <time>2014-07-01T10:21:44Z</time>
      </trkpt>
      <trkpt lat="59.9554707" lon="17.7161397">
        <ele>49.1646</ele>
        <time>2014-07-01T10:21:45Z</time>
      </trkpt>
      <trkpt lat="59.9554661" lon="17.7160771">
        <ele>48.684</ele>
        <time>2014-07-01T10:21:46Z</time>
      </trkpt>
      <trkpt lat="59.9554595" lon="17.7160152">
        <ele>47.7225</ele>
        <time>2014-07-01T10:21:47Z</time>
      </trkpt>
      <trkpt lat="59.9554558" lon="17.7159527">
        <ele>47.2418</ele>
        <time>2014-07-01T10:21:48Z</time>
      </trkpt>
      <trkpt lat="59.9554538" lon="17.71589">
        <ele>46.7612</ele>
        <time>2014-07-01T10:21:49Z</time>
      </trkpt>
      <trkpt lat="59.9554473" lon="17.7158284">
        <ele>46.7612</ele>
        <time>2014-07-01T10:21:50Z</time>
      </trkpt>
      <trkpt lat="59.9554407" lon="17.7157657">
        <ele>46.7612</ele>
        <time>2014-07-01T10:21:51Z</time>
      </trkpt>
      <trkpt lat="59.955436" lon="17.7156994">
        <ele>46.7612</ele>
        <time>2014-07-01T10:21:52Z</time>
      </trkpt>
      <trkpt lat="59.9554354" lon="17.7156389">
        <ele>46.7612</ele>
        <time>2014-07-01T10:21:53Z</time>
      </trkpt>
      <trkpt lat="59.9554354" lon="17.7155786">
        <ele>46.7612</ele>
        <time>2014-07-01T10:21:54Z</time>
      </trkpt>
      <trkpt lat="59.9554338" lon="17.7155192">
        <ele>46.2806</ele>
        <time>2014-07-01T10:21:55Z</time>
      </trkpt>
      <trkpt lat="59.955431" lon="17.7154682">
        <ele>46.2806</ele>
        <time>2014-07-01T10:21:56Z</time>
      </trkpt>
      <trkpt lat="59.9554283" lon="17.7154098">
        <ele>46.2806</ele>
        <time>2014-07-01T10:21:57Z</time>
      </trkpt>
      <trkpt lat="59.9554298" lon="17.7153528">
        <ele>46.7612</ele>
        <time>2014-07-01T10:21:58Z</time>
      </trkpt>
      <trkpt lat="59.9554263" lon="17.7153026">
        <ele>46.2806</ele>
        <time>2014-07-01T10:21:59Z</time>
      </trkpt>
      <trkpt lat="59.9554199" lon="17.7152455">
        <ele>46.2806</ele>
        <time>2014-07-01T10:22:00Z</time>
      </trkpt>
      <trkpt lat="59.9554112" lon="17.7151818">
        <ele>45.7999</ele>
        <time>2014-07-01T10:22:01Z</time>
      </trkpt>
      <trkpt lat="59.9554013" lon="17.7151203">
        <ele>45.3192</ele>
        <time>2014-07-01T10:22:02Z</time>
      </trkpt>
      <trkpt lat="59.9553879" lon="17.7150644">
        <ele>44.8386</ele>
        <time>2014-07-01T10:22:03Z</time>
      </trkpt>
      <trkpt lat="59.9553752" lon="17.7150182">
        <ele>44.8386</ele>
        <time>2014-07-01T10:22:04Z</time>
      </trkpt>
      <trkpt lat="59.9553617" lon="17.7149674">
        <ele>44.358</ele>
        <time>2014-07-01T10:22:05Z</time>
      </trkpt>
      <trkpt lat="59.9553516" lon="17.7149118">
        <ele>44.358</ele>
        <time>2014-07-01T10:22:06Z</time>
      </trkpt>
      <trkpt lat="59.9553402" lon="17.7148608">
        <ele>43.8773</ele>
        <time>2014-07-01T10:22:07Z</time>
      </trkpt>
      <trkpt lat="59.9553292" lon="17.7148089">
        <ele>43.3966</ele>
        <time>2014-07-01T10:22:08Z</time>
      </trkpt>
      <trkpt lat="59.9553261" lon="17.7147564">
        <ele>42.916</ele>
        <time>2014-07-01T10:22:09Z</time>
      </trkpt>
      <trkpt lat="59.9553208" lon="17.7147041">
        <ele>42.4354</ele>
        <time>2014-07-01T10:22:10Z</time>
      </trkpt>
      <trkpt lat="59.9553087" lon="17.71465">
        <ele>41.9547</ele>
        <time>2014-07-01T10:22:11Z</time>
      </trkpt>
      <trkpt lat="59.9552923" lon="17.7145959">
        <ele>41.9547</ele>
        <time>2014-07-01T10:22:12Z</time>
      </trkpt>
      <trkpt lat="59.955276" lon="17.7145451">
        <ele>42.4354</ele>
        <time>2014-07-01T10:22:13Z</time>
      </trkpt>
      <trkpt lat="59.9552635" lon="17.7144928">
        <ele>42.4354</ele>
        <time>2014-07-01T10:22:14Z</time>
      </trkpt>
      <trkpt lat="59.9552566" lon="17.714437">
        <ele>41.9547</ele>
        <time>2014-07-01T10:22:15Z</time>
      </trkpt>
      <trkpt lat="59.9552464" lon="17.7143826">
        <ele>41.9547</ele>
        <time>2014-07-01T10:22:16Z</time>
      </trkpt>
      <trkpt lat="59.9552361" lon="17.7143324">
        <ele>41.474</ele>
        <time>2014-07-01T10:22:17Z</time>
      </trkpt>
      <trkpt lat="59.9552255" lon="17.7142789">
        <ele>41.9547</ele>
        <time>2014-07-01T10:22:18Z</time>
      </trkpt>
      <trkpt lat="59.9552138" lon="17.7142312">
        <ele>42.916</ele>
        <time>2014-07-01T10:22:19Z</time>
      </trkpt>
      <trkpt lat="59.9551941" lon="17.7141879">
        <ele>43.3966</ele>
        <time>2014-07-01T10:22:20Z</time>
      </trkpt>
      <trkpt lat="59.9551697" lon="17.7141537">
        <ele>43.3966</ele>
        <time>2014-07-01T10:22:21Z</time>
      </trkpt>
      <trkpt lat="59.9551444" lon="17.7141411">
        <ele>43.3966</ele>
        <time>2014-07-01T10:22:22Z</time>
      </trkpt>
      <trkpt lat="59.9551232" lon="17.7141511">
        <ele>43.3966</ele>
        <time>2014-07-01T10:22:23Z</time>
      </trkpt>
      <trkpt lat="59.9551112" lon="17.714181">
        <ele>42.916</ele>
        <time>2014-07-01T10:22:24Z</time>
      </trkpt>
      <trkpt lat="59.9551067" lon="17.7142216">
        <ele>43.3966</ele>
        <time>2014-07-01T10:22:25Z</time>
      </trkpt>
      <trkpt lat="59.9551005" lon="17.7142609">
        <ele>43.8773</ele>
        <time>2014-07-01T10:22:26Z</time>
      </trkpt>
      <trkpt lat="59.9550883" lon="17.7142894">
        <ele>43.8773</ele>
        <time>2014-07-01T10:22:27Z</time>
      </trkpt>
      <trkpt lat="59.9550682" lon="17.7143092">
        <ele>44.8386</ele>
        <time>2014-07-01T10:22:28Z</time>
      </trkpt>
      <trkpt lat="59.955045" lon="17.714327">
        <ele>45.3192</ele>
        <time>2014-07-01T10:22:29Z</time>
      </trkpt>
      <trkpt lat="59.9550263" lon="17.714353">
        <ele>45.7999</ele>
        <time>2014-07-01T10:22:30Z</time>
      </trkpt>
      <trkpt lat="59.9550071" lon="17.7143795">
        <ele>45.3192</ele>
        <time>2014-07-01T10:22:31Z</time>
      </trkpt>
      <trkpt lat="59.9549857" lon="17.7144062">
        <ele>43.8773</ele>
        <time>2014-07-01T10:22:32Z</time>
      </trkpt>
      <trkpt lat="59.9549662" lon="17.7144431">
        <ele>43.8773</ele>
        <time>2014-07-01T10:22:33Z</time>
      </trkpt>
      <trkpt lat="59.9549444" lon="17.7144773">
        <ele>44.358</ele>
        <time>2014-07-01T10:22:34Z</time>
      </trkpt>
      <trkpt lat="59.9549214" lon="17.7145156">
        <ele>43.8773</ele>
        <time>2014-07-01T10:22:35Z</time>
      </trkpt>
      <trkpt lat="59.9548956" lon="17.7145508">
        <ele>43.8773</ele>
        <time>2014-07-01T10:22:36Z</time>
      </trkpt>
      <trkpt lat="59.9548803" lon="17.7145917">
        <ele>44.8386</ele>
        <time>2014-07-01T10:22:37Z</time>
      </trkpt>
      <trkpt lat="59.9548631" lon="17.7146264">
        <ele>45.3192</ele>
        <time>2014-07-01T10:22:38Z</time>
      </trkpt>
      <trkpt lat="59.954837" lon="17.7146495">
        <ele>45.3192</ele>
        <time>2014-07-01T10:22:39Z</time>
      </trkpt>
      <trkpt lat="59.9548111" lon="17.7146764">
        <ele>45.3192</ele>
        <time>2014-07-01T10:22:40Z</time>
      </trkpt>
      <trkpt lat="59.9547817" lon="17.7146981">
        <ele>44.8386</ele>
        <time>2014-07-01T10:22:41Z</time>
      </trkpt>
      <trkpt lat="59.9547569" lon="17.7147075">
        <ele>46.2806</ele>
        <time>2014-07-01T10:22:42Z</time>
      </trkpt>
      <trkpt lat="59.9547319" lon="17.7147135">
        <ele>46.7612</ele>
        <time>2014-07-01T10:22:43Z</time>
      </trkpt>
      <trkpt lat="59.954702" lon="17.7147271">
        <ele>47.2418</ele>
        <time>2014-07-01T10:22:44Z</time>
      </trkpt>
      <trkpt lat="59.954672" lon="17.7147385">
        <ele>48.2034</ele>
        <time>2014-07-01T10:22:45Z</time>
      </trkpt>
      <trkpt lat="59.954643" lon="17.7147445">
        <ele>49.1646</ele>
        <time>2014-07-01T10:22:46Z</time>
      </trkpt>
      <trkpt lat="59.954612" lon="17.7147494">
        <ele>49.6453</ele>
        <time>2014-07-01T10:22:47Z</time>
      </trkpt>
      <trkpt lat="59.9545814" lon="17.7147535">
        <ele>50.126</ele>
        <time>2014-07-01T10:22:48Z</time>
      </trkpt>
      <trkpt lat="59.9545478" lon="17.7147596">
        <ele>50.6066</ele>
        <time>2014-07-01T10:22:49Z</time>
      </trkpt>
      <trkpt lat="59.954516" lon="17.7147653">
        <ele>51.5679</ele>
        <time>2014-07-01T10:22:50Z</time>
      </trkpt>
      <trkpt lat="59.9544876" lon="17.7147701">
        <ele>51.5679</ele>
        <time>2014-07-01T10:22:51Z</time>
      </trkpt>
      <trkpt lat="59.9544626" lon="17.7147706">
        <ele>52.0486</ele>
        <time>2014-07-01T10:22:52Z</time>
      </trkpt>
      <trkpt lat="59.9544345" lon="17.7147769">
        <ele>52.0486</ele>
        <time>2014-07-01T10:22:53Z</time>
      </trkpt>
      <trkpt lat="59.9544057" lon="17.7147767">
        <ele>53.0098</ele>
        <time>2014-07-01T10:22:54Z</time>
      </trkpt>
      <trkpt lat="59.9543777" lon="17.714769">
        <ele>53.0098</ele>
        <time>2014-07-01T10:22:55Z</time>
      </trkpt>
      <trkpt lat="59.9543534" lon="17.7147699">
        <ele>55.4131</ele>
        <time>2014-07-01T10:22:56Z</time>
      </trkpt>
      <trkpt lat="59.9543306" lon="17.7147675">
        <ele>55.8938</ele>
        <time>2014-07-01T10:22:57Z</time>
      </trkpt>
      <trkpt lat="59.9543047" lon="17.714767">
        <ele>55.4131</ele>
        <time>2014-07-01T10:22:58Z</time>
      </trkpt>
      <trkpt lat="59.954276" lon="17.7147731">
        <ele>55.8938</ele>
        <time>2014-07-01T10:22:59Z</time>
      </trkpt>
      <trkpt lat="59.954248" lon="17.7147794">
        <ele>56.3745</ele>
        <time>2014-07-01T10:23:00Z</time>
      </trkpt>
      <trkpt lat="59.9542214" lon="17.7147815">
        <ele>57.3358</ele>
        <time>2014-07-01T10:23:01Z</time>
      </trkpt>
      <trkpt lat="59.9541945" lon="17.7147865">
        <ele>58.2971</ele>
        <time>2014-07-01T10:23:02Z</time>
      </trkpt>
      <trkpt lat="59.9541711" lon="17.7148005">
        <ele>58.2971</ele>
        <time>2014-07-01T10:23:03Z</time>
      </trkpt>
      <trkpt lat="59.9541508" lon="17.714826">
        <ele>59.2584</ele>
        <time>2014-07-01T10:23:04Z</time>
      </trkpt>
      <trkpt lat="59.954127" lon="17.7148478">
        <ele>60.7003</ele>
        <time>2014-07-01T10:23:05Z</time>
      </trkpt>
      <trkpt lat="59.9541025" lon="17.7148706">
        <ele>61.6617</ele>
        <time>2014-07-01T10:23:06Z</time>
      </trkpt>
      <trkpt lat="59.9540769" lon="17.7148833">
        <ele>62.6229</ele>
        <time>2014-07-01T10:23:07Z</time>
      </trkpt>
      <trkpt lat="59.9540527" lon="17.7148918">
        <ele>63.1036</ele>
        <time>2014-07-01T10:23:08Z</time>
      </trkpt>
      <trkpt lat="59.954028" lon="17.7149014">
        <ele>63.5844</ele>
        <time>2014-07-01T10:23:09Z</time>
      </trkpt>
      <trkpt lat="59.9540012" lon="17.7149177">
        <ele>64.5457</ele>
        <time>2014-07-01T10:23:10Z</time>
      </trkpt>
      <trkpt lat="59.9539722" lon="17.7149239">
        <ele>63.5844</ele>
        <time>2014-07-01T10:23:11Z</time>
      </trkpt>
      <trkpt lat="59.9539427" lon="17.7149286">
        <ele>62.6229</ele>
        <time>2014-07-01T10:23:12Z</time>
      </trkpt>
      <trkpt lat="59.9539172" lon="17.714938">
        <ele>62.6229</ele>
        <time>2014-07-01T10:23:13Z</time>
      </trkpt>
      <trkpt lat="59.9538925" lon="17.7149436">
        <ele>62.1423</ele>
        <time>2014-07-01T10:23:14Z</time>
      </trkpt>
      <trkpt lat="59.9538684" lon="17.7149489">
        <ele>61.6617</ele>
        <time>2014-07-01T10:23:15Z</time>
      </trkpt>
      <trkpt lat="59.9538457" lon="17.7149482">
        <ele>60.7003</ele>
        <time>2014-07-01T10:23:16Z</time>
      </trkpt>
      <trkpt lat="59.9538251" lon="17.7149413">
        <ele>60.2197</ele>
        <time>2014-07-01T10:23:17Z</time>
      </trkpt>
      <trkpt lat="59.9537986" lon="17.7149375">
        <ele>59.2584</ele>
        <time>2014-07-01T10:23:18Z</time>
      </trkpt>
      <trkpt lat="59.9537707" lon="17.7149458">
        <ele>59.7391</ele>
        <time>2014-07-01T10:23:19Z</time>
      </trkpt>
      <trkpt lat="59.9537494" lon="17.7149565">
        <ele>59.7391</ele>
        <time>2014-07-01T10:23:20Z</time>
      </trkpt>
      <trkpt lat="59.9537222" lon="17.7149711">
        <ele>61.181</ele>
        <time>2014-07-01T10:23:21Z</time>
      </trkpt>
      <trkpt lat="59.9536966" lon="17.7149913">
        <ele>62.1423</ele>
        <time>2014-07-01T10:23:22Z</time>
      </trkpt>
      <trkpt lat="59.9536728" lon="17.7150032">
        <ele>61.181</ele>
        <time>2014-07-01T10:23:23Z</time>
      </trkpt>
      <trkpt lat="59.9536492" lon="17.7150177">
        <ele>61.6617</ele>
        <time>2014-07-01T10:23:24Z</time>
      </trkpt>
      <trkpt lat="59.9536292" lon="17.7150219">
        <ele>61.181</ele>
        <time>2014-07-01T10:23:25Z</time>
      </trkpt>
      <trkpt lat="59.9536038" lon="17.7150311">
        <ele>62.1423</ele>
        <time>2014-07-01T10:23:26Z</time>
      </trkpt>
      <trkpt lat="59.953581" lon="17.7150471">
        <ele>62.1423</ele>
        <time>2014-07-01T10:23:27Z</time>
      </trkpt>
      <trkpt lat="59.9535562" lon="17.7150736">
        <ele>61.6617</ele>
        <time>2014-07-01T10:23:28Z</time>
      </trkpt>
      <trkpt lat="59.9535323" lon="17.7151104">
        <ele>62.6229</ele>
        <time>2014-07-01T10:23:29Z</time>
      </trkpt>
      <trkpt lat="59.9535141" lon="17.7151345">
        <ele>63.1036</ele>
        <time>2014-07-01T10:23:30Z</time>
      </trkpt>
      <trkpt lat="59.9534926" lon="17.7151648">
        <ele>64.0651</ele>
        <time>2014-07-01T10:23:31Z</time>
      </trkpt>
      <trkpt lat="59.9534712" lon="17.7151876">
        <ele>65.0264</ele>
        <time>2014-07-01T10:23:32Z</time>
      </trkpt>
      <trkpt lat="59.9534475" lon="17.7152052">
        <ele>65.5071</ele>
        <time>2014-07-01T10:23:33Z</time>
      </trkpt>
      <trkpt lat="59.9534304" lon="17.715228">
        <ele>65.5071</ele>
        <time>2014-07-01T10:23:34Z</time>
      </trkpt>
      <trkpt lat="59.9534161" lon="17.7152511">
        <ele>64.0651</ele>
        <time>2014-07-01T10:23:35Z</time>
      </trkpt>
      <trkpt lat="59.9534032" lon="17.715282">
        <ele>63.5844</ele>
        <time>2014-07-01T10:23:36Z</time>
      </trkpt>
      <trkpt lat="59.9533848" lon="17.7153201">
        <ele>62.6229</ele>
        <time>2014-07-01T10:23:37Z</time>
      </trkpt>
      <trkpt lat="59.9533638" lon="17.7153581">
        <ele>61.181</ele>
        <time>2014-07-01T10:23:38Z</time>
      </trkpt>
      <trkpt lat="59.9533448" lon="17.715392">
        <ele>60.7003</ele>
        <time>2014-07-01T10:23:39Z</time>
      </trkpt>
      <trkpt lat="59.9533266" lon="17.7154283">
        <ele>60.7003</ele>
        <time>2014-07-01T10:23:40Z</time>
      </trkpt>
      <trkpt lat="59.9533065" lon="17.7154726">
        <ele>60.2197</ele>
        <time>2014-07-01T10:23:41Z</time>
      </trkpt>
      <trkpt lat="59.9532805" lon="17.7155194">
        <ele>60.7003</ele>
        <time>2014-07-01T10:23:42Z</time>
      </trkpt>
      <trkpt lat="59.9532527" lon="17.7155631">
        <ele>61.6617</ele>
        <time>2014-07-01T10:23:43Z</time>
      </trkpt>
      <trkpt lat="59.953226" lon="17.7155958">
        <ele>62.1423</ele>
        <time>2014-07-01T10:23:44Z</time>
      </trkpt>
      <trkpt lat="59.9531993" lon="17.7156263">
        <ele>62.6229</ele>
        <time>2014-07-01T10:23:45Z</time>
      </trkpt>
      <trkpt lat="59.9531764" lon="17.7156686">
        <ele>63.5844</ele>
        <time>2014-07-01T10:23:46Z</time>
      </trkpt>
      <trkpt lat="59.9531568" lon="17.7157158">
        <ele>65.0264</ele>
        <time>2014-07-01T10:23:47Z</time>
      </trkpt>
      <trkpt lat="59.9531335" lon="17.7157609">
        <ele>65.9877</ele>
        <time>2014-07-01T10:23:48Z</time>
      </trkpt>
      <trkpt lat="59.953109" lon="17.7157872">
        <ele>65.5071</ele>
        <time>2014-07-01T10:23:49Z</time>
      </trkpt>
      <trkpt lat="59.9530843" lon="17.7158278">
        <ele>66.949</ele>
        <time>2014-07-01T10:23:50Z</time>
      </trkpt>
      <trkpt lat="59.9530635" lon="17.7158682">
        <ele>68.3909</ele>
        <time>2014-07-01T10:23:51Z</time>
      </trkpt>
      <trkpt lat="59.9530497" lon="17.7159072">
        <ele>68.3909</ele>
        <time>2014-07-01T10:23:52Z</time>
      </trkpt>
      <trkpt lat="59.9530365" lon="17.7159536">
        <ele>66.949</ele>
        <time>2014-07-01T10:23:53Z</time>
      </trkpt>
      <trkpt lat="59.9530242" lon="17.7160058">
        <ele>65.5071</ele>
        <time>2014-07-01T10:23:54Z</time>
      </trkpt>
      <trkpt lat="59.9530112" lon="17.716054">
        <ele>63.1036</ele>
        <time>2014-07-01T10:23:55Z</time>
      </trkpt>
      <trkpt lat="59.9529997" lon="17.7161039">
        <ele>60.7003</ele>
        <time>2014-07-01T10:23:56Z</time>
      </trkpt>
      <trkpt lat="59.9529906" lon="17.7161563">
        <ele>58.7777</ele>
        <time>2014-07-01T10:23:57Z</time>
      </trkpt>
      <trkpt lat="59.9529818" lon="17.7162085">
        <ele>58.2971</ele>
        <time>2014-07-01T10:23:58Z</time>
      </trkpt>
      <trkpt lat="59.9529701" lon="17.7162564">
        <ele>56.8551</ele>
        <time>2014-07-01T10:23:59Z</time>
      </trkpt>
      <trkpt lat="59.9529599" lon="17.7163025">
        <ele>56.3745</ele>
        <time>2014-07-01T10:24:00Z</time>
      </trkpt>
      <trkpt lat="59.9529507" lon="17.7163448">
        <ele>55.4131</ele>
        <time>2014-07-01T10:24:01Z</time>
      </trkpt>
      <trkpt lat="59.9529385" lon="17.7163898">
        <ele>54.4518</ele>
        <time>2014-07-01T10:24:02Z</time>
      </trkpt>
      <trkpt lat="59.9529266" lon="17.7164303">
        <ele>54.4518</ele>
        <time>2014-07-01T10:24:03Z</time>
      </trkpt>
      <trkpt lat="59.952921" lon="17.7164669">
        <ele>53.4905</ele>
        <time>2014-07-01T10:24:04Z</time>
      </trkpt>
      <trkpt lat="59.952919" lon="17.7165111">
        <ele>53.4905</ele>
        <time>2014-07-01T10:24:05Z</time>
      </trkpt>
      <trkpt lat="59.9529183" lon="17.7165603">
        <ele>52.5292</ele>
        <time>2014-07-01T10:24:06Z</time>
      </trkpt>
      <trkpt lat="59.9529206" lon="17.7166105">
        <ele>52.0486</ele>
        <time>2014-07-01T10:24:07Z</time>
      </trkpt>
      <trkpt lat="59.952922" lon="17.7166606">
        <ele>52.5292</ele>
        <time>2014-07-01T10:24:08Z</time>
      </trkpt>
      <trkpt lat="59.9529209" lon="17.7167069">
        <ele>52.0486</ele>
        <time>2014-07-01T10:24:09Z</time>
      </trkpt>
      <trkpt lat="59.9529165" lon="17.7167581">
        <ele>51.0872</ele>
        <time>2014-07-01T10:24:10Z</time>
      </trkpt>
      <trkpt lat="59.9529174" lon="17.7168147">
        <ele>50.6066</ele>
        <time>2014-07-01T10:24:11Z</time>
      </trkpt>
      <trkpt lat="59.9529199" lon="17.7168644">
        <ele>50.126</ele>
        <time>2014-07-01T10:24:12Z</time>
      </trkpt>
      <trkpt lat="59.9529191" lon="17.7169115">
        <ele>49.6453</ele>
        <time>2014-07-01T10:24:13Z</time>
      </trkpt>
      <trkpt lat="59.9529152" lon="17.7169667">
        <ele>49.1646</ele>
        <time>2014-07-01T10:24:14Z</time>
      </trkpt>
      <trkpt lat="59.9529079" lon="17.7170245">
        <ele>48.684</ele>
        <time>2014-07-01T10:24:15Z</time>
      </trkpt>
      <trkpt lat="59.9529056" lon="17.7170731">
        <ele>48.2034</ele>
        <time>2014-07-01T10:24:16Z</time>
      </trkpt>
      <trkpt lat="59.9529005" lon="17.7171237">
        <ele>47.7225</ele>
        <time>2014-07-01T10:24:17Z</time>
      </trkpt>
      <trkpt lat="59.9528924" lon="17.7171712">
        <ele>48.2034</ele>
        <time>2014-07-01T10:24:18Z</time>
      </trkpt>
      <trkpt lat="59.9528833" lon="17.7172197">
        <ele>47.7225</ele>
        <time>2014-07-01T10:24:19Z</time>
      </trkpt>
      <trkpt lat="59.9528719" lon="17.7172709">
        <ele>47.2418</ele>
        <time>2014-07-01T10:24:20Z</time>
      </trkpt>
      <trkpt lat="59.9528595" lon="17.7173203">
        <ele>47.2418</ele>
        <time>2014-07-01T10:24:21Z</time>
      </trkpt>
      <trkpt lat="59.9528471" lon="17.7173607">
        <ele>47.2418</ele>
        <time>2014-07-01T10:24:22Z</time>
      </trkpt>
      <trkpt lat="59.9528347" lon="17.7174083">
        <ele>47.7225</ele>
        <time>2014-07-01T10:24:23Z</time>
      </trkpt>
      <trkpt lat="59.9528197" lon="17.717455">
        <ele>47.7225</ele>
        <time>2014-07-01T10:24:24Z</time>
      </trkpt>
      <trkpt lat="59.9528066" lon="17.7174942">
        <ele>47.7225</ele>
        <time>2014-07-01T10:24:25Z</time>
      </trkpt>
      <trkpt lat="59.9527971" lon="17.717529">
        <ele>48.2034</ele>
        <time>2014-07-01T10:24:26Z</time>
      </trkpt>
      <trkpt lat="59.9527864" lon="17.7175643">
        <ele>47.7225</ele>
        <time>2014-07-01T10:24:27Z</time>
      </trkpt>
      <trkpt lat="59.9527729" lon="17.7176093">
        <ele>48.2034</ele>
        <time>2014-07-01T10:24:28Z</time>
      </trkpt>
      <trkpt lat="59.9527559" lon="17.7176545">
        <ele>48.684</ele>
        <time>2014-07-01T10:24:29Z</time>
      </trkpt>
      <trkpt lat="59.9527386" lon="17.717701">
        <ele>48.2034</ele>
        <time>2014-07-01T10:24:30Z</time>
      </trkpt>
      <trkpt lat="59.9527252" lon="17.7177401">
        <ele>47.7225</ele>
        <time>2014-07-01T10:24:31Z</time>
      </trkpt>
      <trkpt lat="59.9527112" lon="17.7177809">
        <ele>47.7225</ele>
        <time>2014-07-01T10:24:32Z</time>
      </trkpt>
      <trkpt lat="59.9526967" lon="17.7178315">
        <ele>47.7225</ele>
        <time>2014-07-01T10:24:33Z</time>
      </trkpt>
      <trkpt lat="59.9526859" lon="17.7178724">
        <ele>47.2418</ele>
        <time>2014-07-01T10:24:34Z</time>
      </trkpt>
      <trkpt lat="59.9526712" lon="17.7179071">
        <ele>47.2418</ele>
        <time>2014-07-01T10:24:35Z</time>
      </trkpt>
      <trkpt lat="59.9526565" lon="17.7179387">
        <ele>47.2418</ele>
        <time>2014-07-01T10:24:36Z</time>
      </trkpt>
      <trkpt lat="59.9526418" lon="17.7179723">
        <ele>47.2418</ele>
        <time>2014-07-01T10:24:37Z</time>
      </trkpt>
      <trkpt lat="59.9526279" lon="17.7180194">
        <ele>48.2034</ele>
        <time>2014-07-01T10:24:38Z</time>
      </trkpt>
      <trkpt lat="59.9526196" lon="17.7180558">
        <ele>49.1646</ele>
        <time>2014-07-01T10:24:39Z</time>
      </trkpt>
      <trkpt lat="59.9526118" lon="17.7180853">
        <ele>50.126</ele>
        <time>2014-07-01T10:24:40Z</time>
      </trkpt>
      <trkpt lat="59.9526014" lon="17.7181202">
        <ele>51.0872</ele>
        <time>2014-07-01T10:24:41Z</time>
      </trkpt>
      <trkpt lat="59.9525907" lon="17.7181492">
        <ele>50.6066</ele>
        <time>2014-07-01T10:24:42Z</time>
      </trkpt>
      <trkpt lat="59.9525797" lon="17.7181794">
        <ele>51.0872</ele>
        <time>2014-07-01T10:24:43Z</time>
      </trkpt>
      <trkpt lat="59.9525683" lon="17.7182115">
        <ele>50.6066</ele>
        <time>2014-07-01T10:24:44Z</time>
      </trkpt>
      <trkpt lat="59.9525583" lon="17.7182563">
        <ele>48.684</ele>
        <time>2014-07-01T10:24:45Z</time>
      </trkpt>
      <trkpt lat="59.9525491" lon="17.7183018">
        <ele>48.684</ele>
        <time>2014-07-01T10:24:46Z</time>
      </trkpt>
      <trkpt lat="59.9525409" lon="17.7183507">
        <ele>49.1646</ele>
        <time>2014-07-01T10:24:47Z</time>
      </trkpt>
      <trkpt lat="59.9525329" lon="17.7184003">
        <ele>48.2034</ele>
        <time>2014-07-01T10:24:48Z</time>
      </trkpt>
      <trkpt lat="59.9525244" lon="17.7184527">
        <ele>47.2418</ele>
        <time>2014-07-01T10:24:49Z</time>
      </trkpt>
      <trkpt lat="59.952516" lon="17.7184972">
        <ele>47.7225</ele>
        <time>2014-07-01T10:24:50Z</time>
      </trkpt>
      <trkpt lat="59.9525132" lon="17.7185443">
        <ele>48.2034</ele>
        <time>2014-07-01T10:24:51Z</time>
      </trkpt>
      <trkpt lat="59.9525096" lon="17.7186054">
        <ele>48.2034</ele>
        <time>2014-07-01T10:24:52Z</time>
      </trkpt>
      <trkpt lat="59.9525031" lon="17.718671">
        <ele>48.2034</ele>
        <time>2014-07-01T10:24:53Z</time>
      </trkpt>
      <trkpt lat="59.9524959" lon="17.7187228">
        <ele>48.2034</ele>
        <time>2014-07-01T10:24:54Z</time>
      </trkpt>
      <trkpt lat="59.9524876" lon="17.7187682">
        <ele>48.2034</ele>
        <time>2014-07-01T10:24:55Z</time>
      </trkpt>
      <trkpt lat="59.9524749" lon="17.7188162">
        <ele>48.2034</ele>
        <time>2014-07-01T10:24:56Z</time>
      </trkpt>
      <trkpt lat="59.9524579" lon="17.7188686">
        <ele>48.684</ele>
        <time>2014-07-01T10:24:57Z</time>
      </trkpt>
      <trkpt lat="59.9524434" lon="17.718915">
        <ele>49.1646</ele>
        <time>2014-07-01T10:24:58Z</time>
      </trkpt>
      <trkpt lat="59.9524334" lon="17.718963">
        <ele>48.684</ele>
        <time>2014-07-01T10:24:59Z</time>
      </trkpt>
      <trkpt lat="59.9524252" lon="17.7190126">
        <ele>48.684</ele>
        <time>2014-07-01T10:25:00Z</time>
      </trkpt>
      <trkpt lat="59.9524195" lon="17.7190621">
        <ele>48.684</ele>
        <time>2014-07-01T10:25:01Z</time>
      </trkpt>
      <trkpt lat="59.9524181" lon="17.7191013">
        <ele>49.1646</ele>
        <time>2014-07-01T10:25:02Z</time>
      </trkpt>
      <trkpt lat="59.952416" lon="17.7191493">
        <ele>50.126</ele>
        <time>2014-07-01T10:25:03Z</time>
      </trkpt>
      <trkpt lat="59.9524192" lon="17.7192033">
        <ele>50.6066</ele>
        <time>2014-07-01T10:25:04Z</time>
      </trkpt>
      <trkpt lat="59.9524232" lon="17.7192603">
        <ele>51.0872</ele>
        <time>2014-07-01T10:25:05Z</time>
      </trkpt>
      <trkpt lat="59.9524248" lon="17.7193134">
        <ele>51.0872</ele>
        <time>2014-07-01T10:25:06Z</time>
      </trkpt>
      <trkpt lat="59.9524234" lon="17.7193626">
        <ele>51.0872</ele>
        <time>2014-07-01T10:25:07Z</time>
      </trkpt>
      <trkpt lat="59.9524231" lon="17.7194186">
        <ele>52.0486</ele>
        <time>2014-07-01T10:25:08Z</time>
      </trkpt>
      <trkpt lat="59.9524255" lon="17.7194762">
        <ele>52.0486</ele>
        <time>2014-07-01T10:25:09Z</time>
      </trkpt>
      <trkpt lat="59.9524312" lon="17.7195275">
        <ele>52.0486</ele>
        <time>2014-07-01T10:25:10Z</time>
      </trkpt>
      <trkpt lat="59.9524404" lon="17.7195714">
        <ele>52.5292</ele>
        <time>2014-07-01T10:25:11Z</time>
      </trkpt>
      <trkpt lat="59.9524526" lon="17.7196216">
        <ele>53.0098</ele>
        <time>2014-07-01T10:25:12Z</time>
      </trkpt>
      <trkpt lat="59.9524658" lon="17.7196668">
        <ele>53.9712</ele>
        <time>2014-07-01T10:25:13Z</time>
      </trkpt>
      <trkpt lat="59.9524798" lon="17.7197175">
        <ele>54.9324</ele>
        <time>2014-07-01T10:25:14Z</time>
      </trkpt>
      <trkpt lat="59.9524938" lon="17.7197642">
        <ele>55.8938</ele>
        <time>2014-07-01T10:25:15Z</time>
      </trkpt>
      <trkpt lat="59.952503" lon="17.7198113">
        <ele>56.3745</ele>
        <time>2014-07-01T10:25:16Z</time>
      </trkpt>
      <trkpt lat="59.952515" lon="17.7198591">
        <ele>57.8165</ele>
        <time>2014-07-01T10:25:17Z</time>
      </trkpt>
      <trkpt lat="59.952521" lon="17.7199073">
        <ele>57.8165</ele>
        <time>2014-07-01T10:25:18Z</time>
      </trkpt>
      <trkpt lat="59.9525184" lon="17.7199567">
        <ele>57.8165</ele>
        <time>2014-07-01T10:25:19Z</time>
      </trkpt>
      <trkpt lat="59.9525212" lon="17.7200072">
        <ele>57.8165</ele>
        <time>2014-07-01T10:25:20Z</time>
      </trkpt>
      <trkpt lat="59.9525269" lon="17.7200617">
        <ele>58.2971</ele>
        <time>2014-07-01T10:25:21Z</time>
      </trkpt>
      <trkpt lat="59.9525246" lon="17.7201171">
        <ele>58.7777</ele>
        <time>2014-07-01T10:25:22Z</time>
      </trkpt>
      <trkpt lat="59.952531" lon="17.7201663">
        <ele>59.7391</ele>
        <time>2014-07-01T10:25:23Z</time>
      </trkpt>
      <trkpt lat="59.9525378" lon="17.7202195">
        <ele>60.2197</ele>
        <time>2014-07-01T10:25:24Z</time>
      </trkpt>
      <trkpt lat="59.9525383" lon="17.7202732">
        <ele>60.2197</ele>
        <time>2014-07-01T10:25:25Z</time>
      </trkpt>
      <trkpt lat="59.9525387" lon="17.7203366">
        <ele>60.7003</ele>
        <time>2014-07-01T10:25:26Z</time>
      </trkpt>
      <trkpt lat="59.9525438" lon="17.7203927">
        <ele>60.7003</ele>
        <time>2014-07-01T10:25:27Z</time>
      </trkpt>
      <trkpt lat="59.9525479" lon="17.7204453">
        <ele>60.7003</ele>
        <time>2014-07-01T10:25:28Z</time>
      </trkpt>
      <trkpt lat="59.9525526" lon="17.7205006">
        <ele>61.181</ele>
        <time>2014-07-01T10:25:29Z</time>
      </trkpt>
      <trkpt lat="59.9525507" lon="17.7205535">
        <ele>61.181</ele>
        <time>2014-07-01T10:25:30Z</time>
      </trkpt>
      <trkpt lat="59.9525528" lon="17.7206054">
        <ele>61.181</ele>
        <time>2014-07-01T10:25:31Z</time>
      </trkpt>
      <trkpt lat="59.9525554" lon="17.7206574">
        <ele>61.181</ele>
        <time>2014-07-01T10:25:32Z</time>
      </trkpt>
      <trkpt lat="59.9525593" lon="17.7207162">
        <ele>60.7003</ele>
        <time>2014-07-01T10:25:33Z</time>
      </trkpt>
      <trkpt lat="59.9525669" lon="17.7207762">
        <ele>60.7003</ele>
        <time>2014-07-01T10:25:34Z</time>
      </trkpt>
      <trkpt lat="59.9525647" lon="17.7208262">
        <ele>60.2197</ele>
        <time>2014-07-01T10:25:35Z</time>
      </trkpt>
      <trkpt lat="59.952566" lon="17.7208738">
        <ele>60.2197</ele>
        <time>2014-07-01T10:25:36Z</time>
      </trkpt>
      <trkpt lat="59.9525731" lon="17.7209292">
        <ele>59.7391</ele>
        <time>2014-07-01T10:25:37Z</time>
      </trkpt>
      <trkpt lat="59.9525756" lon="17.7209791">
        <ele>60.7003</ele>
        <time>2014-07-01T10:25:38Z</time>
      </trkpt>
      <trkpt lat="59.9525735" lon="17.7210245">
        <ele>61.181</ele>
        <time>2014-07-01T10:25:39Z</time>
      </trkpt>
      <trkpt lat="59.95257" lon="17.7210727">
        <ele>61.6617</ele>
        <time>2014-07-01T10:25:40Z</time>
      </trkpt>
      <trkpt lat="59.9525707" lon="17.7211243">
        <ele>61.181</ele>
        <time>2014-07-01T10:25:41Z</time>
      </trkpt>
      <trkpt lat="59.9525679" lon="17.7211797">
        <ele>62.1423</ele>
        <time>2014-07-01T10:25:42Z</time>
      </trkpt>
      <trkpt lat="59.9525653" lon="17.7212341">
        <ele>61.6617</ele>
        <time>2014-07-01T10:25:43Z</time>
      </trkpt>
      <trkpt lat="59.9525604" lon="17.7212835">
        <ele>61.181</ele>
        <time>2014-07-01T10:25:44Z</time>
      </trkpt>
      <trkpt lat="59.9525547" lon="17.7213249">
        <ele>61.6617</ele>
        <time>2014-07-01T10:25:45Z</time>
      </trkpt>
      <trkpt lat="59.95255" lon="17.7213616">
        <ele>61.181</ele>
        <time>2014-07-01T10:25:46Z</time>
      </trkpt>
      <trkpt lat="59.9525488" lon="17.7214063">
        <ele>61.181</ele>
        <time>2014-07-01T10:25:47Z</time>
      </trkpt>
      <trkpt lat="59.9525476" lon="17.721455">
        <ele>62.1423</ele>
        <time>2014-07-01T10:25:48Z</time>
      </trkpt>
      <trkpt lat="59.9525466" lon="17.721504">
        <ele>62.1423</ele>
        <time>2014-07-01T10:25:49Z</time>
      </trkpt>
      <trkpt lat="59.9525496" lon="17.7215576">
        <ele>62.6229</ele>
        <time>2014-07-01T10:25:50Z</time>
      </trkpt>
      <trkpt lat="59.9525559" lon="17.7216087">
        <ele>63.1036</ele>
        <time>2014-07-01T10:25:51Z</time>
      </trkpt>
      <trkpt lat="59.9525647" lon="17.721658">
        <ele>62.6229</ele>
        <time>2014-07-01T10:25:52Z</time>
      </trkpt>
      <trkpt lat="59.9525679" lon="17.7217068">
        <ele>62.6229</ele>
        <time>2014-07-01T10:25:53Z</time>
      </trkpt>
      <trkpt lat="59.9525745" lon="17.7217558">
        <ele>63.1036</ele>
        <time>2014-07-01T10:25:54Z</time>
      </trkpt>
      <trkpt lat="59.9525835" lon="17.7218022">
        <ele>62.1423</ele>
        <time>2014-07-01T10:25:55Z</time>
      </trkpt>
      <trkpt lat="59.9525892" lon="17.7218552">
        <ele>62.1423</ele>
        <time>2014-07-01T10:25:56Z</time>
      </trkpt>
      <trkpt lat="59.9525927" lon="17.7219071">
        <ele>62.1423</ele>
        <time>2014-07-01T10:25:57Z</time>
      </trkpt>
      <trkpt lat="59.9525982" lon="17.7219609">
        <ele>61.181</ele>
        <time>2014-07-01T10:25:58Z</time>
      </trkpt>
      <trkpt lat="59.9526014" lon="17.7220103">
        <ele>60.2197</ele>
        <time>2014-07-01T10:25:59Z</time>
      </trkpt>
      <trkpt lat="59.9525976" lon="17.7220607">
        <ele>59.7391</ele>
        <time>2014-07-01T10:26:00Z</time>
      </trkpt>
      <trkpt lat="59.9525859" lon="17.722117">
        <ele>59.2584</ele>
        <time>2014-07-01T10:26:01Z</time>
      </trkpt>
      <trkpt lat="59.9525761" lon="17.722171">
        <ele>58.2971</ele>
        <time>2014-07-01T10:26:02Z</time>
      </trkpt>
      <trkpt lat="59.9525693" lon="17.7222269">
        <ele>58.2971</ele>
        <time>2014-07-01T10:26:03Z</time>
      </trkpt>
      <trkpt lat="59.9525624" lon="17.7222854">
        <ele>58.2971</ele>
        <time>2014-07-01T10:26:04Z</time>
      </trkpt>
      <trkpt lat="59.9525602" lon="17.7223408">
        <ele>56.8551</ele>
        <time>2014-07-01T10:26:05Z</time>
      </trkpt>
      <trkpt lat="59.9525541" lon="17.7223991">
        <ele>56.3745</ele>
        <time>2014-07-01T10:26:06Z</time>
      </trkpt>
      <trkpt lat="59.9525481" lon="17.7224495">
        <ele>55.4131</ele>
        <time>2014-07-01T10:26:07Z</time>
      </trkpt>
      <trkpt lat="59.9525428" lon="17.7224844">
        <ele>55.4131</ele>
        <time>2014-07-01T10:26:08Z</time>
      </trkpt>
      <trkpt lat="59.9525401" lon="17.722536">
        <ele>54.9324</ele>
        <time>2014-07-01T10:26:09Z</time>
      </trkpt>
      <trkpt lat="59.952532" lon="17.7225926">
        <ele>54.4518</ele>
        <time>2014-07-01T10:26:10Z</time>
      </trkpt>
      <trkpt lat="59.9525317" lon="17.7226532">
        <ele>53.9712</ele>
        <time>2014-07-01T10:26:11Z</time>
      </trkpt>
      <trkpt lat="59.9525321" lon="17.7227018">
        <ele>53.9712</ele>
        <time>2014-07-01T10:26:12Z</time>
      </trkpt>
      <trkpt lat="59.9525282" lon="17.7227474">
        <ele>53.0098</ele>
        <time>2014-07-01T10:26:13Z</time>
      </trkpt>
      <trkpt lat="59.9525251" lon="17.7228017">
        <ele>53.9712</ele>
        <time>2014-07-01T10:26:14Z</time>
      </trkpt>
      <trkpt lat="59.9525228" lon="17.7228557">
        <ele>54.9324</ele>
        <time>2014-07-01T10:26:15Z</time>
      </trkpt>
      <trkpt lat="59.9525223" lon="17.7229037">
        <ele>55.4131</ele>
        <time>2014-07-01T10:26:16Z</time>
      </trkpt>
      <trkpt lat="59.9525283" lon="17.7229546">
        <ele>56.3745</ele>
        <time>2014-07-01T10:26:17Z</time>
      </trkpt>
      <trkpt lat="59.9525352" lon="17.7230097">
        <ele>56.8551</ele>
        <time>2014-07-01T10:26:18Z</time>
      </trkpt>
      <trkpt lat="59.9525417" lon="17.7230653">
        <ele>57.3358</ele>
        <time>2014-07-01T10:26:19Z</time>
      </trkpt>
      <trkpt lat="59.9525461" lon="17.7231163">
        <ele>57.3358</ele>
        <time>2014-07-01T10:26:20Z</time>
      </trkpt>
      <trkpt lat="59.9525496" lon="17.7231666">
        <ele>57.3358</ele>
        <time>2014-07-01T10:26:21Z</time>
      </trkpt>
      <trkpt lat="59.9525563" lon="17.7232176">
        <ele>57.8165</ele>
        <time>2014-07-01T10:26:22Z</time>
      </trkpt>
      <trkpt lat="59.9525698" lon="17.7232627">
        <ele>58.2971</ele>
        <time>2014-07-01T10:26:23Z</time>
      </trkpt>
      <trkpt lat="59.9525864" lon="17.7233021">
        <ele>58.2971</ele>
        <time>2014-07-01T10:26:24Z</time>
      </trkpt>
      <trkpt lat="59.9525992" lon="17.7233443">
        <ele>58.2971</ele>
        <time>2014-07-01T10:26:25Z</time>
      </trkpt>
      <trkpt lat="59.9526139" lon="17.7233857">
        <ele>59.7391</ele>
        <time>2014-07-01T10:26:26Z</time>
      </trkpt>
      <trkpt lat="59.9526314" lon="17.7234286">
        <ele>60.2197</ele>
        <time>2014-07-01T10:26:27Z</time>
      </trkpt>
      <trkpt lat="59.952649" lon="17.7234721">
        <ele>61.181</ele>
        <time>2014-07-01T10:26:28Z</time>
      </trkpt>
      <trkpt lat="59.9526672" lon="17.7235147">
        <ele>62.1423</ele>
        <time>2014-07-01T10:26:29Z</time>
      </trkpt>
      <trkpt lat="59.9526849" lon="17.7235649">
        <ele>62.6229</ele>
        <time>2014-07-01T10:26:30Z</time>
      </trkpt>
      <trkpt lat="59.9527042" lon="17.7236068">
        <ele>63.1036</ele>
        <time>2014-07-01T10:26:31Z</time>
      </trkpt>
      <trkpt lat="59.9527217" lon="17.7236444">
        <ele>64.0651</ele>
        <time>2014-07-01T10:26:32Z</time>
      </trkpt>
      <trkpt lat="59.952733" lon="17.7236934">
        <ele>64.0651</ele>
        <time>2014-07-01T10:26:33Z</time>
      </trkpt>
      <trkpt lat="59.9527432" lon="17.7237429">
        <ele>63.5844</ele>
        <time>2014-07-01T10:26:34Z</time>
      </trkpt>
      <trkpt lat="59.9527525" lon="17.7237861">
        <ele>63.1036</ele>
        <time>2014-07-01T10:26:35Z</time>
      </trkpt>
      <trkpt lat="59.9527591" lon="17.7238315">
        <ele>62.6229</ele>
        <time>2014-07-01T10:26:36Z</time>
      </trkpt>
      <trkpt lat="59.9527553" lon="17.7238834">
        <ele>61.6617</ele>
        <time>2014-07-01T10:26:37Z</time>
      </trkpt>
      <trkpt lat="59.9527486" lon="17.7239386">
        <ele>61.6617</ele>
        <time>2014-07-01T10:26:38Z</time>
      </trkpt>
      <trkpt lat="59.9527423" lon="17.7239942">
        <ele>61.181</ele>
        <time>2014-07-01T10:26:39Z</time>
      </trkpt>
      <trkpt lat="59.9527362" lon="17.7240456">
        <ele>60.7003</ele>
        <time>2014-07-01T10:26:40Z</time>
      </trkpt>
      <trkpt lat="59.9527301" lon="17.724101">
        <ele>60.2197</ele>
        <time>2014-07-01T10:26:41Z</time>
      </trkpt>
      <trkpt lat="59.9527211" lon="17.7241586">
        <ele>60.2197</ele>
        <time>2014-07-01T10:26:42Z</time>
      </trkpt>
      <trkpt lat="59.9527016" lon="17.7242186">
        <ele>59.7391</ele>
        <time>2014-07-01T10:26:43Z</time>
      </trkpt>
      <trkpt lat="59.952678" lon="17.7242782">
        <ele>59.2584</ele>
        <time>2014-07-01T10:26:44Z</time>
      </trkpt>
      <trkpt lat="59.9526559" lon="17.7243232">
        <ele>58.7777</ele>
        <time>2014-07-01T10:26:45Z</time>
      </trkpt>
      <trkpt lat="59.9526351" lon="17.7243635">
        <ele>58.2971</ele>
        <time>2014-07-01T10:26:46Z</time>
      </trkpt>
      <trkpt lat="59.952616" lon="17.7243994">
        <ele>58.7777</ele>
        <time>2014-07-01T10:26:47Z</time>
      </trkpt>
      <trkpt lat="59.952598" lon="17.724433">
        <ele>58.2971</ele>
        <time>2014-07-01T10:26:48Z</time>
      </trkpt>
      <trkpt lat="59.9525821" lon="17.7244672">
        <ele>58.2971</ele>
        <time>2014-07-01T10:26:49Z</time>
      </trkpt>
      <trkpt lat="59.9525687" lon="17.7245048">
        <ele>57.8165</ele>
        <time>2014-07-01T10:26:50Z</time>
      </trkpt>
      <trkpt lat="59.9525482" lon="17.7245495">
        <ele>58.2971</ele>
        <time>2014-07-01T10:26:51Z</time>
      </trkpt>
      <trkpt lat="59.9525264" lon="17.7245872">
        <ele>57.3358</ele>
        <time>2014-07-01T10:26:52Z</time>
      </trkpt>
      <trkpt lat="59.9525057" lon="17.7246163">
        <ele>57.8165</ele>
        <time>2014-07-01T10:26:53Z</time>
      </trkpt>
      <trkpt lat="59.9524869" lon="17.7246361">
        <ele>56.8551</ele>
        <time>2014-07-01T10:26:54Z</time>
      </trkpt>
      <trkpt lat="59.9524647" lon="17.7246557">
        <ele>56.8551</ele>
        <time>2014-07-01T10:26:55Z</time>
      </trkpt>
      <trkpt lat="59.9524414" lon="17.7246716">
        <ele>56.8551</ele>
        <time>2014-07-01T10:26:56Z</time>
      </trkpt>
      <trkpt lat="59.9524228" lon="17.7246822">
        <ele>56.8551</ele>
        <time>2014-07-01T10:26:57Z</time>
      </trkpt>
      <trkpt lat="59.9524011" lon="17.7247107">
        <ele>56.8551</ele>
        <time>2014-07-01T10:26:58Z</time>
      </trkpt>
      <trkpt lat="59.9523759" lon="17.7247526">
        <ele>55.8938</ele>
        <time>2014-07-01T10:26:59Z</time>
      </trkpt>
      <trkpt lat="59.9523497" lon="17.7247967">
        <ele>55.4131</ele>
        <time>2014-07-01T10:27:00Z</time>
      </trkpt>
      <trkpt lat="59.9523299" lon="17.7248324">
        <ele>55.8938</ele>
        <time>2014-07-01T10:27:01Z</time>
      </trkpt>
      <trkpt lat="59.9523104" lon="17.7248823">
        <ele>55.8938</ele>
        <time>2014-07-01T10:27:02Z</time>
      </trkpt>
      <trkpt lat="59.95229" lon="17.7249258">
        <ele>54.9324</ele>
        <time>2014-07-01T10:27:03Z</time>
      </trkpt>
      <trkpt lat="59.952268" lon="17.7249645">
        <ele>53.9712</ele>
        <time>2014-07-01T10:27:04Z</time>
      </trkpt>
      <trkpt lat="59.9522456" lon="17.72501">
        <ele>53.4905</ele>
        <time>2014-07-01T10:27:05Z</time>
      </trkpt>
      <trkpt lat="59.9522207" lon="17.7250552">
        <ele>53.0098</ele>
        <time>2014-07-01T10:27:06Z</time>
      </trkpt>
      <trkpt lat="59.952199" lon="17.7251009">
        <ele>52.0486</ele>
        <time>2014-07-01T10:27:07Z</time>
      </trkpt>
      <trkpt lat="59.9521803" lon="17.725142">
        <ele>51.5679</ele>
        <time>2014-07-01T10:27:08Z</time>
      </trkpt>
      <trkpt lat="59.9521585" lon="17.725184">
        <ele>50.6066</ele>
        <time>2014-07-01T10:27:09Z</time>
      </trkpt>
      <trkpt lat="59.9521382" lon="17.7252416">
        <ele>49.6453</ele>
        <time>2014-07-01T10:27:10Z</time>
      </trkpt>
      <trkpt lat="59.9521172" lon="17.7252898">
        <ele>49.6453</ele>
        <time>2014-07-01T10:27:11Z</time>
      </trkpt>
      <trkpt lat="59.9520932" lon="17.7253376">
        <ele>49.6453</ele>
        <time>2014-07-01T10:27:12Z</time>
      </trkpt>
      <trkpt lat="59.9520726" lon="17.7253774">
        <ele>49.1646</ele>
        <time>2014-07-01T10:27:13Z</time>
      </trkpt>
      <trkpt lat="59.9520523" lon="17.7254064">
        <ele>48.2034</ele>
        <time>2014-07-01T10:27:14Z</time>
      </trkpt>
      <trkpt lat="59.9520312" lon="17.7254481">
        <ele>47.7225</ele>
        <time>2014-07-01T10:27:15Z</time>
      </trkpt>
      <trkpt lat="59.9520131" lon="17.725484">
        <ele>47.2418</ele>
        <time>2014-07-01T10:27:16Z</time>
      </trkpt>
      <trkpt lat="59.9519983" lon="17.7255119">
        <ele>46.7612</ele>
        <time>2014-07-01T10:27:17Z</time>
      </trkpt>
      <trkpt lat="59.951982" lon="17.7255543">
        <ele>46.2806</ele>
        <time>2014-07-01T10:27:18Z</time>
      </trkpt>
      <trkpt lat="59.9519639" lon="17.7255945">
        <ele>46.7612</ele>
        <time>2014-07-01T10:27:19Z</time>
      </trkpt>
      <trkpt lat="59.9519431" lon="17.7256426">
        <ele>45.7999</ele>
        <time>2014-07-01T10:27:20Z</time>
      </trkpt>
      <trkpt lat="59.9519203" lon="17.7256944">
        <ele>45.3192</ele>
        <time>2014-07-01T10:27:21Z</time>
      </trkpt>
      <trkpt lat="59.9519025" lon="17.7257326">
        <ele>45.3192</ele>
        <time>2014-07-01T10:27:22Z</time>
      </trkpt>
      <trkpt lat="59.9518838" lon="17.7257804">
        <ele>44.358</ele>
        <time>2014-07-01T10:27:23Z</time>
      </trkpt>
      <trkpt lat="59.9518601" lon="17.725833">
        <ele>44.358</ele>
        <time>2014-07-01T10:27:24Z</time>
      </trkpt>
      <trkpt lat="59.9518374" lon="17.7258804">
        <ele>43.8773</ele>
        <time>2014-07-01T10:27:25Z</time>
      </trkpt>
      <trkpt lat="59.9518162" lon="17.7259192">
        <ele>43.3966</ele>
        <time>2014-07-01T10:27:26Z</time>
      </trkpt>
      <trkpt lat="59.951796" lon="17.7259461">
        <ele>43.3966</ele>
        <time>2014-07-01T10:27:27Z</time>
      </trkpt>
      <trkpt lat="59.9517782" lon="17.7259735">
        <ele>43.3966</ele>
        <time>2014-07-01T10:27:28Z</time>
      </trkpt>
      <trkpt lat="59.9517587" lon="17.7259998">
        <ele>42.4354</ele>
        <time>2014-07-01T10:27:29Z</time>
      </trkpt>
      <trkpt lat="59.9517389" lon="17.726021">
        <ele>41.9547</ele>
        <time>2014-07-01T10:27:30Z</time>
      </trkpt>
      <trkpt lat="59.9517204" lon="17.7260466">
        <ele>40.9934</ele>
        <time>2014-07-01T10:27:31Z</time>
      </trkpt>
      <trkpt lat="59.9517034" lon="17.726082">
        <ele>40.9934</ele>
        <time>2014-07-01T10:27:32Z</time>
      </trkpt>
      <trkpt lat="59.9516836" lon="17.7261166">
        <ele>39.5513</ele>
        <time>2014-07-01T10:27:33Z</time>
      </trkpt>
      <trkpt lat="59.9516612" lon="17.7261519">
        <ele>39.0707</ele>
        <time>2014-07-01T10:27:34Z</time>
      </trkpt>
      <trkpt lat="59.9516391" lon="17.7261817">
        <ele>39.0707</ele>
        <time>2014-07-01T10:27:35Z</time>
      </trkpt>
      <trkpt lat="59.9516183" lon="17.7262132">
        <ele>38.5901</ele>
        <time>2014-07-01T10:27:36Z</time>
      </trkpt>
      <trkpt lat="59.9515977" lon="17.7262508">
        <ele>38.5901</ele>
        <time>2014-07-01T10:27:37Z</time>
      </trkpt>
      <trkpt lat="59.9515808" lon="17.726287">
        <ele>38.1094</ele>
        <time>2014-07-01T10:27:38Z</time>
      </trkpt>
      <trkpt lat="59.9515665" lon="17.7263347">
        <ele>37.6287</ele>
        <time>2014-07-01T10:27:39Z</time>
      </trkpt>
      <trkpt lat="59.951549" lon="17.7263814">
        <ele>37.6287</ele>
        <time>2014-07-01T10:27:40Z</time>
      </trkpt>
      <trkpt lat="59.9515339" lon="17.7264282">
        <ele>37.1481</ele>
        <time>2014-07-01T10:27:41Z</time>
      </trkpt>
      <trkpt lat="59.9515226" lon="17.7264774">
        <ele>37.6287</ele>
        <time>2014-07-01T10:27:42Z</time>
      </trkpt>
      <trkpt lat="59.9515081" lon="17.726523">
        <ele>37.1481</ele>
        <time>2014-07-01T10:27:43Z</time>
      </trkpt>
      <trkpt lat="59.9514946" lon="17.7265667">
        <ele>37.6287</ele>
        <time>2014-07-01T10:27:44Z</time>
      </trkpt>
      <trkpt lat="59.9514795" lon="17.7266121">
        <ele>37.6287</ele>
        <time>2014-07-01T10:27:45Z</time>
      </trkpt>
      <trkpt lat="59.9514615" lon="17.7266575">
        <ele>37.6287</ele>
        <time>2014-07-01T10:27:46Z</time>
      </trkpt>
      <trkpt lat="59.9514448" lon="17.7266962">
        <ele>37.1481</ele>
        <time>2014-07-01T10:27:47Z</time>
      </trkpt>
      <trkpt lat="59.9514334" lon="17.7267367">
        <ele>37.6287</ele>
        <time>2014-07-01T10:27:48Z</time>
      </trkpt>
      <trkpt lat="59.9514265" lon="17.7267905">
        <ele>38.1094</ele>
        <time>2014-07-01T10:27:49Z</time>
      </trkpt>
      <trkpt lat="59.9514266" lon="17.7268326">
        <ele>38.5901</ele>
        <time>2014-07-01T10:27:50Z</time>
      </trkpt>
      <trkpt lat="59.9514334" lon="17.7268685">
        <ele>39.0707</ele>
        <time>2014-07-01T10:27:51Z</time>
      </trkpt>
      <trkpt lat="59.9514442" lon="17.7269143">
        <ele>39.5513</ele>
        <time>2014-07-01T10:27:52Z</time>
      </trkpt>
      <trkpt lat="59.9514536" lon="17.7269599">
        <ele>39.5513</ele>
        <time>2014-07-01T10:27:53Z</time>
      </trkpt>
      <trkpt lat="59.9514644" lon="17.7270096">
        <ele>39.0707</ele>
        <time>2014-07-01T10:27:54Z</time>
      </trkpt>
      <trkpt lat="59.9514769" lon="17.7270552">
        <ele>39.5513</ele>
        <time>2014-07-01T10:27:55Z</time>
      </trkpt>
      <trkpt lat="59.9514905" lon="17.7271006">
        <ele>39.5513</ele>
        <time>2014-07-01T10:27:56Z</time>
      </trkpt>
      <trkpt lat="59.9515002" lon="17.7271503">
        <ele>40.0321</ele>
        <time>2014-07-01T10:27:57Z</time>
      </trkpt>
      <trkpt lat="59.9515075" lon="17.727197">
        <ele>40.0321</ele>
        <time>2014-07-01T10:27:58Z</time>
      </trkpt>
      <trkpt lat="59.951512" lon="17.7272433">
        <ele>40.0321</ele>
        <time>2014-07-01T10:27:59Z</time>
      </trkpt>
      <trkpt lat="59.9515162" lon="17.7272884">
        <ele>40.0321</ele>
        <time>2014-07-01T10:28:00Z</time>
      </trkpt>
      <trkpt lat="59.9515152" lon="17.7273311">
        <ele>40.0321</ele>
        <time>2014-07-01T10:28:01Z</time>
      </trkpt>
      <trkpt lat="59.9515192" lon="17.7273642">
        <ele>39.5513</ele>
        <time>2014-07-01T10:28:02Z</time>
      </trkpt>
      <trkpt lat="59.9515162" lon="17.7274105">
        <ele>40.0321</ele>
        <time>2014-07-01T10:28:03Z</time>
      </trkpt>
      <trkpt lat="59.9515209" lon="17.7274545">
        <ele>39.5513</ele>
        <time>2014-07-01T10:28:04Z</time>
      </trkpt>
      <trkpt lat="59.9515295" lon="17.7275017">
        <ele>39.5513</ele>
        <time>2014-07-01T10:28:05Z</time>
      </trkpt>
      <trkpt lat="59.9515371" lon="17.7275504">
        <ele>39.5513</ele>
        <time>2014-07-01T10:28:06Z</time>
      </trkpt>
      <trkpt lat="59.9515473" lon="17.727595">
        <ele>39.0707</ele>
        <time>2014-07-01T10:28:07Z</time>
      </trkpt>
      <trkpt lat="59.9515566" lon="17.7276373">
        <ele>38.5901</ele>
        <time>2014-07-01T10:28:08Z</time>
      </trkpt>
      <trkpt lat="59.9515686" lon="17.7276784">
        <ele>39.0707</ele>
        <time>2014-07-01T10:28:09Z</time>
      </trkpt>
      <trkpt lat="59.9515857" lon="17.7277142">
        <ele>39.5513</ele>
        <time>2014-07-01T10:28:10Z</time>
      </trkpt>
      <trkpt lat="59.9516031" lon="17.7277431">
        <ele>39.5513</ele>
        <time>2014-07-01T10:28:11Z</time>
      </trkpt>
      <trkpt lat="59.9516189" lon="17.7277746">
        <ele>39.0707</ele>
        <time>2014-07-01T10:28:12Z</time>
      </trkpt>
      <trkpt lat="59.9516375" lon="17.7278098">
        <ele>39.5513</ele>
        <time>2014-07-01T10:28:13Z</time>
      </trkpt>
      <trkpt lat="59.951656" lon="17.7278353">
        <ele>40.0321</ele>
        <time>2014-07-01T10:28:14Z</time>
      </trkpt>
      <trkpt lat="59.9516799" lon="17.7278529">
        <ele>40.0321</ele>
        <time>2014-07-01T10:28:15Z</time>
      </trkpt>
      <trkpt lat="59.9517074" lon="17.7278676">
        <ele>40.5128</ele>
        <time>2014-07-01T10:28:16Z</time>
      </trkpt>
      <trkpt lat="59.9517354" lon="17.7278804">
        <ele>40.9934</ele>
        <time>2014-07-01T10:28:17Z</time>
      </trkpt>
      <trkpt lat="59.9517611" lon="17.7278821">
        <ele>41.9547</ele>
        <time>2014-07-01T10:28:18Z</time>
      </trkpt>
      <trkpt lat="59.9517825" lon="17.7278877">
        <ele>41.9547</ele>
        <time>2014-07-01T10:28:19Z</time>
      </trkpt>
      <trkpt lat="59.9518067" lon="17.7278851">
        <ele>41.9547</ele>
        <time>2014-07-01T10:28:20Z</time>
      </trkpt>
      <trkpt lat="59.9518306" lon="17.7278779">
        <ele>42.4354</ele>
        <time>2014-07-01T10:28:21Z</time>
      </trkpt>
      <trkpt lat="59.9518614" lon="17.7278646">
        <ele>44.358</ele>
        <time>2014-07-01T10:28:22Z</time>
      </trkpt>
      <trkpt lat="59.9518841" lon="17.7278509">
        <ele>44.358</ele>
        <time>2014-07-01T10:28:23Z</time>
      </trkpt>
      <trkpt lat="59.9519028" lon="17.7278284">
        <ele>44.358</ele>
        <time>2014-07-01T10:28:24Z</time>
      </trkpt>
      <trkpt lat="59.9519225" lon="17.7278058">
        <ele>43.8773</ele>
        <time>2014-07-01T10:28:25Z</time>
      </trkpt>
      <trkpt lat="59.9519457" lon="17.7277855">
        <ele>43.8773</ele>
        <time>2014-07-01T10:28:26Z</time>
      </trkpt>
      <trkpt lat="59.9519679" lon="17.727752">
        <ele>44.8386</ele>
        <time>2014-07-01T10:28:27Z</time>
      </trkpt>
      <trkpt lat="59.9519861" lon="17.7277237">
        <ele>44.8386</ele>
        <time>2014-07-01T10:28:28Z</time>
      </trkpt>
      <trkpt lat="59.9520023" lon="17.7276991">
        <ele>45.3192</ele>
        <time>2014-07-01T10:28:29Z</time>
      </trkpt>
      <trkpt lat="59.9520192" lon="17.7276681">
        <ele>45.3192</ele>
        <time>2014-07-01T10:28:30Z</time>
      </trkpt>
      <trkpt lat="59.9520457" lon="17.7276363">
        <ele>47.2418</ele>
        <time>2014-07-01T10:28:31Z</time>
      </trkpt>
      <trkpt lat="59.9520601" lon="17.7276073">
        <ele>47.7225</ele>
        <time>2014-07-01T10:28:32Z</time>
      </trkpt>
      <trkpt lat="59.9520736" lon="17.7275794">
        <ele>48.2034</ele>
        <time>2014-07-01T10:28:33Z</time>
      </trkpt>
      <trkpt lat="59.952086" lon="17.7275457">
        <ele>48.2034</ele>
        <time>2014-07-01T10:28:34Z</time>
      </trkpt>
      <trkpt lat="59.9520936" lon="17.7275012">
        <ele>48.684</ele>
        <time>2014-07-01T10:28:35Z</time>
      </trkpt>
      <trkpt lat="59.9521016" lon="17.7274572">
        <ele>49.1646</ele>
        <time>2014-07-01T10:28:36Z</time>
      </trkpt>
      <trkpt lat="59.9521133" lon="17.727422">
        <ele>49.6453</ele>
        <time>2014-07-01T10:28:37Z</time>
      </trkpt>
      <trkpt lat="59.9521195" lon="17.7273896">
        <ele>48.684</ele>
        <time>2014-07-01T10:28:38Z</time>
      </trkpt>
      <trkpt lat="59.9521223" lon="17.7273406">
        <ele>48.684</ele>
        <time>2014-07-01T10:28:39Z</time>
      </trkpt>
      <trkpt lat="59.9521203" lon="17.7272915">
        <ele>49.6453</ele>
        <time>2014-07-01T10:28:40Z</time>
      </trkpt>
      <trkpt lat="59.9521099" lon="17.7272381">
        <ele>49.6453</ele>
        <time>2014-07-01T10:28:41Z</time>
      </trkpt>
      <trkpt lat="59.9521109" lon="17.7271873">
        <ele>50.126</ele>
        <time>2014-07-01T10:28:42Z</time>
      </trkpt>
      <trkpt lat="59.9521155" lon="17.7271365">
        <ele>50.126</ele>
        <time>2014-07-01T10:28:43Z</time>
      </trkpt>
      <trkpt lat="59.952119" lon="17.7270768">
        <ele>50.126</ele>
        <time>2014-07-01T10:28:44Z</time>
      </trkpt>
      <trkpt lat="59.9521249" lon="17.7270251">
        <ele>50.6066</ele>
        <time>2014-07-01T10:28:45Z</time>
      </trkpt>
      <trkpt lat="59.9521349" lon="17.726974">
        <ele>51.5679</ele>
        <time>2014-07-01T10:28:46Z</time>
      </trkpt>
      <trkpt lat="59.9521446" lon="17.7269247">
        <ele>50.6066</ele>
        <time>2014-07-01T10:28:47Z</time>
      </trkpt>
      <trkpt lat="59.9521555" lon="17.7268797">
        <ele>51.0872</ele>
        <time>2014-07-01T10:28:48Z</time>
      </trkpt>
      <trkpt lat="59.9521622" lon="17.7268308">
        <ele>51.0872</ele>
        <time>2014-07-01T10:28:49Z</time>
      </trkpt>
      <trkpt lat="59.9521736" lon="17.7267851">
        <ele>51.5679</ele>
        <time>2014-07-01T10:28:50Z</time>
      </trkpt>
      <trkpt lat="59.9521845" lon="17.7267325">
        <ele>51.0872</ele>
        <time>2014-07-01T10:28:51Z</time>
      </trkpt>
      <trkpt lat="59.952199" lon="17.7266867">
        <ele>50.6066</ele>
        <time>2014-07-01T10:28:52Z</time>
      </trkpt>
      <trkpt lat="59.9522154" lon="17.7266447">
        <ele>51.0872</ele>
        <time>2014-07-01T10:28:53Z</time>
      </trkpt>
      <trkpt lat="59.9522296" lon="17.7266041">
        <ele>50.6066</ele>
        <time>2014-07-01T10:28:54Z</time>
      </trkpt>
      <trkpt lat="59.9522492" lon="17.7265656">
        <ele>51.0872</ele>
        <time>2014-07-01T10:28:55Z</time>
      </trkpt>
      <trkpt lat="59.9522658" lon="17.7265221">
        <ele>51.0872</ele>
        <time>2014-07-01T10:28:56Z</time>
      </trkpt>
      <trkpt lat="59.9522782" lon="17.7264784">
        <ele>51.5679</ele>
        <time>2014-07-01T10:28:57Z</time>
      </trkpt>
      <trkpt lat="59.9522923" lon="17.726432">
        <ele>52.5292</ele>
        <time>2014-07-01T10:28:58Z</time>
      </trkpt>
      <trkpt lat="59.9523073" lon="17.726387">
        <ele>52.5292</ele>
        <time>2014-07-01T10:28:59Z</time>
      </trkpt>
      <trkpt lat="59.9523244" lon="17.7263498">
        <ele>52.5292</ele>
        <time>2014-07-01T10:29:00Z</time>
      </trkpt>
      <trkpt lat="59.9523423" lon="17.7263177">
        <ele>53.0098</ele>
        <time>2014-07-01T10:29:01Z</time>
      </trkpt>
      <trkpt lat="59.9523592" lon="17.7262875">
        <ele>52.5292</ele>
        <time>2014-07-01T10:29:02Z</time>
      </trkpt>
      <trkpt lat="59.9523761" lon="17.7262513">
        <ele>51.5679</ele>
        <time>2014-07-01T10:29:03Z</time>
      </trkpt>
      <trkpt lat="59.9523937" lon="17.7262211">
        <ele>51.0872</ele>
        <time>2014-07-01T10:29:04Z</time>
      </trkpt>
      <trkpt lat="59.9524062" lon="17.7261817">
        <ele>50.6066</ele>
        <time>2014-07-01T10:29:05Z</time>
      </trkpt>
      <trkpt lat="59.9524166" lon="17.7261431">
        <ele>49.6453</ele>
        <time>2014-07-01T10:29:06Z</time>
      </trkpt>
      <trkpt lat="59.9524301" lon="17.7261047">
        <ele>49.1646</ele>
        <time>2014-07-01T10:29:07Z</time>
      </trkpt>
      <trkpt lat="59.9524455" lon="17.7260704">
        <ele>49.1646</ele>
        <time>2014-07-01T10:29:08Z</time>
      </trkpt>
      <trkpt lat="59.9524611" lon="17.7260293">
        <ele>48.2034</ele>
        <time>2014-07-01T10:29:09Z</time>
      </trkpt>
      <trkpt lat="59.9524829" lon="17.7259952">
        <ele>48.684</ele>
        <time>2014-07-01T10:29:10Z</time>
      </trkpt>
      <trkpt lat="59.9524992" lon="17.7259591">
        <ele>48.2034</ele>
        <time>2014-07-01T10:29:11Z</time>
      </trkpt>
      <trkpt lat="59.9525213" lon="17.7259356">
        <ele>48.2034</ele>
        <time>2014-07-01T10:29:12Z</time>
      </trkpt>
      <trkpt lat="59.9525414" lon="17.7259051">
        <ele>48.2034</ele>
        <time>2014-07-01T10:29:13Z</time>
      </trkpt>
      <trkpt lat="59.9525428" lon="17.7258513">
        <ele>45.3192</ele>
        <time>2014-07-01T10:29:14Z</time>
      </trkpt>
      <trkpt lat="59.9525568" lon="17.7258149">
        <ele>44.8386</ele>
        <time>2014-07-01T10:29:15Z</time>
      </trkpt>
      <trkpt lat="59.9525714" lon="17.7257804">
        <ele>43.8773</ele>
        <time>2014-07-01T10:29:16Z</time>
      </trkpt>
      <trkpt lat="59.9525871" lon="17.7257456">
        <ele>42.916</ele>
        <time>2014-07-01T10:29:17Z</time>
      </trkpt>
      <trkpt lat="59.9526029" lon="17.7257022">
        <ele>41.9547</ele>
        <time>2014-07-01T10:29:18Z</time>
      </trkpt>
      <trkpt lat="59.9526242" lon="17.7256655">
        <ele>41.474</ele>
        <time>2014-07-01T10:29:19Z</time>
      </trkpt>
      <trkpt lat="59.952644" lon="17.7256333">
        <ele>40.9934</ele>
        <time>2014-07-01T10:29:20Z</time>
      </trkpt>
      <trkpt lat="59.9526668" lon="17.7255995">
        <ele>41.9547</ele>
        <time>2014-07-01T10:29:21Z</time>
      </trkpt>
      <trkpt lat="59.9526864" lon="17.7255588">
        <ele>41.9547</ele>
        <time>2014-07-01T10:29:22Z</time>
      </trkpt>
      <trkpt lat="59.9527082" lon="17.7255203">
        <ele>42.4354</ele>
        <time>2014-07-01T10:29:23Z</time>
      </trkpt>
      <trkpt lat="59.9527284" lon="17.7254819">
        <ele>42.916</ele>
        <time>2014-07-01T10:29:24Z</time>
      </trkpt>
      <trkpt lat="59.9527481" lon="17.7254473">
        <ele>42.916</ele>
        <time>2014-07-01T10:29:25Z</time>
      </trkpt>
      <trkpt lat="59.9527693" lon="17.7254146">
        <ele>42.916</ele>
        <time>2014-07-01T10:29:26Z</time>
      </trkpt>
      <trkpt lat="59.9527935" lon="17.7253872">
        <ele>43.3966</ele>
        <time>2014-07-01T10:29:27Z</time>
      </trkpt>
      <trkpt lat="59.9528025" lon="17.7253492">
        <ele>40.9934</ele>
        <time>2014-07-01T10:29:28Z</time>
      </trkpt>
      <trkpt lat="59.9528159" lon="17.7253068">
        <ele>39.0707</ele>
        <time>2014-07-01T10:29:29Z</time>
      </trkpt>
      <trkpt lat="59.9528421" lon="17.72528">
        <ele>39.0707</ele>
        <time>2014-07-01T10:29:30Z</time>
      </trkpt>
      <trkpt lat="59.952865" lon="17.7252513">
        <ele>39.5513</ele>
        <time>2014-07-01T10:29:31Z</time>
      </trkpt>
      <trkpt lat="59.9528855" lon="17.7252142">
        <ele>39.5513</ele>
        <time>2014-07-01T10:29:32Z</time>
      </trkpt>
      <trkpt lat="59.9529088" lon="17.7251826">
        <ele>39.5513</ele>
        <time>2014-07-01T10:29:33Z</time>
      </trkpt>
      <trkpt lat="59.9529292" lon="17.7251511">
        <ele>39.5513</ele>
        <time>2014-07-01T10:29:34Z</time>
      </trkpt>
      <trkpt lat="59.9529499" lon="17.72511">
        <ele>39.0707</ele>
        <time>2014-07-01T10:29:35Z</time>
      </trkpt>
      <trkpt lat="59.9529717" lon="17.7250716">
        <ele>38.5901</ele>
        <time>2014-07-01T10:29:36Z</time>
      </trkpt>
      <trkpt lat="59.9529941" lon="17.7250373">
        <ele>39.0707</ele>
        <time>2014-07-01T10:29:37Z</time>
      </trkpt>
      <trkpt lat="59.9530086" lon="17.7249903">
        <ele>39.0707</ele>
        <time>2014-07-01T10:29:38Z</time>
      </trkpt>
      <trkpt lat="59.9530206" lon="17.7249415">
        <ele>38.1094</ele>
        <time>2014-07-01T10:29:39Z</time>
      </trkpt>
      <trkpt lat="59.9530302" lon="17.7248944">
        <ele>38.1094</ele>
        <time>2014-07-01T10:29:40Z</time>
      </trkpt>
      <trkpt lat="59.9530486" lon="17.7248551">
        <ele>38.5901</ele>
        <time>2014-07-01T10:29:41Z</time>
      </trkpt>
      <trkpt lat="59.9530693" lon="17.7248189">
        <ele>39.5513</ele>
        <time>2014-07-01T10:29:42Z</time>
      </trkpt>
      <trkpt lat="59.9530899" lon="17.7247841">
        <ele>40.9934</ele>
        <time>2014-07-01T10:29:43Z</time>
      </trkpt>
      <trkpt lat="59.9531129" lon="17.724751">
        <ele>41.9547</ele>
        <time>2014-07-01T10:29:44Z</time>
      </trkpt>
      <trkpt lat="59.9531333" lon="17.7247211">
        <ele>43.8773</ele>
        <time>2014-07-01T10:29:45Z</time>
      </trkpt>
      <trkpt lat="59.953147" lon="17.7246823">
        <ele>44.358</ele>
        <time>2014-07-01T10:29:46Z</time>
      </trkpt>
      <trkpt lat="59.9531528" lon="17.7246315">
        <ele>42.916</ele>
        <time>2014-07-01T10:29:47Z</time>
      </trkpt>
      <trkpt lat="59.9531528" lon="17.7245696">
        <ele>40.5128</ele>
        <time>2014-07-01T10:29:48Z</time>
      </trkpt>
      <trkpt lat="59.9531685" lon="17.7245382">
        <ele>39.5513</ele>
        <time>2014-07-01T10:29:49Z</time>
      </trkpt>
      <trkpt lat="59.9531734" lon="17.7244924">
        <ele>38.5901</ele>
        <time>2014-07-01T10:29:50Z</time>
      </trkpt>
      <trkpt lat="59.9531805" lon="17.7244469">
        <ele>37.1481</ele>
        <time>2014-07-01T10:29:51Z</time>
      </trkpt>
      <trkpt lat="59.9532016" lon="17.724417">
        <ele>38.1094</ele>
        <time>2014-07-01T10:29:52Z</time>
      </trkpt>
      <trkpt lat="59.9532168" lon="17.7243933">
        <ele>37.1481</ele>
        <time>2014-07-01T10:29:53Z</time>
      </trkpt>
      <trkpt lat="59.9532353" lon="17.7243547">
        <ele>36.6675</ele>
        <time>2014-07-01T10:29:54Z</time>
      </trkpt>
      <trkpt lat="59.9532547" lon="17.7243236">
        <ele>37.1481</ele>
        <time>2014-07-01T10:29:55Z</time>
      </trkpt>
      <trkpt lat="59.9532733" lon="17.7242816">
        <ele>37.6287</ele>
        <time>2014-07-01T10:29:56Z</time>
      </trkpt>
      <trkpt lat="59.9532926" lon="17.7242489">
        <ele>38.1094</ele>
        <time>2014-07-01T10:29:57Z</time>
      </trkpt>
      <trkpt lat="59.9533091" lon="17.724217">
        <ele>39.0707</ele>
        <time>2014-07-01T10:29:58Z</time>
      </trkpt>
      <trkpt lat="59.9533319" lon="17.7241948">
        <ele>40.5128</ele>
        <time>2014-07-01T10:29:59Z</time>
      </trkpt>
      <trkpt lat="59.9533503" lon="17.7241627">
        <ele>40.5128</ele>
        <time>2014-07-01T10:30:00Z</time>
      </trkpt>
      <trkpt lat="59.9533635" lon="17.7241329">
        <ele>40.0321</ele>
        <time>2014-07-01T10:30:01Z</time>
      </trkpt>
      <trkpt lat="59.95338" lon="17.7241021">
        <ele>39.0707</ele>
        <time>2014-07-01T10:30:02Z</time>
      </trkpt>
      <trkpt lat="59.9534039" lon="17.7240733">
        <ele>39.0707</ele>
        <time>2014-07-01T10:30:03Z</time>
      </trkpt>
      <trkpt lat="59.9534228" lon="17.7240368">
        <ele>39.0707</ele>
        <time>2014-07-01T10:30:04Z</time>
      </trkpt>
      <trkpt lat="59.9534374" lon="17.7239961">
        <ele>38.1094</ele>
        <time>2014-07-01T10:30:05Z</time>
      </trkpt>
      <trkpt lat="59.9534522" lon="17.7239543">
        <ele>37.1481</ele>
        <time>2014-07-01T10:30:06Z</time>
      </trkpt>
      <trkpt lat="59.953464" lon="17.7239078">
        <ele>35.7061</ele>
        <time>2014-07-01T10:30:07Z</time>
      </trkpt>
      <trkpt lat="59.9534897" lon="17.7238784">
        <ele>37.1481</ele>
        <time>2014-07-01T10:30:08Z</time>
      </trkpt>
      <trkpt lat="59.9535163" lon="17.7238498">
        <ele>39.5513</ele>
        <time>2014-07-01T10:30:09Z</time>
      </trkpt>
      <trkpt lat="59.9535407" lon="17.7238192">
        <ele>40.9934</ele>
        <time>2014-07-01T10:30:10Z</time>
      </trkpt>
      <trkpt lat="59.9535587" lon="17.7237841">
        <ele>41.9547</ele>
        <time>2014-07-01T10:30:11Z</time>
      </trkpt>
      <trkpt lat="59.9535671" lon="17.7237384">
        <ele>40.0321</ele>
        <time>2014-07-01T10:30:12Z</time>
      </trkpt>
      <trkpt lat="59.9535946" lon="17.7237071">
        <ele>40.9934</ele>
        <time>2014-07-01T10:30:13Z</time>
      </trkpt>
      <trkpt lat="59.9536182" lon="17.7236779">
        <ele>41.474</ele>
        <time>2014-07-01T10:30:14Z</time>
      </trkpt>
      <trkpt lat="59.9536505" lon="17.7236608">
        <ele>43.8773</ele>
        <time>2014-07-01T10:30:15Z</time>
      </trkpt>
      <trkpt lat="59.9536744" lon="17.7236363">
        <ele>43.3966</ele>
        <time>2014-07-01T10:30:16Z</time>
      </trkpt>
      <trkpt lat="59.953695" lon="17.7236046">
        <ele>43.3966</ele>
        <time>2014-07-01T10:30:17Z</time>
      </trkpt>
      <trkpt lat="59.9537225" lon="17.7235783">
        <ele>44.8386</ele>
        <time>2014-07-01T10:30:18Z</time>
      </trkpt>
      <trkpt lat="59.9537587" lon="17.7235515">
        <ele>49.1646</ele>
        <time>2014-07-01T10:30:19Z</time>
      </trkpt>
      <trkpt lat="59.9537891" lon="17.7235264">
        <ele>52.0486</ele>
        <time>2014-07-01T10:30:20Z</time>
      </trkpt>
      <trkpt lat="59.953811" lon="17.7235103">
        <ele>52.5292</ele>
        <time>2014-07-01T10:30:21Z</time>
      </trkpt>
      <trkpt lat="59.9538345" lon="17.723482">
        <ele>52.5292</ele>
        <time>2014-07-01T10:30:22Z</time>
      </trkpt>
      <trkpt lat="59.9538545" lon="17.7234496">
        <ele>52.5292</ele>
        <time>2014-07-01T10:30:23Z</time>
      </trkpt>
      <trkpt lat="59.9538773" lon="17.7234259">
        <ele>53.0098</ele>
        <time>2014-07-01T10:30:24Z</time>
      </trkpt>
      <trkpt lat="59.9538974" lon="17.7234032">
        <ele>53.0098</ele>
        <time>2014-07-01T10:30:25Z</time>
      </trkpt>
      <trkpt lat="59.9539142" lon="17.7233815">
        <ele>53.0098</ele>
        <time>2014-07-01T10:30:26Z</time>
      </trkpt>
      <trkpt lat="59.953931" lon="17.7233593">
        <ele>52.0486</ele>
        <time>2014-07-01T10:30:27Z</time>
      </trkpt>
      <trkpt lat="59.953954" lon="17.7233415">
        <ele>52.5292</ele>
        <time>2014-07-01T10:30:28Z</time>
      </trkpt>
      <trkpt lat="59.9539763" lon="17.7233227">
        <ele>52.0486</ele>
        <time>2014-07-01T10:30:29Z</time>
      </trkpt>
      <trkpt lat="59.9540002" lon="17.7233074">
        <ele>53.0098</ele>
        <time>2014-07-01T10:30:30Z</time>
      </trkpt>
      <trkpt lat="59.954026" lon="17.7232981">
        <ele>53.9712</ele>
        <time>2014-07-01T10:30:31Z</time>
      </trkpt>
      <trkpt lat="59.9540478" lon="17.7232887">
        <ele>53.9712</ele>
        <time>2014-07-01T10:30:32Z</time>
      </trkpt>
      <trkpt lat="59.9540711" lon="17.7232774">
        <ele>54.9324</ele>
        <time>2014-07-01T10:30:33Z</time>
      </trkpt>
      <trkpt lat="59.9540927" lon="17.7232766">
        <ele>55.4131</ele>
        <time>2014-07-01T10:30:34Z</time>
      </trkpt>
      <trkpt lat="59.9541197" lon="17.7232746">
        <ele>56.3745</ele>
        <time>2014-07-01T10:30:35Z</time>
      </trkpt>
      <trkpt lat="59.9541408" lon="17.7232743">
        <ele>55.8938</ele>
        <time>2014-07-01T10:30:36Z</time>
      </trkpt>
      <trkpt lat="59.9541646" lon="17.7232706">
        <ele>55.8938</ele>
        <time>2014-07-01T10:30:37Z</time>
      </trkpt>
      <trkpt lat="59.9541929" lon="17.7232742">
        <ele>55.8938</ele>
        <time>2014-07-01T10:30:38Z</time>
      </trkpt>
      <trkpt lat="59.9542128" lon="17.7232779">
        <ele>54.4518</ele>
        <time>2014-07-01T10:30:39Z</time>
      </trkpt>
      <trkpt lat="59.9542405" lon="17.7232883">
        <ele>55.8938</ele>
        <time>2014-07-01T10:30:40Z</time>
      </trkpt>
      <trkpt lat="59.9542664" lon="17.7232943">
        <ele>57.3358</ele>
        <time>2014-07-01T10:30:41Z</time>
      </trkpt>
      <trkpt lat="59.9542907" lon="17.7233013">
        <ele>60.2197</ele>
        <time>2014-07-01T10:30:42Z</time>
      </trkpt>
      <trkpt lat="59.9543176" lon="17.7233069">
        <ele>61.6617</ele>
        <time>2014-07-01T10:30:43Z</time>
      </trkpt>
      <trkpt lat="59.9543513" lon="17.7233047">
        <ele>63.5844</ele>
        <time>2014-07-01T10:30:44Z</time>
      </trkpt>
      <trkpt lat="59.9543938" lon="17.7232986">
        <ele>66.949</ele>
        <time>2014-07-01T10:30:45Z</time>
      </trkpt>
      <trkpt lat="59.9544379" lon="17.7233023">
        <ele>69.3523</ele>
        <time>2014-07-01T10:30:46Z</time>
      </trkpt>
      <trkpt lat="59.9544787" lon="17.7233156">
        <ele>71.2749</ele>
        <time>2014-07-01T10:30:47Z</time>
      </trkpt>
      <trkpt lat="59.9545164" lon="17.7233176">
        <ele>73.1976</ele>
        <time>2014-07-01T10:30:48Z</time>
      </trkpt>
      <trkpt lat="59.9545523" lon="17.7233265">
        <ele>74.1588</ele>
        <time>2014-07-01T10:30:49Z</time>
      </trkpt>
      <trkpt lat="59.9545871" lon="17.7233396">
        <ele>75.1202</ele>
        <time>2014-07-01T10:30:50Z</time>
      </trkpt>
      <trkpt lat="59.9546135" lon="17.7233588">
        <ele>75.1202</ele>
        <time>2014-07-01T10:30:51Z</time>
      </trkpt>
      <trkpt lat="59.9546428" lon="17.7233647">
        <ele>76.0814</ele>
        <time>2014-07-01T10:30:52Z</time>
      </trkpt>
      <trkpt lat="59.9546682" lon="17.7233732">
        <ele>76.5621</ele>
        <time>2014-07-01T10:30:53Z</time>
      </trkpt>
      <trkpt lat="59.9546901" lon="17.7234013">
        <ele>76.5621</ele>
        <time>2014-07-01T10:30:54Z</time>
      </trkpt>
      <trkpt lat="59.9547117" lon="17.7234346">
        <ele>75.1202</ele>
        <time>2014-07-01T10:30:55Z</time>
      </trkpt>
      <trkpt lat="59.9547352" lon="17.7234638">
        <ele>75.1202</ele>
        <time>2014-07-01T10:30:56Z</time>
      </trkpt>
      <trkpt lat="59.9547583" lon="17.7234887">
        <ele>75.1202</ele>
        <time>2014-07-01T10:30:57Z</time>
      </trkpt>
      <trkpt lat="59.9547874" lon="17.7235097">
        <ele>74.6395</ele>
        <time>2014-07-01T10:30:58Z</time>
      </trkpt>
      <trkpt lat="59.9548217" lon="17.723517">
        <ele>75.1202</ele>
        <time>2014-07-01T10:30:59Z</time>
      </trkpt>
      <trkpt lat="59.954848" lon="17.7235382">
        <ele>76.0814</ele>
        <time>2014-07-01T10:31:00Z</time>
      </trkpt>
      <trkpt lat="59.9548698" lon="17.7235592">
        <ele>76.0814</ele>
        <time>2014-07-01T10:31:01Z</time>
      </trkpt>
      <trkpt lat="59.954889" lon="17.7235695">
        <ele>76.0814</ele>
        <time>2014-07-01T10:31:02Z</time>
      </trkpt>
      <trkpt lat="59.9549111" lon="17.7235838">
        <ele>77.0428</ele>
        <time>2014-07-01T10:31:03Z</time>
      </trkpt>
      <trkpt lat="59.9549339" lon="17.7236027">
        <ele>78.004</ele>
        <time>2014-07-01T10:31:04Z</time>
      </trkpt>
      <trkpt lat="59.9549577" lon="17.7236234">
        <ele>79.9266</ele>
        <time>2014-07-01T10:31:05Z</time>
      </trkpt>
      <trkpt lat="59.9549718" lon="17.7236353">
        <ele>78.9655</ele>
        <time>2014-07-01T10:31:06Z</time>
      </trkpt>
      <trkpt lat="59.9549941" lon="17.7236378">
        <ele>77.5234</ele>
        <time>2014-07-01T10:31:07Z</time>
      </trkpt>
      <trkpt lat="59.9550207" lon="17.723633">
        <ele>77.5234</ele>
        <time>2014-07-01T10:31:08Z</time>
      </trkpt>
      <trkpt lat="59.9550536" lon="17.7236282">
        <ele>78.004</ele>
        <time>2014-07-01T10:31:09Z</time>
      </trkpt>
      <trkpt lat="59.9550833" lon="17.7236144">
        <ele>78.9655</ele>
        <time>2014-07-01T10:31:10Z</time>
      </trkpt>
      <trkpt lat="59.9551136" lon="17.7235891">
        <ele>79.446</ele>
        <time>2014-07-01T10:31:11Z</time>
      </trkpt>
      <trkpt lat="59.9551438" lon="17.7235616">
        <ele>79.9266</ele>
        <time>2014-07-01T10:31:12Z</time>
      </trkpt>
      <trkpt lat="59.9551708" lon="17.7235394">
        <ele>80.4075</ele>
        <time>2014-07-01T10:31:13Z</time>
      </trkpt>
      <trkpt lat="59.9551808" lon="17.7235271">
        <ele>78.4847</ele>
        <time>2014-07-01T10:31:14Z</time>
      </trkpt>
      <trkpt lat="59.9551873" lon="17.723497">
        <ele>74.6395</ele>
        <time>2014-07-01T10:31:15Z</time>
      </trkpt>
      <trkpt lat="59.9551989" lon="17.7234773">
        <ele>72.7169</ele>
        <time>2014-07-01T10:31:16Z</time>
      </trkpt>
      <trkpt lat="59.9552172" lon="17.7234689">
        <ele>71.7555</ele>
        <time>2014-07-01T10:31:17Z</time>
      </trkpt>
      <trkpt lat="59.9552319" lon="17.7234602">
        <ele>70.7942</ele>
        <time>2014-07-01T10:31:18Z</time>
      </trkpt>
      <trkpt lat="59.9552468" lon="17.7234499">
        <ele>69.3523</ele>
        <time>2014-07-01T10:31:19Z</time>
      </trkpt>
      <trkpt lat="59.9552636" lon="17.723442">
        <ele>67.9103</ele>
        <time>2014-07-01T10:31:20Z</time>
      </trkpt>
      <trkpt lat="59.9552789" lon="17.7234259">
        <ele>66.949</ele>
        <time>2014-07-01T10:31:21Z</time>
      </trkpt>
      <trkpt lat="59.9552956" lon="17.7234089">
        <ele>65.5071</ele>
        <time>2014-07-01T10:31:22Z</time>
      </trkpt>
      <trkpt lat="59.9553164" lon="17.7233973">
        <ele>65.0264</ele>
        <time>2014-07-01T10:31:23Z</time>
      </trkpt>
      <trkpt lat="59.9553366" lon="17.7233938">
        <ele>64.0651</ele>
        <time>2014-07-01T10:31:24Z</time>
      </trkpt>
      <trkpt lat="59.9553594" lon="17.7233954">
        <ele>63.5844</ele>
        <time>2014-07-01T10:31:25Z</time>
      </trkpt>
      <trkpt lat="59.955381" lon="17.723397">
        <ele>62.1423</ele>
        <time>2014-07-01T10:31:26Z</time>
      </trkpt>
      <trkpt lat="59.9554116" lon="17.7233981">
        <ele>62.6229</ele>
        <time>2014-07-01T10:31:27Z</time>
      </trkpt>
      <trkpt lat="59.955441" lon="17.7234057">
        <ele>62.6229</ele>
        <time>2014-07-01T10:31:28Z</time>
      </trkpt>
      <trkpt lat="59.9554742" lon="17.7234193">
        <ele>63.5844</ele>
        <time>2014-07-01T10:31:29Z</time>
      </trkpt>
      <trkpt lat="59.9555048" lon="17.7234346">
        <ele>64.0651</ele>
        <time>2014-07-01T10:31:30Z</time>
      </trkpt>
      <trkpt lat="59.9555413" lon="17.7234491">
        <ele>65.9877</ele>
        <time>2014-07-01T10:31:31Z</time>
      </trkpt>
      <trkpt lat="59.9555702" lon="17.7234663">
        <ele>66.949</ele>
        <time>2014-07-01T10:31:32Z</time>
      </trkpt>
      <trkpt lat="59.9555962" lon="17.7234861">
        <ele>68.8716</ele>
        <time>2014-07-01T10:31:33Z</time>
      </trkpt>
      <trkpt lat="59.9556276" lon="17.7235155">
        <ele>70.3135</ele>
        <time>2014-07-01T10:31:34Z</time>
      </trkpt>
      <trkpt lat="59.9556563" lon="17.7235424">
        <ele>70.3135</ele>
        <time>2014-07-01T10:31:35Z</time>
      </trkpt>
      <trkpt lat="59.9556893" lon="17.7235607">
        <ele>71.7555</ele>
        <time>2014-07-01T10:31:36Z</time>
      </trkpt>
      <trkpt lat="59.9557164" lon="17.7235794">
        <ele>72.7169</ele>
        <time>2014-07-01T10:31:37Z</time>
      </trkpt>
      <trkpt lat="59.955742" lon="17.723602">
        <ele>73.6782</ele>
        <time>2014-07-01T10:31:38Z</time>
      </trkpt>
      <trkpt lat="59.9557676" lon="17.7236182">
        <ele>73.6782</ele>
        <time>2014-07-01T10:31:39Z</time>
      </trkpt>
      <trkpt lat="59.9557922" lon="17.7236343">
        <ele>73.6782</ele>
        <time>2014-07-01T10:31:40Z</time>
      </trkpt>
      <trkpt lat="59.955816" lon="17.7236541">
        <ele>73.1976</ele>
        <time>2014-07-01T10:31:41Z</time>
      </trkpt>
      <trkpt lat="59.9558383" lon="17.7236716">
        <ele>72.2362</ele>
        <time>2014-07-01T10:31:42Z</time>
      </trkpt>
      <trkpt lat="59.9558653" lon="17.7236861">
        <ele>72.2362</ele>
        <time>2014-07-01T10:31:43Z</time>
      </trkpt>
      <trkpt lat="59.9558956" lon="17.7236936">
        <ele>72.7169</ele>
        <time>2014-07-01T10:31:44Z</time>
      </trkpt>
      <trkpt lat="59.9559184" lon="17.723687">
        <ele>72.2362</ele>
        <time>2014-07-01T10:31:45Z</time>
      </trkpt>
      <trkpt lat="59.9559355" lon="17.7236698">
        <ele>70.3135</ele>
        <time>2014-07-01T10:31:46Z</time>
      </trkpt>
      <trkpt lat="59.9559601" lon="17.7236509">
        <ele>70.3135</ele>
        <time>2014-07-01T10:31:47Z</time>
      </trkpt>
      <trkpt lat="59.9559759" lon="17.7236323">
        <ele>69.3523</ele>
        <time>2014-07-01T10:31:48Z</time>
      </trkpt>
      <trkpt lat="59.9559893" lon="17.7236135">
        <ele>68.8716</ele>
        <time>2014-07-01T10:31:49Z</time>
      </trkpt>
      <trkpt lat="59.9559996" lon="17.723589">
        <ele>67.4297</ele>
        <time>2014-07-01T10:31:50Z</time>
      </trkpt>
      <trkpt lat="59.9560184" lon="17.723556">
        <ele>67.4297</ele>
        <time>2014-07-01T10:31:51Z</time>
      </trkpt>
      <trkpt lat="59.9560336" lon="17.723522">
        <ele>67.9103</ele>
        <time>2014-07-01T10:31:52Z</time>
      </trkpt>
      <trkpt lat="59.9560437" lon="17.7234897">
        <ele>66.949</ele>
        <time>2014-07-01T10:31:53Z</time>
      </trkpt>
      <trkpt lat="59.9560583" lon="17.7234531">
        <ele>66.949</ele>
        <time>2014-07-01T10:31:54Z</time>
      </trkpt>
      <trkpt lat="59.9560731" lon="17.723409">
        <ele>66.949</ele>
        <time>2014-07-01T10:31:55Z</time>
      </trkpt>
      <trkpt lat="59.9560835" lon="17.7233696">
        <ele>66.4683</ele>
        <time>2014-07-01T10:31:56Z</time>
      </trkpt>
      <trkpt lat="59.9560909" lon="17.7233323">
        <ele>66.4683</ele>
        <time>2014-07-01T10:31:57Z</time>
      </trkpt>
      <trkpt lat="59.9560973" lon="17.7232823">
        <ele>66.949</ele>
        <time>2014-07-01T10:31:58Z</time>
      </trkpt>
      <trkpt lat="59.9561025" lon="17.7232285">
        <ele>66.949</ele>
        <time>2014-07-01T10:31:59Z</time>
      </trkpt>
      <trkpt lat="59.9560961" lon="17.7231731">
        <ele>65.0264</ele>
        <time>2014-07-01T10:32:00Z</time>
      </trkpt>
      <trkpt lat="59.956095" lon="17.7231214">
        <ele>65.5071</ele>
        <time>2014-07-01T10:32:01Z</time>
      </trkpt>
      <trkpt lat="59.9560883" lon="17.72307">
        <ele>66.4683</ele>
        <time>2014-07-01T10:32:02Z</time>
      </trkpt>
      <trkpt lat="59.9560794" lon="17.7230171">
        <ele>67.4297</ele>
        <time>2014-07-01T10:32:03Z</time>
      </trkpt>
      <trkpt lat="59.9560758" lon="17.7229664">
        <ele>68.3909</ele>
        <time>2014-07-01T10:32:04Z</time>
      </trkpt>
      <trkpt lat="59.9560622" lon="17.7228992">
        <ele>66.4683</ele>
        <time>2014-07-01T10:32:05Z</time>
      </trkpt>
      <trkpt lat="59.9560427" lon="17.7228332">
        <ele>64.5457</ele>
        <time>2014-07-01T10:32:06Z</time>
      </trkpt>
      <trkpt lat="59.9560241" lon="17.7227816">
        <ele>62.6229</ele>
        <time>2014-07-01T10:32:07Z</time>
      </trkpt>
      <trkpt lat="59.9560155" lon="17.7227359">
        <ele>62.6229</ele>
        <time>2014-07-01T10:32:08Z</time>
      </trkpt>
      <trkpt lat="59.9560069" lon="17.7226875">
        <ele>62.6229</ele>
        <time>2014-07-01T10:32:09Z</time>
      </trkpt>
      <trkpt lat="59.955995" lon="17.7226424">
        <ele>61.6617</ele>
        <time>2014-07-01T10:32:10Z</time>
      </trkpt>
      <trkpt lat="59.9559914" lon="17.7226017">
        <ele>61.6617</ele>
        <time>2014-07-01T10:32:11Z</time>
      </trkpt>
      <trkpt lat="59.9559849" lon="17.7225593">
        <ele>60.7003</ele>
        <time>2014-07-01T10:32:12Z</time>
      </trkpt>
      <trkpt lat="59.9559748" lon="17.7225137">
        <ele>60.2197</ele>
        <time>2014-07-01T10:32:13Z</time>
      </trkpt>
      <trkpt lat="59.955969" lon="17.7224618">
        <ele>60.2197</ele>
        <time>2014-07-01T10:32:14Z</time>
      </trkpt>
      <trkpt lat="59.9559628" lon="17.7224098">
        <ele>59.7391</ele>
        <time>2014-07-01T10:32:15Z</time>
      </trkpt>
      <trkpt lat="59.9559519" lon="17.7223624">
        <ele>59.2584</ele>
        <time>2014-07-01T10:32:16Z</time>
      </trkpt>
      <trkpt lat="59.9559488" lon="17.7223143">
        <ele>58.2971</ele>
        <time>2014-07-01T10:32:17Z</time>
      </trkpt>
      <trkpt lat="59.9559463" lon="17.7222656">
        <ele>57.8165</ele>
        <time>2014-07-01T10:32:18Z</time>
      </trkpt>
      <trkpt lat="59.9559416" lon="17.7222225">
        <ele>57.3358</ele>
        <time>2014-07-01T10:32:19Z</time>
      </trkpt>
      <trkpt lat="59.9559344" lon="17.7221756">
        <ele>56.8551</ele>
        <time>2014-07-01T10:32:20Z</time>
      </trkpt>
      <trkpt lat="59.9559264" lon="17.7221216">
        <ele>56.3745</ele>
        <time>2014-07-01T10:32:21Z</time>
      </trkpt>
      <trkpt lat="59.9559207" lon="17.7220754">
        <ele>55.8938</ele>
        <time>2014-07-01T10:32:22Z</time>
      </trkpt>
      <trkpt lat="59.9559167" lon="17.7220341">
        <ele>55.8938</ele>
        <time>2014-07-01T10:32:23Z</time>
      </trkpt>
      <trkpt lat="59.9559136" lon="17.721987">
        <ele>54.9324</ele>
        <time>2014-07-01T10:32:24Z</time>
      </trkpt>
      <trkpt lat="59.9559165" lon="17.7219347">
        <ele>54.4518</ele>
        <time>2014-07-01T10:32:25Z</time>
      </trkpt>
      <trkpt lat="59.9559219" lon="17.7218746">
        <ele>54.4518</ele>
        <time>2014-07-01T10:32:26Z</time>
      </trkpt>
      <trkpt lat="59.9559269" lon="17.7218153">
        <ele>54.4518</ele>
        <time>2014-07-01T10:32:27Z</time>
      </trkpt>
      <trkpt lat="59.955926" lon="17.7217503">
        <ele>53.0098</ele>
        <time>2014-07-01T10:32:28Z</time>
      </trkpt>
      <trkpt lat="59.9559333" lon="17.7216968">
        <ele>52.5292</ele>
        <time>2014-07-01T10:32:29Z</time>
      </trkpt>
      <trkpt lat="59.9559358" lon="17.7216535">
        <ele>52.0486</ele>
        <time>2014-07-01T10:32:30Z</time>
      </trkpt>
      <trkpt lat="59.9559442" lon="17.7216113">
        <ele>51.5679</ele>
        <time>2014-07-01T10:32:31Z</time>
      </trkpt>
      <trkpt lat="59.9559552" lon="17.7215735">
        <ele>52.0486</ele>
        <time>2014-07-01T10:32:32Z</time>
      </trkpt>
      <trkpt lat="59.9559612" lon="17.7215353">
        <ele>52.5292</ele>
        <time>2014-07-01T10:32:33Z</time>
      </trkpt>
      <trkpt lat="59.9559707" lon="17.721498">
        <ele>53.4905</ele>
        <time>2014-07-01T10:32:34Z</time>
      </trkpt>
      <trkpt lat="59.9559747" lon="17.7214586">
        <ele>53.9712</ele>
        <time>2014-07-01T10:32:35Z</time>
      </trkpt>
      <trkpt lat="59.9559683" lon="17.7214197">
        <ele>54.4518</ele>
        <time>2014-07-01T10:32:36Z</time>
      </trkpt>
      <trkpt lat="59.9559531" lon="17.7213797">
        <ele>54.4518</ele>
        <time>2014-07-01T10:32:37Z</time>
      </trkpt>
      <trkpt lat="59.9559333" lon="17.7213406">
        <ele>53.9712</ele>
        <time>2014-07-01T10:32:38Z</time>
      </trkpt>
      <trkpt lat="59.9559106" lon="17.72131">
        <ele>54.4518</ele>
        <time>2014-07-01T10:32:39Z</time>
      </trkpt>
      <trkpt lat="59.9558832" lon="17.7212922">
        <ele>53.4905</ele>
        <time>2014-07-01T10:32:40Z</time>
      </trkpt>
      <trkpt lat="59.9558591" lon="17.7212859">
        <ele>53.4905</ele>
        <time>2014-07-01T10:32:41Z</time>
      </trkpt>
      <trkpt lat="59.9558335" lon="17.7212782">
        <ele>53.4905</ele>
        <time>2014-07-01T10:32:42Z</time>
      </trkpt>
      <trkpt lat="59.9558062" lon="17.7212854">
        <ele>53.4905</ele>
        <time>2014-07-01T10:32:43Z</time>
      </trkpt>
      <trkpt lat="59.9557787" lon="17.7212918">
        <ele>53.4905</ele>
        <time>2014-07-01T10:32:44Z</time>
      </trkpt>
      <trkpt lat="59.9557535" lon="17.7212939">
        <ele>52.5292</ele>
        <time>2014-07-01T10:32:45Z</time>
      </trkpt>
      <trkpt lat="59.9557249" lon="17.7212995">
        <ele>51.5679</ele>
        <time>2014-07-01T10:32:46Z</time>
      </trkpt>
      <trkpt lat="59.9556982" lon="17.7213097">
        <ele>51.5679</ele>
        <time>2014-07-01T10:32:47Z</time>
      </trkpt>
      <trkpt lat="59.9556717" lon="17.7213088">
        <ele>51.0872</ele>
        <time>2014-07-01T10:32:48Z</time>
      </trkpt>
      <trkpt lat="59.9556473" lon="17.7213105">
        <ele>50.126</ele>
        <time>2014-07-01T10:32:49Z</time>
      </trkpt>
      <trkpt lat="59.955622" lon="17.7213275">
        <ele>49.6453</ele>
        <time>2014-07-01T10:32:50Z</time>
      </trkpt>
      <trkpt lat="59.9555936" lon="17.7213443">
        <ele>49.1646</ele>
        <time>2014-07-01T10:32:51Z</time>
      </trkpt>
      <trkpt lat="59.9555676" lon="17.7213543">
        <ele>49.1646</ele>
        <time>2014-07-01T10:32:52Z</time>
      </trkpt>
      <trkpt lat="59.9555384" lon="17.7213626">
        <ele>51.0872</ele>
        <time>2014-07-01T10:32:53Z</time>
      </trkpt>
      <trkpt lat="59.955522" lon="17.7213738">
        <ele>51.0872</ele>
        <time>2014-07-01T10:32:54Z</time>
      </trkpt>
      <trkpt lat="59.9555018" lon="17.7213818">
        <ele>50.6066</ele>
        <time>2014-07-01T10:32:55Z</time>
      </trkpt>
      <trkpt lat="59.9554807" lon="17.7213804">
        <ele>50.6066</ele>
        <time>2014-07-01T10:32:56Z</time>
      </trkpt>
      <trkpt lat="59.9554534" lon="17.721369">
        <ele>50.6066</ele>
        <time>2014-07-01T10:32:57Z</time>
      </trkpt>
      <trkpt lat="59.9554283" lon="17.7213497">
        <ele>49.1646</ele>
        <time>2014-07-01T10:32:58Z</time>
      </trkpt>
      <trkpt lat="59.9554055" lon="17.721327">
        <ele>49.1646</ele>
        <time>2014-07-01T10:32:59Z</time>
      </trkpt>
      <trkpt lat="59.9553827" lon="17.7213087">
        <ele>49.1646</ele>
        <time>2014-07-01T10:33:00Z</time>
      </trkpt>
      <trkpt lat="59.9553586" lon="17.7213047">
        <ele>50.126</ele>
        <time>2014-07-01T10:33:01Z</time>
      </trkpt>
      <trkpt lat="59.9553338" lon="17.721295">
        <ele>50.126</ele>
        <time>2014-07-01T10:33:02Z</time>
      </trkpt>
      <trkpt lat="59.9553101" lon="17.7212933">
        <ele>51.0872</ele>
        <time>2014-07-01T10:33:03Z</time>
      </trkpt>
      <trkpt lat="59.9552853" lon="17.7212934">
        <ele>51.0872</ele>
        <time>2014-07-01T10:33:04Z</time>
      </trkpt>
      <trkpt lat="59.9552644" lon="17.7212906">
        <ele>50.6066</ele>
        <time>2014-07-01T10:33:05Z</time>
      </trkpt>
      <trkpt lat="59.9552412" lon="17.721295">
        <ele>52.0486</ele>
        <time>2014-07-01T10:33:06Z</time>
      </trkpt>
      <trkpt lat="59.9552147" lon="17.7212873">
        <ele>52.0486</ele>
        <time>2014-07-01T10:33:07Z</time>
      </trkpt>
      <trkpt lat="59.9551821" lon="17.7212865">
        <ele>54.4518</ele>
        <time>2014-07-01T10:33:08Z</time>
      </trkpt>
      <trkpt lat="59.9551589" lon="17.7212818">
        <ele>55.4131</ele>
        <time>2014-07-01T10:33:09Z</time>
      </trkpt>
      <trkpt lat="59.9551414" lon="17.7212753">
        <ele>55.8938</ele>
        <time>2014-07-01T10:33:10Z</time>
      </trkpt>
      <trkpt lat="59.9551216" lon="17.7212721">
        <ele>56.3745</ele>
        <time>2014-07-01T10:33:11Z</time>
      </trkpt>
      <trkpt lat="59.9551009" lon="17.7212717">
        <ele>56.3745</ele>
        <time>2014-07-01T10:33:12Z</time>
      </trkpt>
      <trkpt lat="59.955077" lon="17.7212859">
        <ele>56.3745</ele>
        <time>2014-07-01T10:33:13Z</time>
      </trkpt>
      <trkpt lat="59.955053" lon="17.7212985">
        <ele>56.3745</ele>
        <time>2014-07-01T10:33:14Z</time>
      </trkpt>
      <trkpt lat="59.9550254" lon="17.7212975">
        <ele>55.4131</ele>
        <time>2014-07-01T10:33:15Z</time>
      </trkpt>
      <trkpt lat="59.9549994" lon="17.7212944">
        <ele>55.4131</ele>
        <time>2014-07-01T10:33:16Z</time>
      </trkpt>
      <trkpt lat="59.9549722" lon="17.7212875">
        <ele>54.4518</ele>
        <time>2014-07-01T10:33:17Z</time>
      </trkpt>
      <trkpt lat="59.9549454" lon="17.7212764">
        <ele>54.4518</ele>
        <time>2014-07-01T10:33:18Z</time>
      </trkpt>
      <trkpt lat="59.9549168" lon="17.7212554">
        <ele>53.4905</ele>
        <time>2014-07-01T10:33:19Z</time>
      </trkpt>
      <trkpt lat="59.9548858" lon="17.7212321">
        <ele>52.5292</ele>
        <time>2014-07-01T10:33:20Z</time>
      </trkpt>
      <trkpt lat="59.9548558" lon="17.7212083">
        <ele>53.0098</ele>
        <time>2014-07-01T10:33:21Z</time>
      </trkpt>
      <trkpt lat="59.9548274" lon="17.7211737">
        <ele>52.5292</ele>
        <time>2014-07-01T10:33:22Z</time>
      </trkpt>
      <trkpt lat="59.9548068" lon="17.7211163">
        <ele>50.6066</ele>
        <time>2014-07-01T10:33:23Z</time>
      </trkpt>
      <trkpt lat="59.9547947" lon="17.7210658">
        <ele>49.1646</ele>
        <time>2014-07-01T10:33:24Z</time>
      </trkpt>
      <trkpt lat="59.9547828" lon="17.7210127">
        <ele>48.684</ele>
        <time>2014-07-01T10:33:25Z</time>
      </trkpt>
      <trkpt lat="59.954775" lon="17.720953">
        <ele>48.2034</ele>
        <time>2014-07-01T10:33:26Z</time>
      </trkpt>
      <trkpt lat="59.9547657" lon="17.7208945">
        <ele>47.7225</ele>
        <time>2014-07-01T10:33:27Z</time>
      </trkpt>
      <trkpt lat="59.9547595" lon="17.720833">
        <ele>47.2418</ele>
        <time>2014-07-01T10:33:28Z</time>
      </trkpt>
      <trkpt lat="59.9547559" lon="17.7207692">
        <ele>48.2034</ele>
        <time>2014-07-01T10:33:29Z</time>
      </trkpt>
      <trkpt lat="59.9547517" lon="17.7207035">
        <ele>48.684</ele>
        <time>2014-07-01T10:33:30Z</time>
      </trkpt>
      <trkpt lat="59.954746" lon="17.720636">
        <ele>47.7225</ele>
        <time>2014-07-01T10:33:31Z</time>
      </trkpt>
      <trkpt lat="59.9547548" lon="17.7205861">
        <ele>48.2034</ele>
        <time>2014-07-01T10:33:32Z</time>
      </trkpt>
      <trkpt lat="59.9547694" lon="17.720549">
        <ele>48.2034</ele>
        <time>2014-07-01T10:33:33Z</time>
      </trkpt>
      <trkpt lat="59.9547818" lon="17.7205139">
        <ele>48.2034</ele>
        <time>2014-07-01T10:33:34Z</time>
      </trkpt>
      <trkpt lat="59.954799" lon="17.7204833">
        <ele>48.2034</ele>
        <time>2014-07-01T10:33:35Z</time>
      </trkpt>
      <trkpt lat="59.9548223" lon="17.7204521">
        <ele>48.684</ele>
        <time>2014-07-01T10:33:36Z</time>
      </trkpt>
      <trkpt lat="59.9548461" lon="17.7204141">
        <ele>49.6453</ele>
        <time>2014-07-01T10:33:37Z</time>
      </trkpt>
      <trkpt lat="59.9548688" lon="17.7203799">
        <ele>50.126</ele>
        <time>2014-07-01T10:33:38Z</time>
      </trkpt>
      <trkpt lat="59.9548948" lon="17.7203505">
        <ele>50.6066</ele>
        <time>2014-07-01T10:33:39Z</time>
      </trkpt>
      <trkpt lat="59.9549163" lon="17.7203195">
        <ele>50.6066</ele>
        <time>2014-07-01T10:33:40Z</time>
      </trkpt>
      <trkpt lat="59.954946" lon="17.7202893">
        <ele>50.6066</ele>
        <time>2014-07-01T10:33:41Z</time>
      </trkpt>
      <trkpt lat="59.9549766" lon="17.7202515">
        <ele>51.5679</ele>
        <time>2014-07-01T10:33:42Z</time>
      </trkpt>
      <trkpt lat="59.9549969" lon="17.7202159">
        <ele>51.5679</ele>
        <time>2014-07-01T10:33:43Z</time>
      </trkpt>
      <trkpt lat="59.9550108" lon="17.7201729">
        <ele>51.0872</ele>
        <time>2014-07-01T10:33:44Z</time>
      </trkpt>
      <trkpt lat="59.9550299" lon="17.7201464">
        <ele>51.5679</ele>
        <time>2014-07-01T10:33:45Z</time>
      </trkpt>
      <trkpt lat="59.9550536" lon="17.7201272">
        <ele>52.5292</ele>
        <time>2014-07-01T10:33:46Z</time>
      </trkpt>
      <trkpt lat="59.9550766" lon="17.7201138">
        <ele>53.0098</ele>
        <time>2014-07-01T10:33:47Z</time>
      </trkpt>
      <trkpt lat="59.9551009" lon="17.7200987">
        <ele>54.4518</ele>
        <time>2014-07-01T10:33:48Z</time>
      </trkpt>
      <trkpt lat="59.9551232" lon="17.7200717">
        <ele>53.9712</ele>
        <time>2014-07-01T10:33:49Z</time>
      </trkpt>
      <trkpt lat="59.9551533" lon="17.7200496">
        <ele>53.9712</ele>
        <time>2014-07-01T10:33:50Z</time>
      </trkpt>
      <trkpt lat="59.9551867" lon="17.7200248">
        <ele>55.4131</ele>
        <time>2014-07-01T10:33:51Z</time>
      </trkpt>
      <trkpt lat="59.9552055" lon="17.7200066">
        <ele>54.9324</ele>
        <time>2014-07-01T10:33:52Z</time>
      </trkpt>
      <trkpt lat="59.9552283" lon="17.719995">
        <ele>55.4131</ele>
        <time>2014-07-01T10:33:53Z</time>
      </trkpt>
      <trkpt lat="59.9552484" lon="17.7199795">
        <ele>54.9324</ele>
        <time>2014-07-01T10:33:54Z</time>
      </trkpt>
      <trkpt lat="59.9552651" lon="17.7199507">
        <ele>54.4518</ele>
        <time>2014-07-01T10:33:55Z</time>
      </trkpt>
      <trkpt lat="59.9552905" lon="17.7199207">
        <ele>54.4518</ele>
        <time>2014-07-01T10:33:56Z</time>
      </trkpt>
      <trkpt lat="59.9553158" lon="17.7198953">
        <ele>54.9324</ele>
        <time>2014-07-01T10:33:57Z</time>
      </trkpt>
      <trkpt lat="59.95534" lon="17.7198743">
        <ele>54.9324</ele>
        <time>2014-07-01T10:33:58Z</time>
      </trkpt>
      <trkpt lat="59.9553625" lon="17.7198532">
        <ele>54.9324</ele>
        <time>2014-07-01T10:33:59Z</time>
      </trkpt>
      <trkpt lat="59.9553884" lon="17.719833">
        <ele>56.3745</ele>
        <time>2014-07-01T10:34:00Z</time>
      </trkpt>
      <trkpt lat="59.9554125" lon="17.7198062">
        <ele>56.8551</ele>
        <time>2014-07-01T10:34:01Z</time>
      </trkpt>
      <trkpt lat="59.9554338" lon="17.7197887">
        <ele>56.8551</ele>
        <time>2014-07-01T10:34:02Z</time>
      </trkpt>
      <trkpt lat="59.9554536" lon="17.7197842">
        <ele>56.8551</ele>
        <time>2014-07-01T10:34:03Z</time>
      </trkpt>
      <trkpt lat="59.9554755" lon="17.719777">
        <ele>57.8165</ele>
        <time>2014-07-01T10:34:04Z</time>
      </trkpt>
      <trkpt lat="59.9554972" lon="17.719773">
        <ele>57.8165</ele>
        <time>2014-07-01T10:34:05Z</time>
      </trkpt>
      <trkpt lat="59.9555236" lon="17.7197792">
        <ele>58.2971</ele>
        <time>2014-07-01T10:34:06Z</time>
      </trkpt>
      <trkpt lat="59.9555495" lon="17.7197787">
        <ele>57.8165</ele>
        <time>2014-07-01T10:34:07Z</time>
      </trkpt>
      <trkpt lat="59.9555754" lon="17.7197707">
        <ele>57.8165</ele>
        <time>2014-07-01T10:34:08Z</time>
      </trkpt>
      <trkpt lat="59.9555964" lon="17.7197595">
        <ele>56.8551</ele>
        <time>2014-07-01T10:34:09Z</time>
      </trkpt>
      <trkpt lat="59.9556174" lon="17.7197381">
        <ele>56.3745</ele>
        <time>2014-07-01T10:34:10Z</time>
      </trkpt>
      <trkpt lat="59.9556376" lon="17.7197144">
        <ele>55.4131</ele>
        <time>2014-07-01T10:34:11Z</time>
      </trkpt>
      <trkpt lat="59.9556571" lon="17.7196917">
        <ele>54.4518</ele>
        <time>2014-07-01T10:34:12Z</time>
      </trkpt>
      <trkpt lat="59.9556712" lon="17.7196715">
        <ele>53.0098</ele>
        <time>2014-07-01T10:34:13Z</time>
      </trkpt>
      <trkpt lat="59.9556815" lon="17.7196465">
        <ele>51.0872</ele>
        <time>2014-07-01T10:34:14Z</time>
      </trkpt>
      <trkpt lat="59.9556982" lon="17.7196212">
        <ele>50.126</ele>
        <time>2014-07-01T10:34:15Z</time>
      </trkpt>
      <trkpt lat="59.9557178" lon="17.7195988">
        <ele>50.126</ele>
        <time>2014-07-01T10:34:16Z</time>
      </trkpt>
      <trkpt lat="59.9557345" lon="17.7195661">
        <ele>49.1646</ele>
        <time>2014-07-01T10:34:17Z</time>
      </trkpt>
      <trkpt lat="59.9557479" lon="17.7195336">
        <ele>47.7225</ele>
        <time>2014-07-01T10:34:18Z</time>
      </trkpt>
      <trkpt lat="59.9557632" lon="17.7194979">
        <ele>46.2806</ele>
        <time>2014-07-01T10:34:19Z</time>
      </trkpt>
      <trkpt lat="59.9557793" lon="17.7194675">
        <ele>45.3192</ele>
        <time>2014-07-01T10:34:20Z</time>
      </trkpt>
      <trkpt lat="59.9558002" lon="17.7194379">
        <ele>45.3192</ele>
        <time>2014-07-01T10:34:21Z</time>
      </trkpt>
      <trkpt lat="59.9558234" lon="17.7194144">
        <ele>44.8386</ele>
        <time>2014-07-01T10:34:22Z</time>
      </trkpt>
      <trkpt lat="59.955851" lon="17.7193949">
        <ele>44.8386</ele>
        <time>2014-07-01T10:34:23Z</time>
      </trkpt>
      <trkpt lat="59.9558783" lon="17.7193787">
        <ele>44.358</ele>
        <time>2014-07-01T10:34:24Z</time>
      </trkpt>
      <trkpt lat="59.9559062" lon="17.7193466">
        <ele>45.3192</ele>
        <time>2014-07-01T10:34:25Z</time>
      </trkpt>
      <trkpt lat="59.9559302" lon="17.7193129">
        <ele>45.3192</ele>
        <time>2014-07-01T10:34:26Z</time>
      </trkpt>
      <trkpt lat="59.9559551" lon="17.7192835">
        <ele>45.3192</ele>
        <time>2014-07-01T10:34:27Z</time>
      </trkpt>
      <trkpt lat="59.9559835" lon="17.7192546">
        <ele>45.3192</ele>
        <time>2014-07-01T10:34:28Z</time>
      </trkpt>
      <trkpt lat="59.9560121" lon="17.7192149">
        <ele>46.2806</ele>
        <time>2014-07-01T10:34:29Z</time>
      </trkpt>
      <trkpt lat="59.9560328" lon="17.7191759">
        <ele>45.3192</ele>
        <time>2014-07-01T10:34:30Z</time>
      </trkpt>
      <trkpt lat="59.9560528" lon="17.7191334">
        <ele>44.8386</ele>
        <time>2014-07-01T10:34:31Z</time>
      </trkpt>
      <trkpt lat="59.9560754" lon="17.7190927">
        <ele>44.8386</ele>
        <time>2014-07-01T10:34:32Z</time>
      </trkpt>
      <trkpt lat="59.9561046" lon="17.7190546">
        <ele>44.358</ele>
        <time>2014-07-01T10:34:33Z</time>
      </trkpt>
      <trkpt lat="59.9561298" lon="17.7190241">
        <ele>43.8773</ele>
        <time>2014-07-01T10:34:34Z</time>
      </trkpt>
      <trkpt lat="59.9561502" lon="17.7189979">
        <ele>43.8773</ele>
        <time>2014-07-01T10:34:35Z</time>
      </trkpt>
      <trkpt lat="59.9561644" lon="17.7189623">
        <ele>43.8773</ele>
        <time>2014-07-01T10:34:36Z</time>
      </trkpt>
      <trkpt lat="59.9561816" lon="17.7189265">
        <ele>43.8773</ele>
        <time>2014-07-01T10:34:37Z</time>
      </trkpt>
      <trkpt lat="59.9561969" lon="17.7188913">
        <ele>43.3966</ele>
        <time>2014-07-01T10:34:38Z</time>
      </trkpt>
      <trkpt lat="59.9562087" lon="17.7188503">
        <ele>43.8773</ele>
        <time>2014-07-01T10:34:39Z</time>
      </trkpt>
      <trkpt lat="59.9562159" lon="17.7188023">
        <ele>45.3192</ele>
        <time>2014-07-01T10:34:40Z</time>
      </trkpt>
      <trkpt lat="59.9562177" lon="17.7187561">
        <ele>45.3192</ele>
        <time>2014-07-01T10:34:41Z</time>
      </trkpt>
      <trkpt lat="59.9562105" lon="17.7187053">
        <ele>44.8386</ele>
        <time>2014-07-01T10:34:42Z</time>
      </trkpt>
      <trkpt lat="59.9562016" lon="17.7186537">
        <ele>44.8386</ele>
        <time>2014-07-01T10:34:43Z</time>
      </trkpt>
      <trkpt lat="59.9561907" lon="17.7185935">
        <ele>45.3192</ele>
        <time>2014-07-01T10:34:44Z</time>
      </trkpt>
      <trkpt lat="59.9561804" lon="17.7185309">
        <ele>45.3192</ele>
        <time>2014-07-01T10:34:45Z</time>
      </trkpt>
      <trkpt lat="59.9561669" lon="17.7184705">
        <ele>45.3192</ele>
        <time>2014-07-01T10:34:46Z</time>
      </trkpt>
      <trkpt lat="59.9561517" lon="17.718425">
        <ele>45.3192</ele>
        <time>2014-07-01T10:34:47Z</time>
      </trkpt>
      <trkpt lat="59.9561344" lon="17.7183825">
        <ele>45.3192</ele>
        <time>2014-07-01T10:34:48Z</time>
      </trkpt>
      <trkpt lat="59.9561142" lon="17.7183381">
        <ele>45.7999</ele>
        <time>2014-07-01T10:34:49Z</time>
      </trkpt>
      <trkpt lat="59.9560934" lon="17.718298">
        <ele>46.7612</ele>
        <time>2014-07-01T10:34:50Z</time>
      </trkpt>
      <trkpt lat="59.9560712" lon="17.7182604">
        <ele>47.2418</ele>
        <time>2014-07-01T10:34:51Z</time>
      </trkpt>
      <trkpt lat="59.9560519" lon="17.718219">
        <ele>48.2034</ele>
        <time>2014-07-01T10:34:52Z</time>
      </trkpt>
      <trkpt lat="59.956036" lon="17.7181811">
        <ele>48.684</ele>
        <time>2014-07-01T10:34:53Z</time>
      </trkpt>
      <trkpt lat="59.9560141" lon="17.7181434">
        <ele>49.1646</ele>
        <time>2014-07-01T10:34:54Z</time>
      </trkpt>
      <trkpt lat="59.9559987" lon="17.7181035">
        <ele>50.126</ele>
        <time>2014-07-01T10:34:55Z</time>
      </trkpt>
      <trkpt lat="59.9559771" lon="17.7180575">
        <ele>50.6066</ele>
        <time>2014-07-01T10:34:56Z</time>
      </trkpt>
      <trkpt lat="59.9559572" lon="17.7180122">
        <ele>51.0872</ele>
        <time>2014-07-01T10:34:57Z</time>
      </trkpt>
      <trkpt lat="59.9559343" lon="17.7179627">
        <ele>51.0872</ele>
        <time>2014-07-01T10:34:58Z</time>
      </trkpt>
      <trkpt lat="59.9559136" lon="17.7179227">
        <ele>51.5679</ele>
        <time>2014-07-01T10:34:59Z</time>
      </trkpt>
      <trkpt lat="59.9558976" lon="17.7178784">
        <ele>52.5292</ele>
        <time>2014-07-01T10:35:00Z</time>
      </trkpt>
      <trkpt lat="59.9558813" lon="17.7178398">
        <ele>53.0098</ele>
        <time>2014-07-01T10:35:01Z</time>
      </trkpt>
      <trkpt lat="59.9558575" lon="17.7178094">
        <ele>53.0098</ele>
        <time>2014-07-01T10:35:02Z</time>
      </trkpt>
      <trkpt lat="59.9558359" lon="17.7177838">
        <ele>53.0098</ele>
        <time>2014-07-01T10:35:03Z</time>
      </trkpt>
      <trkpt lat="59.9558156" lon="17.7177486">
        <ele>53.4905</ele>
        <time>2014-07-01T10:35:04Z</time>
      </trkpt>
      <trkpt lat="59.9557966" lon="17.7177099">
        <ele>53.9712</ele>
        <time>2014-07-01T10:35:05Z</time>
      </trkpt>
      <trkpt lat="59.9557785" lon="17.7176684">
        <ele>54.4518</ele>
        <time>2014-07-01T10:35:06Z</time>
      </trkpt>
      <trkpt lat="59.9557577" lon="17.7176273">
        <ele>54.9324</ele>
        <time>2014-07-01T10:35:07Z</time>
      </trkpt>
      <trkpt lat="59.9557433" lon="17.7175956">
        <ele>55.8938</ele>
        <time>2014-07-01T10:35:08Z</time>
      </trkpt>
      <trkpt lat="59.9557254" lon="17.7175562">
        <ele>56.3745</ele>
        <time>2014-07-01T10:35:09Z</time>
      </trkpt>
      <trkpt lat="59.9557126" lon="17.7175097">
        <ele>56.8551</ele>
        <time>2014-07-01T10:35:10Z</time>
      </trkpt>
      <trkpt lat="59.9557002" lon="17.7174678">
        <ele>57.3358</ele>
        <time>2014-07-01T10:35:11Z</time>
      </trkpt>
      <trkpt lat="59.9556851" lon="17.7174295">
        <ele>56.8551</ele>
        <time>2014-07-01T10:35:12Z</time>
      </trkpt>
      <trkpt lat="59.9556686" lon="17.7173881">
        <ele>57.8165</ele>
        <time>2014-07-01T10:35:13Z</time>
      </trkpt>
      <trkpt lat="59.9556532" lon="17.7173455">
        <ele>58.2971</ele>
        <time>2014-07-01T10:35:14Z</time>
      </trkpt>
      <trkpt lat="59.9556355" lon="17.7173015">
        <ele>58.2971</ele>
        <time>2014-07-01T10:35:15Z</time>
      </trkpt>
      <trkpt lat="59.9556179" lon="17.7172533">
        <ele>58.2971</ele>
        <time>2014-07-01T10:35:16Z</time>
      </trkpt>
      <trkpt lat="59.9556057" lon="17.7172004">
        <ele>58.2971</ele>
        <time>2014-07-01T10:35:17Z</time>
      </trkpt>
      <trkpt lat="59.9555955" lon="17.7171501">
        <ele>58.2971</ele>
        <time>2014-07-01T10:35:18Z</time>
      </trkpt>
      <trkpt lat="59.9555825" lon="17.7170971">
        <ele>57.8165</ele>
        <time>2014-07-01T10:35:19Z</time>
      </trkpt>
      <trkpt lat="59.9555698" lon="17.7170374">
        <ele>57.3358</ele>
        <time>2014-07-01T10:35:20Z</time>
      </trkpt>
      <trkpt lat="59.955564" lon="17.7169797">
        <ele>57.3358</ele>
        <time>2014-07-01T10:35:21Z</time>
      </trkpt>
      <trkpt lat="59.9555562" lon="17.7169235">
        <ele>56.8551</ele>
        <time>2014-07-01T10:35:22Z</time>
      </trkpt>
      <trkpt lat="59.9555483" lon="17.7168675">
        <ele>56.3745</ele>
        <time>2014-07-01T10:35:23Z</time>
      </trkpt>
      <trkpt lat="59.9555417" lon="17.7168105">
        <ele>56.3745</ele>
        <time>2014-07-01T10:35:24Z</time>
      </trkpt>
      <trkpt lat="59.9555337" lon="17.7167477">
        <ele>56.8551</ele>
        <time>2014-07-01T10:35:25Z</time>
      </trkpt>
      <trkpt lat="59.9555236" lon="17.7166877">
        <ele>56.3745</ele>
        <time>2014-07-01T10:35:26Z</time>
      </trkpt>
      <trkpt lat="59.9555173" lon="17.7166287">
        <ele>56.3745</ele>
        <time>2014-07-01T10:35:27Z</time>
      </trkpt>
      <trkpt lat="59.955513" lon="17.7165778">
        <ele>56.8551</ele>
        <time>2014-07-01T10:35:28Z</time>
      </trkpt>
      <trkpt lat="59.9555061" lon="17.7165297">
        <ele>56.8551</ele>
        <time>2014-07-01T10:35:29Z</time>
      </trkpt>
      <trkpt lat="59.9554982" lon="17.716472">
        <ele>56.3745</ele>
        <time>2014-07-01T10:35:30Z</time>
      </trkpt>
      <trkpt lat="59.955494" lon="17.7164122">
        <ele>56.3745</ele>
        <time>2014-07-01T10:35:31Z</time>
      </trkpt>
      <trkpt lat="59.9554887" lon="17.7163521">
        <ele>56.8551</ele>
        <time>2014-07-01T10:35:32Z</time>
      </trkpt>
      <trkpt lat="59.9554775" lon="17.716291">
        <ele>57.3358</ele>
        <time>2014-07-01T10:35:33Z</time>
      </trkpt>
      <trkpt lat="59.9554705" lon="17.7162252">
        <ele>56.8551</ele>
        <time>2014-07-01T10:35:34Z</time>
      </trkpt>
      <trkpt lat="59.955467" lon="17.7161634">
        <ele>55.8938</ele>
        <time>2014-07-01T10:35:35Z</time>
      </trkpt>
      <trkpt lat="59.9554656" lon="17.7160988">
        <ele>55.4131</ele>
        <time>2014-07-01T10:35:36Z</time>
      </trkpt>
      <trkpt lat="59.9554617" lon="17.7160376">
        <ele>54.9324</ele>
        <time>2014-07-01T10:35:37Z</time>
      </trkpt>
      <trkpt lat="59.9554551" lon="17.7159701">
        <ele>54.4518</ele>
        <time>2014-07-01T10:35:38Z</time>
      </trkpt>
      <trkpt lat="59.9554543" lon="17.7159009">
        <ele>54.4518</ele>
        <time>2014-07-01T10:35:39Z</time>
      </trkpt>
      <trkpt lat="59.9554542" lon="17.7158423">
        <ele>54.4518</ele>
        <time>2014-07-01T10:35:40Z</time>
      </trkpt>
      <trkpt lat="59.9554494" lon="17.7157823">
        <ele>55.4131</ele>
        <time>2014-07-01T10:35:41Z</time>
      </trkpt>
      <trkpt lat="59.9554437" lon="17.7157225">
        <ele>55.8938</ele>
        <time>2014-07-01T10:35:42Z</time>
      </trkpt>
      <trkpt lat="59.9554363" lon="17.7156624">
        <ele>55.4131</ele>
        <time>2014-07-01T10:35:43Z</time>
      </trkpt>
      <trkpt lat="59.9554271" lon="17.7155953">
        <ele>55.8938</ele>
        <time>2014-07-01T10:35:44Z</time>
      </trkpt>
      <trkpt lat="59.9554136" lon="17.7155313">
        <ele>56.3745</ele>
        <time>2014-07-01T10:35:45Z</time>
      </trkpt>
      <trkpt lat="59.955404" lon="17.7154684">
        <ele>55.4131</ele>
        <time>2014-07-01T10:35:46Z</time>
      </trkpt>
      <trkpt lat="59.9554032" lon="17.7154097">
        <ele>55.4131</ele>
        <time>2014-07-01T10:35:47Z</time>
      </trkpt>
      <trkpt lat="59.9553996" lon="17.7153498">
        <ele>54.4518</ele>
        <time>2014-07-01T10:35:48Z</time>
      </trkpt>
      <trkpt lat="59.9553961" lon="17.7152882">
        <ele>54.4518</ele>
        <time>2014-07-01T10:35:49Z</time>
      </trkpt>
      <trkpt lat="59.9553892" lon="17.7152258">
        <ele>54.4518</ele>
        <time>2014-07-01T10:35:50Z</time>
      </trkpt>
      <trkpt lat="59.9553828" lon="17.7151612">
        <ele>54.9324</ele>
        <time>2014-07-01T10:35:51Z</time>
      </trkpt>
      <trkpt lat="59.9553754" lon="17.7150943">
        <ele>54.4518</ele>
        <time>2014-07-01T10:35:52Z</time>
      </trkpt>
      <trkpt lat="59.9553583" lon="17.7150379">
        <ele>54.4518</ele>
        <time>2014-07-01T10:35:53Z</time>
      </trkpt>
      <trkpt lat="59.9553439" lon="17.7149849">
        <ele>54.4518</ele>
        <time>2014-07-01T10:35:54Z</time>
      </trkpt>
      <trkpt lat="59.9553314" lon="17.7149194">
        <ele>54.4518</ele>
        <time>2014-07-01T10:35:55Z</time>
      </trkpt>
      <trkpt lat="59.95532" lon="17.7148579">
        <ele>54.9324</ele>
        <time>2014-07-01T10:35:56Z</time>
      </trkpt>
      <trkpt lat="59.9553102" lon="17.7147986">
        <ele>55.8938</ele>
        <time>2014-07-01T10:35:57Z</time>
      </trkpt>
      <trkpt lat="59.9552932" lon="17.7147333">
        <ele>55.8938</ele>
        <time>2014-07-01T10:35:58Z</time>
      </trkpt>
      <trkpt lat="59.9552799" lon="17.7146684">
        <ele>56.3745</ele>
        <time>2014-07-01T10:35:59Z</time>
      </trkpt>
      <trkpt lat="59.9552712" lon="17.7146069">
        <ele>56.3745</ele>
        <time>2014-07-01T10:36:00Z</time>
      </trkpt>
      <trkpt lat="59.9552656" lon="17.7145437">
        <ele>56.8551</ele>
        <time>2014-07-01T10:36:01Z</time>
      </trkpt>
      <trkpt lat="59.9552602" lon="17.7144806">
        <ele>56.8551</ele>
        <time>2014-07-01T10:36:02Z</time>
      </trkpt>
      <trkpt lat="59.9552511" lon="17.7144282">
        <ele>55.8938</ele>
        <time>2014-07-01T10:36:03Z</time>
      </trkpt>
      <trkpt lat="59.9552458" lon="17.7143697">
        <ele>55.4131</ele>
        <time>2014-07-01T10:36:04Z</time>
      </trkpt>
      <trkpt lat="59.9552366" lon="17.7143088">
        <ele>55.4131</ele>
        <time>2014-07-01T10:36:05Z</time>
      </trkpt>
      <trkpt lat="59.9552186" lon="17.7142517">
        <ele>54.9324</ele>
        <time>2014-07-01T10:36:06Z</time>
      </trkpt>
      <trkpt lat="59.9552034" lon="17.7141934">
        <ele>54.4518</ele>
        <time>2014-07-01T10:36:07Z</time>
      </trkpt>
      <trkpt lat="59.9551898" lon="17.714142">
        <ele>54.9324</ele>
        <time>2014-07-01T10:36:08Z</time>
      </trkpt>
      <trkpt lat="59.9551691" lon="17.714111">
        <ele>54.4518</ele>
        <time>2014-07-01T10:36:09Z</time>
      </trkpt>
      <trkpt lat="59.9551439" lon="17.7141034">
        <ele>54.9324</ele>
        <time>2014-07-01T10:36:10Z</time>
      </trkpt>
      <trkpt lat="59.955116" lon="17.714121">
        <ele>54.4518</ele>
        <time>2014-07-01T10:36:11Z</time>
      </trkpt>
      <trkpt lat="59.955091" lon="17.7141517">
        <ele>53.0098</ele>
        <time>2014-07-01T10:36:12Z</time>
      </trkpt>
      <trkpt lat="59.9550703" lon="17.7141862">
        <ele>52.5292</ele>
        <time>2014-07-01T10:36:13Z</time>
      </trkpt>
    </trkseg>
  </trk>
</gpx>